<?xml version='1.0' encoding='UTF-8'?><gpx version="1.1" creator="JPX - https://github.com/jenetics/jpx" xmlns="http://www.topografix.com/GPX/1/1"><trk><trkseg><trkpt lat="46.1210943" lon="13.0009267"><ele>151.0</ele><time>2026-04-26T17:33:41.393Z</time></trkpt><trkpt lat="46.1210006" lon="13.0009626"><ele>151.0</ele><time>2026-04-26T17:33:43.394Z</time></trkpt><trkpt lat="46.1209434" lon="13.0010017"><ele>151.0</ele><time>2026-04-26T17:33:45.395Z</time></trkpt><trkpt lat="46.1209604" lon="13.0010902"><ele>151.0</ele><time>2026-04-26T17:33:54.393Z</time></trkpt><trkpt lat="46.1210822" lon="13.0010674"><ele>151.0</ele><time>2026-04-26T17:33:56.394Z</time></trkpt><trkpt lat="46.1211594" lon="13.0010416"><ele>151.0</ele><time>2026-04-26T17:33:57.394Z</time></trkpt><trkpt lat="46.1212406" lon="13.0010114"><ele>151.0</ele><time>2026-04-26T17:33:58.394Z</time></trkpt><trkpt lat="46.1213363" lon="13.0009794"><ele>151.0</ele><time>2026-04-26T17:33:59.395Z</time></trkpt><trkpt lat="46.1214484" lon="13.0009422"><ele>151.0</ele><time>2026-04-26T17:34:00.393Z</time></trkpt><trkpt lat="46.1215686" lon="13.000901"><ele>151.0</ele><time>2026-04-26T17:34:01.395Z</time></trkpt><trkpt lat="46.1216898" lon="13.0008601"><ele>150.33333333333334</ele><time>2026-04-26T17:34:02.394Z</time></trkpt><trkpt lat="46.1218287" lon="13.0008123"><ele>149.66666666666666</ele><time>2026-04-26T17:34:03.394Z</time></trkpt><trkpt lat="46.12198" lon="13.0007627"><ele>149.0</ele><time>2026-04-26T17:34:04.394Z</time></trkpt><trkpt lat="46.1221378" lon="13.0007096"><ele>149.0</ele><time>2026-04-26T17:34:05.393Z</time></trkpt><trkpt lat="46.122296" lon="13.0006578"><ele>149.0</ele><time>2026-04-26T17:34:06.395Z</time></trkpt><trkpt lat="46.1224653" lon="13.0006078"><ele>149.0</ele><time>2026-04-26T17:34:07.394Z</time></trkpt><trkpt lat="46.1226403" lon="13.0005606"><ele>149.66666666666666</ele><time>2026-04-26T17:34:08.394Z</time></trkpt><trkpt lat="46.1228147" lon="13.0005179"><ele>150.33333333333334</ele><time>2026-04-26T17:34:09.394Z</time></trkpt><trkpt lat="46.1229923" lon="13.0004773"><ele>151.0</ele><time>2026-04-26T17:34:10.393Z</time></trkpt><trkpt lat="46.1231706" lon="13.0004395"><ele>151.33333333333334</ele><time>2026-04-26T17:34:11.394Z</time></trkpt><trkpt lat="46.1233471" lon="13.0004038"><ele>151.66666666666666</ele><time>2026-04-26T17:34:12.395Z</time></trkpt><trkpt lat="46.1235233" lon="13.0003713"><ele>152.0</ele><time>2026-04-26T17:34:13.394Z</time></trkpt><trkpt lat="46.1237007" lon="13.0003344"><ele>152.0</ele><time>2026-04-26T17:34:14.394Z</time></trkpt><trkpt lat="46.1238822" lon="13.0002999"><ele>152.0</ele><time>2026-04-26T17:34:15.395Z</time></trkpt><trkpt lat="46.1240662" lon="13.0002671"><ele>152.0</ele><time>2026-04-26T17:34:16.395Z</time></trkpt><trkpt lat="46.1242544" lon="13.0002324"><ele>151.66666666666666</ele><time>2026-04-26T17:34:17.394Z</time></trkpt><trkpt lat="46.1244429" lon="13.0001972"><ele>151.33333333333334</ele><time>2026-04-26T17:34:18.393Z</time></trkpt><trkpt lat="46.1246296" lon="13.0001648"><ele>151.0</ele><time>2026-04-26T17:34:19.395Z</time></trkpt><trkpt lat="46.1248178" lon="13.0001334"><ele>152.0</ele><time>2026-04-26T17:34:20.393Z</time></trkpt><trkpt lat="46.1250068" lon="13.0001017"><ele>153.0</ele><time>2026-04-26T17:34:21.395Z</time></trkpt><trkpt lat="46.1251964" lon="13.0000676"><ele>154.0</ele><time>2026-04-26T17:34:22.393Z</time></trkpt><trkpt lat="46.125384" lon="13.0000315"><ele>154.0</ele><time>2026-04-26T17:34:23.393Z</time></trkpt><trkpt lat="46.1255708" lon="12.9999944"><ele>154.0</ele><time>2026-04-26T17:34:24.395Z</time></trkpt><trkpt lat="46.1257566" lon="12.9999589"><ele>154.0</ele><time>2026-04-26T17:34:25.394Z</time></trkpt><trkpt lat="46.1259416" lon="12.9999243"><ele>154.33333333333334</ele><time>2026-04-26T17:34:26.395Z</time></trkpt><trkpt lat="46.1261272" lon="12.9998896"><ele>154.66666666666666</ele><time>2026-04-26T17:34:27.393Z</time></trkpt><trkpt lat="46.1263125" lon="12.9998551"><ele>155.0</ele><time>2026-04-26T17:34:28.393Z</time></trkpt><trkpt lat="46.1264983" lon="12.9998195"><ele>155.33333333333331</ele><time>2026-04-26T17:34:29.395Z</time></trkpt><trkpt lat="46.1266833" lon="12.9997856"><ele>155.66666666666666</ele><time>2026-04-26T17:34:30.394Z</time></trkpt><trkpt lat="46.1268645" lon="12.9997514"><ele>156.0</ele><time>2026-04-26T17:34:31.394Z</time></trkpt><trkpt lat="46.1270447" lon="12.9997155"><ele>156.0</ele><time>2026-04-26T17:34:32.395Z</time></trkpt><trkpt lat="46.1272252" lon="12.999684"><ele>156.0</ele><time>2026-04-26T17:34:33.394Z</time></trkpt><trkpt lat="46.1274059" lon="12.9996502"><ele>156.0</ele><time>2026-04-26T17:34:34.393Z</time></trkpt><trkpt lat="46.1275857" lon="12.9996162"><ele>156.66666666666666</ele><time>2026-04-26T17:34:35.394Z</time></trkpt><trkpt lat="46.1277664" lon="12.9995847"><ele>157.33333333333331</ele><time>2026-04-26T17:34:36.393Z</time></trkpt><trkpt lat="46.127948" lon="12.9995514"><ele>158.0</ele><time>2026-04-26T17:34:37.394Z</time></trkpt><trkpt lat="46.1281291" lon="12.9995167"><ele>156.66666666666666</ele><time>2026-04-26T17:34:38.394Z</time></trkpt><trkpt lat="46.1283059" lon="12.9994841"><ele>155.33333333333334</ele><time>2026-04-26T17:34:39.393Z</time></trkpt><trkpt lat="46.1284837" lon="12.9994493"><ele>154.0</ele><time>2026-04-26T17:34:40.395Z</time></trkpt><trkpt lat="46.1286636" lon="12.9994168"><ele>154.0</ele><time>2026-04-26T17:34:41.394Z</time></trkpt><trkpt lat="46.1288452" lon="12.9993876"><ele>154.0</ele><time>2026-04-26T17:34:42.394Z</time></trkpt><trkpt lat="46.1290262" lon="12.9993667"><ele>154.0</ele><time>2026-04-26T17:34:43.394Z</time></trkpt><trkpt lat="46.1292088" lon="12.9993573"><ele>154.66666666666669</ele><time>2026-04-26T17:34:44.394Z</time></trkpt><trkpt lat="46.1293946" lon="12.9993539"><ele>155.33333333333334</ele><time>2026-04-26T17:34:45.394Z</time></trkpt><trkpt lat="46.129582" lon="12.9993529"><ele>156.0</ele><time>2026-04-26T17:34:46.394Z</time></trkpt><trkpt lat="46.1297691" lon="12.999354"><ele>157.33333333333334</ele><time>2026-04-26T17:34:47.394Z</time></trkpt><trkpt lat="46.1299594" lon="12.9993558"><ele>158.66666666666669</ele><time>2026-04-26T17:34:48.393Z</time></trkpt><trkpt lat="46.1301493" lon="12.9993576"><ele>160.0</ele><time>2026-04-26T17:34:49.393Z</time></trkpt><trkpt lat="46.1303375" lon="12.9993582"><ele>160.0</ele><time>2026-04-26T17:34:50.393Z</time></trkpt><trkpt lat="46.130525" lon="12.999361"><ele>160.0</ele><time>2026-04-26T17:34:51.395Z</time></trkpt><trkpt lat="46.1307098" lon="12.9993636"><ele>160.0</ele><time>2026-04-26T17:34:52.393Z</time></trkpt><trkpt lat="46.1308825" lon="12.9993652"><ele>160.0</ele><time>2026-04-26T17:34:53.394Z</time></trkpt><trkpt lat="46.1310445" lon="12.9993676"><ele>160.0</ele><time>2026-04-26T17:34:54.394Z</time></trkpt><trkpt lat="46.1311938" lon="12.9993711"><ele>160.0</ele><time>2026-04-26T17:34:55.394Z</time></trkpt><trkpt lat="46.131331" lon="12.9993711"><ele>160.0</ele><time>2026-04-26T17:34:56.394Z</time></trkpt><trkpt lat="46.131459" lon="12.9993729"><ele>160.0</ele><time>2026-04-26T17:34:57.393Z</time></trkpt><trkpt lat="46.1315752" lon="12.9993759"><ele>160.0</ele><time>2026-04-26T17:34:58.392Z</time></trkpt><trkpt lat="46.1316765" lon="12.9993765"><ele>160.0</ele><time>2026-04-26T17:34:59.393Z</time></trkpt><trkpt lat="46.1317647" lon="12.9993793"><ele>160.0</ele><time>2026-04-26T17:35:00.393Z</time></trkpt><trkpt lat="46.131835" lon="12.999391"><ele>160.0</ele><time>2026-04-26T17:35:01.393Z</time></trkpt><trkpt lat="46.1319173" lon="12.9994789"><ele>160.0</ele><time>2026-04-26T17:35:03.392Z</time></trkpt><trkpt lat="46.1319075" lon="12.9996198"><ele>160.0</ele><time>2026-04-26T17:35:05.393Z</time></trkpt><trkpt lat="46.1318812" lon="12.9997101"><ele>160.0</ele><time>2026-04-26T17:35:06.394Z</time></trkpt><trkpt lat="46.1318531" lon="12.9998191"><ele>160.0</ele><time>2026-04-26T17:35:07.392Z</time></trkpt><trkpt lat="46.1318209" lon="12.9999444"><ele>160.0</ele><time>2026-04-26T17:35:08.394Z</time></trkpt><trkpt lat="46.1317857" lon="13.0000809"><ele>160.0</ele><time>2026-04-26T17:35:09.392Z</time></trkpt><trkpt lat="46.1317502" lon="13.0002273"><ele>160.0</ele><time>2026-04-26T17:35:10.394Z</time></trkpt><trkpt lat="46.1317162" lon="13.0003783"><ele>160.0</ele><time>2026-04-26T17:35:11.393Z</time></trkpt><trkpt lat="46.1316837" lon="13.0005326"><ele>160.0</ele><time>2026-04-26T17:35:12.393Z</time></trkpt><trkpt lat="46.1316548" lon="13.0006877"><ele>160.0</ele><time>2026-04-26T17:35:13.393Z</time></trkpt><trkpt lat="46.1316379" lon="13.0008414"><ele>160.0</ele><time>2026-04-26T17:35:14.392Z</time></trkpt><trkpt lat="46.1316358" lon="13.0010114"><ele>160.0</ele><time>2026-04-26T17:35:15.393Z</time></trkpt><trkpt lat="46.1316534" lon="13.0011916"><ele>160.0</ele><time>2026-04-26T17:35:16.393Z</time></trkpt><trkpt lat="46.1316879" lon="13.0013781"><ele>160.0</ele><time>2026-04-26T17:35:17.393Z</time></trkpt><trkpt lat="46.1317199" lon="13.0015683"><ele>160.0</ele><time>2026-04-26T17:35:18.393Z</time></trkpt><trkpt lat="46.1317502" lon="13.0017577"><ele>160.0</ele><time>2026-04-26T17:35:19.392Z</time></trkpt><trkpt lat="46.1317756" lon="13.0019565"><ele>160.0</ele><time>2026-04-26T17:35:20.392Z</time></trkpt><trkpt lat="46.1317985" lon="13.0021564"><ele>160.0</ele><time>2026-04-26T17:35:21.393Z</time></trkpt><trkpt lat="46.131824" lon="13.0023486"><ele>160.0</ele><time>2026-04-26T17:35:22.393Z</time></trkpt><trkpt lat="46.1318515" lon="13.0025251"><ele>160.0</ele><time>2026-04-26T17:35:23.394Z</time></trkpt><trkpt lat="46.1318795" lon="13.0026949"><ele>160.0</ele><time>2026-04-26T17:35:24.394Z</time></trkpt><trkpt lat="46.1319062" lon="13.0028484"><ele>160.0</ele><time>2026-04-26T17:35:25.393Z</time></trkpt><trkpt lat="46.13193" lon="13.0029879"><ele>160.0</ele><time>2026-04-26T17:35:26.393Z</time></trkpt><trkpt lat="46.1319486" lon="13.0031208"><ele>160.0</ele><time>2026-04-26T17:35:27.394Z</time></trkpt><trkpt lat="46.1319569" lon="13.0032254"><ele>160.0</ele><time>2026-04-26T17:35:28.392Z</time></trkpt><trkpt lat="46.1319446" lon="13.0033183"><ele>160.0</ele><time>2026-04-26T17:35:29.393Z</time></trkpt><trkpt lat="46.1319152" lon="13.0034055"><ele>160.0</ele><time>2026-04-26T17:35:30.394Z</time></trkpt><trkpt lat="46.1318801" lon="13.0034979"><ele>160.0</ele><time>2026-04-26T17:35:31.393Z</time></trkpt><trkpt lat="46.1318539" lon="13.0035969"><ele>160.0</ele><time>2026-04-26T17:35:32.393Z</time></trkpt><trkpt lat="46.1318352" lon="13.0037076"><ele>160.0</ele><time>2026-04-26T17:35:33.393Z</time></trkpt><trkpt lat="46.131827" lon="13.0038293"><ele>160.0</ele><time>2026-04-26T17:35:34.392Z</time></trkpt><trkpt lat="46.1318353" lon="13.0039628"><ele>159.2</ele><time>2026-04-26T17:35:35.393Z</time></trkpt><trkpt lat="46.1318507" lon="13.0041034"><ele>158.4</ele><time>2026-04-26T17:35:36.393Z</time></trkpt><trkpt lat="46.1318732" lon="13.0042559"><ele>157.6</ele><time>2026-04-26T17:35:37.393Z</time></trkpt><trkpt lat="46.1319011" lon="13.0044142"><ele>156.8</ele><time>2026-04-26T17:35:38.393Z</time></trkpt><trkpt lat="46.1319288" lon="13.0045685"><ele>156.0</ele><time>2026-04-26T17:35:39.393Z</time></trkpt><trkpt lat="46.1319541" lon="13.0047153"><ele>155.0</ele><time>2026-04-26T17:35:40.393Z</time></trkpt><trkpt lat="46.1319788" lon="13.0048498"><ele>154.0</ele><time>2026-04-26T17:35:41.393Z</time></trkpt><trkpt lat="46.1320067" lon="13.004982"><ele>153.0</ele><time>2026-04-26T17:35:42.393Z</time></trkpt><trkpt lat="46.1320409" lon="13.0051031"><ele>152.0</ele><time>2026-04-26T17:35:43.394Z</time></trkpt><trkpt lat="46.1320852" lon="13.0052114"><ele>151.0</ele><time>2026-04-26T17:35:44.394Z</time></trkpt><trkpt lat="46.1321338" lon="13.0053064"><ele>150.6</ele><time>2026-04-26T17:35:45.392Z</time></trkpt><trkpt lat="46.132193" lon="13.0053932"><ele>150.2</ele><time>2026-04-26T17:35:46.394Z</time></trkpt><trkpt lat="46.1322571" lon="13.0054775"><ele>149.8</ele><time>2026-04-26T17:35:47.393Z</time></trkpt><trkpt lat="46.1323281" lon="13.0055605"><ele>149.4</ele><time>2026-04-26T17:35:48.393Z</time></trkpt><trkpt lat="46.1324098" lon="13.0056474"><ele>149.0</ele><time>2026-04-26T17:35:49.393Z</time></trkpt><trkpt lat="46.1324986" lon="13.005735"><ele>150.0</ele><time>2026-04-26T17:35:50.392Z</time></trkpt><trkpt lat="46.1325891" lon="13.005834"><ele>151.0</ele><time>2026-04-26T17:35:51.394Z</time></trkpt><trkpt lat="46.1326822" lon="13.0059307"><ele>152.0</ele><time>2026-04-26T17:35:52.392Z</time></trkpt><trkpt lat="46.1327758" lon="13.0060406"><ele>153.0</ele><time>2026-04-26T17:35:53.393Z</time></trkpt><trkpt lat="46.1328649" lon="13.0061577"><ele>153.0</ele><time>2026-04-26T17:35:54.393Z</time></trkpt><trkpt lat="46.1329524" lon="13.0062744"><ele>153.0</ele><time>2026-04-26T17:35:55.392Z</time></trkpt><trkpt lat="46.1330353" lon="13.0063949"><ele>153.0</ele><time>2026-04-26T17:35:56.393Z</time></trkpt><trkpt lat="46.1331176" lon="13.0065196"><ele>153.0</ele><time>2026-04-26T17:35:57.393Z</time></trkpt><trkpt lat="46.1331996" lon="13.006647"><ele>153.25</ele><time>2026-04-26T17:35:58.393Z</time></trkpt><trkpt lat="46.1332852" lon="13.0067693"><ele>153.5</ele><time>2026-04-26T17:35:59.393Z</time></trkpt><trkpt lat="46.1333702" lon="13.006892"><ele>153.75</ele><time>2026-04-26T17:36:00.393Z</time></trkpt><trkpt lat="46.1334464" lon="13.0070239"><ele>154.0</ele><time>2026-04-26T17:36:01.393Z</time></trkpt><trkpt lat="46.1335269" lon="13.0071432"><ele>154.0</ele><time>2026-04-26T17:36:02.393Z</time></trkpt><trkpt lat="46.1336074" lon="13.0072647"><ele>154.0</ele><time>2026-04-26T17:36:03.393Z</time></trkpt><trkpt lat="46.133685" lon="13.007377"><ele>154.0</ele><time>2026-04-26T17:36:04.394Z</time></trkpt><trkpt lat="46.1337654" lon="13.0074928"><ele>154.0</ele><time>2026-04-26T17:36:05.394Z</time></trkpt><trkpt lat="46.1338322" lon="13.0076189"><ele>153.0</ele><time>2026-04-26T17:36:06.394Z</time></trkpt><trkpt lat="46.1338956" lon="13.0077527"><ele>152.0</ele><time>2026-04-26T17:36:07.394Z</time></trkpt><trkpt lat="46.1339568" lon="13.0078941"><ele>151.0</ele><time>2026-04-26T17:36:08.393Z</time></trkpt><trkpt lat="46.1340174" lon="13.0080447"><ele>150.0</ele><time>2026-04-26T17:36:09.393Z</time></trkpt><trkpt lat="46.1340774" lon="13.0082027"><ele>152.5</ele><time>2026-04-26T17:36:10.393Z</time></trkpt><trkpt lat="46.1341407" lon="13.0083624"><ele>155.0</ele><time>2026-04-26T17:36:11.393Z</time></trkpt><trkpt lat="46.1342013" lon="13.0085177"><ele>157.5</ele><time>2026-04-26T17:36:12.393Z</time></trkpt><trkpt lat="46.1342601" lon="13.0086714"><ele>160.0</ele><time>2026-04-26T17:36:13.393Z</time></trkpt><trkpt lat="46.1343163" lon="13.0088252"><ele>160.0</ele><time>2026-04-26T17:36:14.392Z</time></trkpt><trkpt lat="46.1343713" lon="13.0089796"><ele>160.0</ele><time>2026-04-26T17:36:15.393Z</time></trkpt><trkpt lat="46.1344191" lon="13.0091371"><ele>160.0</ele><time>2026-04-26T17:36:16.393Z</time></trkpt><trkpt lat="46.1344655" lon="13.0092898"><ele>160.0</ele><time>2026-04-26T17:36:17.393Z</time></trkpt><trkpt lat="46.134514" lon="13.0094415"><ele>157.5</ele><time>2026-04-26T17:36:18.393Z</time></trkpt><trkpt lat="46.1345602" lon="13.0095979"><ele>155.0</ele><time>2026-04-26T17:36:19.393Z</time></trkpt><trkpt lat="46.1346093" lon="13.0097509"><ele>152.5</ele><time>2026-04-26T17:36:20.394Z</time></trkpt><trkpt lat="46.1346585" lon="13.0099043"><ele>150.0</ele><time>2026-04-26T17:36:21.393Z</time></trkpt><trkpt lat="46.1347073" lon="13.0100701"><ele>148.5</ele><time>2026-04-26T17:36:22.393Z</time></trkpt><trkpt lat="46.1347502" lon="13.0102393"><ele>147.0</ele><time>2026-04-26T17:36:23.393Z</time></trkpt><trkpt lat="46.134789" lon="13.0103989"><ele>145.5</ele><time>2026-04-26T17:36:24.394Z</time></trkpt><trkpt lat="46.1348204" lon="13.0105507"><ele>144.0</ele><time>2026-04-26T17:36:25.394Z</time></trkpt><trkpt lat="46.1348489" lon="13.010716"><ele>144.0</ele><time>2026-04-26T17:36:26.393Z</time></trkpt><trkpt lat="46.1348733" lon="13.0108797"><ele>144.0</ele><time>2026-04-26T17:36:27.393Z</time></trkpt><trkpt lat="46.1348939" lon="13.0110487"><ele>144.0</ele><time>2026-04-26T17:36:28.392Z</time></trkpt><trkpt lat="46.1348888" lon="13.0112267"><ele>144.0</ele><time>2026-04-26T17:36:29.393Z</time></trkpt><trkpt lat="46.1348844" lon="13.0114061"><ele>144.0</ele><time>2026-04-26T17:36:30.392Z</time></trkpt><trkpt lat="46.1348747" lon="13.0115863"><ele>144.0</ele><time>2026-04-26T17:36:31.393Z</time></trkpt><trkpt lat="46.1348622" lon="13.0117645"><ele>144.0</ele><time>2026-04-26T17:36:32.393Z</time></trkpt><trkpt lat="46.1348495" lon="13.0119296"><ele>144.0</ele><time>2026-04-26T17:36:33.392Z</time></trkpt><trkpt lat="46.1348266" lon="13.0120877"><ele>144.0</ele><time>2026-04-26T17:36:34.394Z</time></trkpt><trkpt lat="46.1347937" lon="13.012238"><ele>144.0</ele><time>2026-04-26T17:36:35.394Z</time></trkpt><trkpt lat="46.1347469" lon="13.01237"><ele>144.0</ele><time>2026-04-26T17:36:36.393Z</time></trkpt><trkpt lat="46.1346848" lon="13.0124851"><ele>144.0</ele><time>2026-04-26T17:36:37.394Z</time></trkpt><trkpt lat="46.1346032" lon="13.0125829"><ele>144.0</ele><time>2026-04-26T17:36:38.393Z</time></trkpt><trkpt lat="46.1345045" lon="13.0126716"><ele>144.5</ele><time>2026-04-26T17:36:39.393Z</time></trkpt><trkpt lat="46.1343989" lon="13.0127477"><ele>145.0</ele><time>2026-04-26T17:36:40.392Z</time></trkpt><trkpt lat="46.1342864" lon="13.0128374"><ele>145.5</ele><time>2026-04-26T17:36:41.394Z</time></trkpt><trkpt lat="46.134181" lon="13.0129265"><ele>146.0</ele><time>2026-04-26T17:36:42.394Z</time></trkpt><trkpt lat="46.1340786" lon="13.0130105"><ele>146.0</ele><time>2026-04-26T17:36:43.392Z</time></trkpt><trkpt lat="46.1339818" lon="13.0130942"><ele>146.0</ele><time>2026-04-26T17:36:44.393Z</time></trkpt><trkpt lat="46.1338916" lon="13.0131835"><ele>146.0</ele><time>2026-04-26T17:36:45.392Z</time></trkpt><trkpt lat="46.1338125" lon="13.0132895"><ele>146.0</ele><time>2026-04-26T17:36:46.393Z</time></trkpt><trkpt lat="46.1337402" lon="13.0133968"><ele>146.0</ele><time>2026-04-26T17:36:47.393Z</time></trkpt><trkpt lat="46.1336824" lon="13.0135044"><ele>146.0</ele><time>2026-04-26T17:36:48.394Z</time></trkpt><trkpt lat="46.1336347" lon="13.0135991"><ele>146.0</ele><time>2026-04-26T17:36:49.392Z</time></trkpt><trkpt lat="46.1335932" lon="13.0136795"><ele>146.0</ele><time>2026-04-26T17:36:50.393Z</time></trkpt><trkpt lat="46.1335229" lon="13.0138181"><ele>146.0</ele><time>2026-04-26T17:36:52.392Z</time></trkpt><trkpt lat="46.1334607" lon="13.0139788"><ele>146.0</ele><time>2026-04-26T17:36:54.393Z</time></trkpt><trkpt lat="46.1334323" lon="13.014084"><ele>145.8</ele><time>2026-04-26T17:36:55.393Z</time></trkpt><trkpt lat="46.1334022" lon="13.0141977"><ele>145.6</ele><time>2026-04-26T17:36:56.393Z</time></trkpt><trkpt lat="46.1333645" lon="13.0143187"><ele>145.4</ele><time>2026-04-26T17:36:57.393Z</time></trkpt><trkpt lat="46.13332" lon="13.0144428"><ele>145.2</ele><time>2026-04-26T17:36:58.393Z</time></trkpt><trkpt lat="46.1332744" lon="13.014567"><ele>145.0</ele><time>2026-04-26T17:36:59.392Z</time></trkpt><trkpt lat="46.1332309" lon="13.0146901"><ele>145.0</ele><time>2026-04-26T17:37:00.393Z</time></trkpt><trkpt lat="46.1331864" lon="13.014813"><ele>145.0</ele><time>2026-04-26T17:37:01.394Z</time></trkpt><trkpt lat="46.1331408" lon="13.0149374"><ele>145.0</ele><time>2026-04-26T17:37:02.394Z</time></trkpt><trkpt lat="46.1330988" lon="13.0150585"><ele>145.0</ele><time>2026-04-26T17:37:03.393Z</time></trkpt><trkpt lat="46.133059" lon="13.0151725"><ele>145.0</ele><time>2026-04-26T17:37:04.392Z</time></trkpt><trkpt lat="46.1330219" lon="13.0152846"><ele>145.0</ele><time>2026-04-26T17:37:05.393Z</time></trkpt><trkpt lat="46.1329864" lon="13.0153985"><ele>145.0</ele><time>2026-04-26T17:37:06.392Z</time></trkpt><trkpt lat="46.132953" lon="13.0155164"><ele>145.0</ele><time>2026-04-26T17:37:07.392Z</time></trkpt><trkpt lat="46.1329222" lon="13.0156258"><ele>145.0</ele><time>2026-04-26T17:37:08.393Z</time></trkpt><trkpt lat="46.1328927" lon="13.0157345"><ele>145.0</ele><time>2026-04-26T17:37:09.393Z</time></trkpt><trkpt lat="46.1328731" lon="13.0158442"><ele>145.0</ele><time>2026-04-26T17:37:10.393Z</time></trkpt><trkpt lat="46.1328433" lon="13.0159581"><ele>145.0</ele><time>2026-04-26T17:37:11.392Z</time></trkpt><trkpt lat="46.1328137" lon="13.0160727"><ele>145.0</ele><time>2026-04-26T17:37:12.393Z</time></trkpt><trkpt lat="46.1327787" lon="13.0161884"><ele>145.0</ele><time>2026-04-26T17:37:13.394Z</time></trkpt><trkpt lat="46.1327457" lon="13.0163096"><ele>145.0</ele><time>2026-04-26T17:37:14.393Z</time></trkpt><trkpt lat="46.1327107" lon="13.016422"><ele>145.0</ele><time>2026-04-26T17:37:15.393Z</time></trkpt><trkpt lat="46.1326861" lon="13.0165421"><ele>145.0</ele><time>2026-04-26T17:37:16.392Z</time></trkpt><trkpt lat="46.1326616" lon="13.0166527"><ele>145.0</ele><time>2026-04-26T17:37:17.393Z</time></trkpt><trkpt lat="46.1326413" lon="13.0167639"><ele>145.0</ele><time>2026-04-26T17:37:18.393Z</time></trkpt><trkpt lat="46.1326301" lon="13.0168799"><ele>145.0</ele><time>2026-04-26T17:37:19.393Z</time></trkpt><trkpt lat="46.1326173" lon="13.0169876"><ele>145.0</ele><time>2026-04-26T17:37:20.392Z</time></trkpt><trkpt lat="46.1326097" lon="13.0170839"><ele>145.0</ele><time>2026-04-26T17:37:21.393Z</time></trkpt><trkpt lat="46.132599" lon="13.0172371"><ele>145.0</ele><time>2026-04-26T17:37:23.394Z</time></trkpt><trkpt lat="46.1325823" lon="13.0173348"><ele>145.0</ele><time>2026-04-26T17:37:25.393Z</time></trkpt><trkpt lat="46.1325271" lon="13.0174048"><ele>145.0</ele><time>2026-04-26T17:37:27.393Z</time></trkpt><trkpt lat="46.1324191" lon="13.0174567"><ele>145.0</ele><time>2026-04-26T17:37:29.393Z</time></trkpt><trkpt lat="46.1323493" lon="13.0174964"><ele>145.0</ele><time>2026-04-26T17:37:30.393Z</time></trkpt><trkpt lat="46.1322737" lon="13.0175417"><ele>145.0</ele><time>2026-04-26T17:37:31.392Z</time></trkpt><trkpt lat="46.1322085" lon="13.0176122"><ele>145.0</ele><time>2026-04-26T17:37:32.394Z</time></trkpt><trkpt lat="46.1321392" lon="13.0177019"><ele>143.8</ele><time>2026-04-26T17:37:33.393Z</time></trkpt><trkpt lat="46.132072" lon="13.0178083"><ele>142.6</ele><time>2026-04-26T17:37:34.392Z</time></trkpt><trkpt lat="46.132005" lon="13.0179296"><ele>141.4</ele><time>2026-04-26T17:37:35.394Z</time></trkpt><trkpt lat="46.1319465" lon="13.0180687"><ele>140.2</ele><time>2026-04-26T17:37:36.392Z</time></trkpt><trkpt lat="46.1318886" lon="13.0182262"><ele>139.0</ele><time>2026-04-26T17:37:37.393Z</time></trkpt><trkpt lat="46.1318347" lon="13.0183828"><ele>138.25</ele><time>2026-04-26T17:37:38.394Z</time></trkpt><trkpt lat="46.1317774" lon="13.0185458"><ele>137.5</ele><time>2026-04-26T17:37:39.393Z</time></trkpt><trkpt lat="46.1317202" lon="13.0187086"><ele>136.75</ele><time>2026-04-26T17:37:40.392Z</time></trkpt><trkpt lat="46.1316633" lon="13.0188692"><ele>136.0</ele><time>2026-04-26T17:37:41.393Z</time></trkpt><trkpt lat="46.1316047" lon="13.0190311"><ele>136.5</ele><time>2026-04-26T17:37:42.394Z</time></trkpt><trkpt lat="46.1315458" lon="13.0191949"><ele>137.0</ele><time>2026-04-26T17:37:43.393Z</time></trkpt><trkpt lat="46.1314915" lon="13.0193616"><ele>137.5</ele><time>2026-04-26T17:37:44.393Z</time></trkpt><trkpt lat="46.1314349" lon="13.0195298"><ele>138.0</ele><time>2026-04-26T17:37:45.393Z</time></trkpt><trkpt lat="46.1313809" lon="13.0196976"><ele>138.0</ele><time>2026-04-26T17:37:46.393Z</time></trkpt><trkpt lat="46.1313299" lon="13.0198634"><ele>138.0</ele><time>2026-04-26T17:37:47.394Z</time></trkpt><trkpt lat="46.1312789" lon="13.0200292"><ele>138.0</ele><time>2026-04-26T17:37:48.393Z</time></trkpt><trkpt lat="46.1312223" lon="13.0201952"><ele>138.0</ele><time>2026-04-26T17:37:49.394Z</time></trkpt><trkpt lat="46.1311539" lon="13.0203525"><ele>138.0</ele><time>2026-04-26T17:37:50.394Z</time></trkpt><trkpt lat="46.1310705" lon="13.0204994"><ele>138.0</ele><time>2026-04-26T17:37:51.392Z</time></trkpt><trkpt lat="46.1309723" lon="13.0206218"><ele>138.0</ele><time>2026-04-26T17:37:52.394Z</time></trkpt><trkpt lat="46.1308725" lon="13.0207171"><ele>138.0</ele><time>2026-04-26T17:37:53.393Z</time></trkpt><trkpt lat="46.1307679" lon="13.0208071"><ele>137.5</ele><time>2026-04-26T17:37:54.392Z</time></trkpt><trkpt lat="46.1306601" lon="13.0208973"><ele>137.0</ele><time>2026-04-26T17:37:55.394Z</time></trkpt><trkpt lat="46.1305462" lon="13.0209928"><ele>136.5</ele><time>2026-04-26T17:37:56.394Z</time></trkpt><trkpt lat="46.1304248" lon="13.0210914"><ele>136.0</ele><time>2026-04-26T17:37:57.393Z</time></trkpt><trkpt lat="46.1302979" lon="13.0211898"><ele>136.0</ele><time>2026-04-26T17:37:58.393Z</time></trkpt><trkpt lat="46.1301685" lon="13.0212927"><ele>136.0</ele><time>2026-04-26T17:37:59.392Z</time></trkpt><trkpt lat="46.1300344" lon="13.0213987"><ele>136.0</ele><time>2026-04-26T17:38:00.393Z</time></trkpt><trkpt lat="46.1299019" lon="13.0215042"><ele>136.0</ele><time>2026-04-26T17:38:01.393Z</time></trkpt><trkpt lat="46.1297643" lon="13.0216146"><ele>136.0</ele><time>2026-04-26T17:38:02.393Z</time></trkpt><trkpt lat="46.1296246" lon="13.0217276"><ele>136.0</ele><time>2026-04-26T17:38:03.393Z</time></trkpt><trkpt lat="46.1294852" lon="13.0218471"><ele>136.0</ele><time>2026-04-26T17:38:04.392Z</time></trkpt><trkpt lat="46.1293478" lon="13.0219746"><ele>136.0</ele><time>2026-04-26T17:38:05.392Z</time></trkpt><trkpt lat="46.129214" lon="13.0221103"><ele>136.0</ele><time>2026-04-26T17:38:06.392Z</time></trkpt><trkpt lat="46.1290838" lon="13.0222481"><ele>135.66666666666669</ele><time>2026-04-26T17:38:07.394Z</time></trkpt><trkpt lat="46.1289564" lon="13.0223861"><ele>135.33333333333334</ele><time>2026-04-26T17:38:08.394Z</time></trkpt><trkpt lat="46.1288297" lon="13.0225225"><ele>135.0</ele><time>2026-04-26T17:38:09.393Z</time></trkpt><trkpt lat="46.128708" lon="13.0226554"><ele>135.0</ele><time>2026-04-26T17:38:10.393Z</time></trkpt><trkpt lat="46.1285901" lon="13.0227838"><ele>135.0</ele><time>2026-04-26T17:38:11.393Z</time></trkpt><trkpt lat="46.1284729" lon="13.0229149"><ele>135.0</ele><time>2026-04-26T17:38:12.393Z</time></trkpt><trkpt lat="46.1283535" lon="13.0230564"><ele>135.0</ele><time>2026-04-26T17:38:13.393Z</time></trkpt><trkpt lat="46.1282306" lon="13.0231926"><ele>135.0</ele><time>2026-04-26T17:38:14.393Z</time></trkpt><trkpt lat="46.1280988" lon="13.0233131"><ele>135.0</ele><time>2026-04-26T17:38:15.392Z</time></trkpt><trkpt lat="46.127955" lon="13.0234134"><ele>135.66666666666666</ele><time>2026-04-26T17:38:16.394Z</time></trkpt><trkpt lat="46.1278008" lon="13.0234882"><ele>136.33333333333331</ele><time>2026-04-26T17:38:17.393Z</time></trkpt><trkpt lat="46.1276467" lon="13.0235501"><ele>137.0</ele><time>2026-04-26T17:38:18.393Z</time></trkpt><trkpt lat="46.1274961" lon="13.0236146"><ele>136.66666666666666</ele><time>2026-04-26T17:38:19.393Z</time></trkpt><trkpt lat="46.1273545" lon="13.0237054"><ele>136.33333333333334</ele><time>2026-04-26T17:38:20.393Z</time></trkpt><trkpt lat="46.1272232" lon="13.0238281"><ele>136.0</ele><time>2026-04-26T17:38:21.392Z</time></trkpt><trkpt lat="46.1270972" lon="13.0239702"><ele>136.0</ele><time>2026-04-26T17:38:22.392Z</time></trkpt><trkpt lat="46.1269698" lon="13.0241151"><ele>136.0</ele><time>2026-04-26T17:38:23.393Z</time></trkpt><trkpt lat="46.1268307" lon="13.0242463"><ele>136.0</ele><time>2026-04-26T17:38:24.392Z</time></trkpt><trkpt lat="46.1266856" lon="13.0243454"><ele>136.0</ele><time>2026-04-26T17:38:25.393Z</time></trkpt><trkpt lat="46.126531" lon="13.0244018"><ele>136.0</ele><time>2026-04-26T17:38:26.393Z</time></trkpt><trkpt lat="46.1263689" lon="13.0244334"><ele>136.0</ele><time>2026-04-26T17:38:27.392Z</time></trkpt><trkpt lat="46.1262074" lon="13.0244616"><ele>136.0</ele><time>2026-04-26T17:38:28.394Z</time></trkpt><trkpt lat="46.1260537" lon="13.0244816"><ele>136.0</ele><time>2026-04-26T17:38:29.393Z</time></trkpt><trkpt lat="46.1259079" lon="13.0245106"><ele>136.0</ele><time>2026-04-26T17:38:30.393Z</time></trkpt><trkpt lat="46.1257731" lon="13.0245635"><ele>136.0</ele><time>2026-04-26T17:38:31.393Z</time></trkpt><trkpt lat="46.1256483" lon="13.0246422"><ele>136.25</ele><time>2026-04-26T17:38:32.394Z</time></trkpt><trkpt lat="46.1255401" lon="13.02475"><ele>136.5</ele><time>2026-04-26T17:38:33.393Z</time></trkpt><trkpt lat="46.1254481" lon="13.0248882"><ele>136.75</ele><time>2026-04-26T17:38:34.393Z</time></trkpt><trkpt lat="46.1253575" lon="13.0250402"><ele>137.0</ele><time>2026-04-26T17:38:35.393Z</time></trkpt><trkpt lat="46.1252659" lon="13.0251926"><ele>137.0</ele><time>2026-04-26T17:38:36.393Z</time></trkpt><trkpt lat="46.125179" lon="13.0253444"><ele>137.0</ele><time>2026-04-26T17:38:37.393Z</time></trkpt><trkpt lat="46.1250969" lon="13.0254972"><ele>137.0</ele><time>2026-04-26T17:38:38.392Z</time></trkpt><trkpt lat="46.1250301" lon="13.0256492"><ele>137.0</ele><time>2026-04-26T17:38:39.394Z</time></trkpt><trkpt lat="46.1249953" lon="13.0257963"><ele>138.0</ele><time>2026-04-26T17:38:40.394Z</time></trkpt><trkpt lat="46.1249929" lon="13.0259544"><ele>139.0</ele><time>2026-04-26T17:38:41.393Z</time></trkpt><trkpt lat="46.1250127" lon="13.0261184"><ele>140.0</ele><time>2026-04-26T17:38:42.393Z</time></trkpt><trkpt lat="46.1250371" lon="13.0262906"><ele>141.0</ele><time>2026-04-26T17:38:43.394Z</time></trkpt><trkpt lat="46.1250655" lon="13.026468"><ele>141.0</ele><time>2026-04-26T17:38:44.394Z</time></trkpt><trkpt lat="46.1250949" lon="13.02664"><ele>141.0</ele><time>2026-04-26T17:38:45.392Z</time></trkpt><trkpt lat="46.1251239" lon="13.0268065"><ele>141.0</ele><time>2026-04-26T17:38:46.392Z</time></trkpt><trkpt lat="46.1251498" lon="13.0269736"><ele>141.0</ele><time>2026-04-26T17:38:47.393Z</time></trkpt><trkpt lat="46.1251688" lon="13.0271442"><ele>142.0</ele><time>2026-04-26T17:38:48.393Z</time></trkpt><trkpt lat="46.1251729" lon="13.0273123"><ele>143.0</ele><time>2026-04-26T17:38:49.393Z</time></trkpt><trkpt lat="46.125177" lon="13.0274759"><ele>144.0</ele><time>2026-04-26T17:38:50.393Z</time></trkpt><trkpt lat="46.1251823" lon="13.027655"><ele>145.0</ele><time>2026-04-26T17:38:51.393Z</time></trkpt><trkpt lat="46.125199" lon="13.0278362"><ele>145.75</ele><time>2026-04-26T17:38:52.393Z</time></trkpt><trkpt lat="46.1252189" lon="13.0280216"><ele>146.5</ele><time>2026-04-26T17:38:53.393Z</time></trkpt><trkpt lat="46.1252515" lon="13.0282126"><ele>147.25</ele><time>2026-04-26T17:38:54.394Z</time></trkpt><trkpt lat="46.1252908" lon="13.0284019"><ele>148.0</ele><time>2026-04-26T17:38:55.393Z</time></trkpt><trkpt lat="46.1253343" lon="13.0285916"><ele>150.25</ele><time>2026-04-26T17:38:56.394Z</time></trkpt><trkpt lat="46.1253785" lon="13.0287807"><ele>152.5</ele><time>2026-04-26T17:38:57.393Z</time></trkpt><trkpt lat="46.1254202" lon="13.0289652"><ele>154.75</ele><time>2026-04-26T17:38:58.393Z</time></trkpt><trkpt lat="46.1254594" lon="13.0291424"><ele>157.0</ele><time>2026-04-26T17:38:59.392Z</time></trkpt><trkpt lat="46.1254983" lon="13.0293031"><ele>158.0</ele><time>2026-04-26T17:39:00.393Z</time></trkpt><trkpt lat="46.1255329" lon="13.0294512"><ele>159.0</ele><time>2026-04-26T17:39:01.394Z</time></trkpt><trkpt lat="46.1255688" lon="13.0296022"><ele>160.0</ele><time>2026-04-26T17:39:02.392Z</time></trkpt><trkpt lat="46.1256077" lon="13.0297552"><ele>161.0</ele><time>2026-04-26T17:39:03.393Z</time></trkpt><trkpt lat="46.1256436" lon="13.0298999"><ele>162.0</ele><time>2026-04-26T17:39:04.393Z</time></trkpt><trkpt lat="46.1256781" lon="13.0300434"><ele>162.0</ele><time>2026-04-26T17:39:05.394Z</time></trkpt><trkpt lat="46.125713" lon="13.0301851"><ele>162.0</ele><time>2026-04-26T17:39:06.393Z</time></trkpt><trkpt lat="46.1257495" lon="13.0303295"><ele>162.0</ele><time>2026-04-26T17:39:07.393Z</time></trkpt><trkpt lat="46.1257879" lon="13.030476"><ele>162.0</ele><time>2026-04-26T17:39:08.393Z</time></trkpt><trkpt lat="46.1258278" lon="13.0306272"><ele>162.0</ele><time>2026-04-26T17:39:09.393Z</time></trkpt><trkpt lat="46.1258671" lon="13.0307817"><ele>162.25</ele><time>2026-04-26T17:39:10.393Z</time></trkpt><trkpt lat="46.1259057" lon="13.0309359"><ele>162.5</ele><time>2026-04-26T17:39:11.394Z</time></trkpt><trkpt lat="46.125945" lon="13.0310882"><ele>162.75</ele><time>2026-04-26T17:39:12.393Z</time></trkpt><trkpt lat="46.1259844" lon="13.0312407"><ele>163.0</ele><time>2026-04-26T17:39:13.394Z</time></trkpt><trkpt lat="46.1260201" lon="13.031397"><ele>163.0</ele><time>2026-04-26T17:39:14.393Z</time></trkpt><trkpt lat="46.1260572" lon="13.0315458"><ele>163.0</ele><time>2026-04-26T17:39:15.394Z</time></trkpt><trkpt lat="46.1260969" lon="13.0316876"><ele>163.0</ele><time>2026-04-26T17:39:16.392Z</time></trkpt><trkpt lat="46.1261394" lon="13.0318149"><ele>163.0</ele><time>2026-04-26T17:39:17.394Z</time></trkpt><trkpt lat="46.1261759" lon="13.0319475"><ele>163.0</ele><time>2026-04-26T17:39:18.393Z</time></trkpt><trkpt lat="46.1261981" lon="13.0320833"><ele>163.2</ele><time>2026-04-26T17:39:19.393Z</time></trkpt><trkpt lat="46.1262048" lon="13.0322169"><ele>163.4</ele><time>2026-04-26T17:39:20.393Z</time></trkpt><trkpt lat="46.1262025" lon="13.0323527"><ele>163.6</ele><time>2026-04-26T17:39:21.393Z</time></trkpt><trkpt lat="46.1261907" lon="13.0324898"><ele>163.79999999999998</ele><time>2026-04-26T17:39:22.394Z</time></trkpt><trkpt lat="46.1261621" lon="13.0326297"><ele>164.0</ele><time>2026-04-26T17:39:23.392Z</time></trkpt><trkpt lat="46.12611" lon="13.0327694"><ele>164.25</ele><time>2026-04-26T17:39:24.394Z</time></trkpt><trkpt lat="46.1260506" lon="13.032921"><ele>164.5</ele><time>2026-04-26T17:39:25.393Z</time></trkpt><trkpt lat="46.1260107" lon="13.033082"><ele>164.75</ele><time>2026-04-26T17:39:26.393Z</time></trkpt><trkpt lat="46.1259823" lon="13.0332499"><ele>165.0</ele><time>2026-04-26T17:39:27.393Z</time></trkpt><trkpt lat="46.1259574" lon="13.0334163"><ele>166.0</ele><time>2026-04-26T17:39:28.393Z</time></trkpt><trkpt lat="46.1259371" lon="13.0335821"><ele>167.0</ele><time>2026-04-26T17:39:29.394Z</time></trkpt><trkpt lat="46.1259093" lon="13.0337521"><ele>168.0</ele><time>2026-04-26T17:39:30.392Z</time></trkpt><trkpt lat="46.1258708" lon="13.0339215"><ele>169.0</ele><time>2026-04-26T17:39:31.393Z</time></trkpt><trkpt lat="46.1258338" lon="13.0340845"><ele>170.25</ele><time>2026-04-26T17:39:32.393Z</time></trkpt><trkpt lat="46.1257951" lon="13.0342451"><ele>171.5</ele><time>2026-04-26T17:39:33.392Z</time></trkpt><trkpt lat="46.1257496" lon="13.0344042"><ele>172.75</ele><time>2026-04-26T17:39:34.394Z</time></trkpt><trkpt lat="46.125698" lon="13.0345631"><ele>174.0</ele><time>2026-04-26T17:39:35.393Z</time></trkpt><trkpt lat="46.1256474" lon="13.0347224"><ele>172.25</ele><time>2026-04-26T17:39:36.392Z</time></trkpt><trkpt lat="46.1256029" lon="13.0348917"><ele>170.5</ele><time>2026-04-26T17:39:37.394Z</time></trkpt><trkpt lat="46.1255689" lon="13.0350678"><ele>168.75</ele><time>2026-04-26T17:39:38.393Z</time></trkpt><trkpt lat="46.1255427" lon="13.035251"><ele>167.0</ele><time>2026-04-26T17:39:39.393Z</time></trkpt><trkpt lat="46.1255229" lon="13.0354374"><ele>167.0</ele><time>2026-04-26T17:39:40.393Z</time></trkpt><trkpt lat="46.1255101" lon="13.0356227"><ele>167.0</ele><time>2026-04-26T17:39:41.393Z</time></trkpt><trkpt lat="46.1255091" lon="13.0358053"><ele>167.0</ele><time>2026-04-26T17:39:42.393Z</time></trkpt><trkpt lat="46.125522" lon="13.0359844"><ele>167.0</ele><time>2026-04-26T17:39:43.392Z</time></trkpt><trkpt lat="46.1255429" lon="13.0361466"><ele>167.6</ele><time>2026-04-26T17:39:44.393Z</time></trkpt><trkpt lat="46.1255646" lon="13.0363029"><ele>168.2</ele><time>2026-04-26T17:39:45.392Z</time></trkpt><trkpt lat="46.1255802" lon="13.0364525"><ele>168.8</ele><time>2026-04-26T17:39:46.394Z</time></trkpt><trkpt lat="46.1255792" lon="13.0365985"><ele>169.4</ele><time>2026-04-26T17:39:47.393Z</time></trkpt><trkpt lat="46.1255458" lon="13.036727"><ele>170.0</ele><time>2026-04-26T17:39:48.392Z</time></trkpt><trkpt lat="46.1254826" lon="13.0368243"><ele>170.5</ele><time>2026-04-26T17:39:49.393Z</time></trkpt><trkpt lat="46.1253969" lon="13.0369049"><ele>171.0</ele><time>2026-04-26T17:39:50.394Z</time></trkpt><trkpt lat="46.1252986" lon="13.0369872"><ele>171.5</ele><time>2026-04-26T17:39:51.392Z</time></trkpt><trkpt lat="46.1251886" lon="13.0370786"><ele>172.0</ele><time>2026-04-26T17:39:52.393Z</time></trkpt><trkpt lat="46.125075" lon="13.0371762"><ele>172.0</ele><time>2026-04-26T17:39:53.392Z</time></trkpt><trkpt lat="46.124962" lon="13.0372924"><ele>172.0</ele><time>2026-04-26T17:39:54.394Z</time></trkpt><trkpt lat="46.1248529" lon="13.037419"><ele>172.0</ele><time>2026-04-26T17:39:55.392Z</time></trkpt><trkpt lat="46.1247427" lon="13.037554"><ele>172.0</ele><time>2026-04-26T17:39:56.393Z</time></trkpt><trkpt lat="46.1246299" lon="13.0376911"><ele>171.5</ele><time>2026-04-26T17:39:57.392Z</time></trkpt><trkpt lat="46.1245158" lon="13.0378284"><ele>171.0</ele><time>2026-04-26T17:39:58.393Z</time></trkpt><trkpt lat="46.1244024" lon="13.037964"><ele>170.5</ele><time>2026-04-26T17:39:59.393Z</time></trkpt><trkpt lat="46.1242918" lon="13.0380967"><ele>170.0</ele><time>2026-04-26T17:40:00.393Z</time></trkpt><trkpt lat="46.1241867" lon="13.0382249"><ele>170.0</ele><time>2026-04-26T17:40:01.393Z</time></trkpt><trkpt lat="46.1240847" lon="13.0383466"><ele>170.0</ele><time>2026-04-26T17:40:02.393Z</time></trkpt><trkpt lat="46.1239882" lon="13.0384593"><ele>170.0</ele><time>2026-04-26T17:40:03.394Z</time></trkpt><trkpt lat="46.1238987" lon="13.0385653"><ele>170.0</ele><time>2026-04-26T17:40:04.392Z</time></trkpt><trkpt lat="46.1238161" lon="13.0386759"><ele>169.25</ele><time>2026-04-26T17:40:05.393Z</time></trkpt><trkpt lat="46.1237466" lon="13.0388039"><ele>168.5</ele><time>2026-04-26T17:40:06.393Z</time></trkpt><trkpt lat="46.1237059" lon="13.0389563"><ele>167.75</ele><time>2026-04-26T17:40:07.394Z</time></trkpt><trkpt lat="46.1236852" lon="13.0391243"><ele>167.0</ele><time>2026-04-26T17:40:08.393Z</time></trkpt><trkpt lat="46.1236705" lon="13.039305"><ele>166.75</ele><time>2026-04-26T17:40:09.393Z</time></trkpt><trkpt lat="46.1236625" lon="13.0394949"><ele>166.5</ele><time>2026-04-26T17:40:10.392Z</time></trkpt><trkpt lat="46.1236607" lon="13.0396883"><ele>166.25</ele><time>2026-04-26T17:40:11.392Z</time></trkpt><trkpt lat="46.1236609" lon="13.0398842"><ele>166.0</ele><time>2026-04-26T17:40:12.393Z</time></trkpt><trkpt lat="46.1236603" lon="13.0400831"><ele>167.25</ele><time>2026-04-26T17:40:13.393Z</time></trkpt><trkpt lat="46.1236611" lon="13.04028"><ele>168.5</ele><time>2026-04-26T17:40:14.393Z</time></trkpt><trkpt lat="46.1236616" lon="13.0404773"><ele>169.75</ele><time>2026-04-26T17:40:15.393Z</time></trkpt><trkpt lat="46.1236621" lon="13.0406743"><ele>171.0</ele><time>2026-04-26T17:40:16.393Z</time></trkpt><trkpt lat="46.1236626" lon="13.040864"><ele>171.75</ele><time>2026-04-26T17:40:17.392Z</time></trkpt><trkpt lat="46.1236626" lon="13.041045"><ele>172.5</ele><time>2026-04-26T17:40:18.394Z</time></trkpt><trkpt lat="46.1236655" lon="13.0412197"><ele>173.25</ele><time>2026-04-26T17:40:19.392Z</time></trkpt><trkpt lat="46.123668" lon="13.0413914"><ele>174.0</ele><time>2026-04-26T17:40:20.393Z</time></trkpt><trkpt lat="46.1236765" lon="13.0415705"><ele>174.5</ele><time>2026-04-26T17:40:21.393Z</time></trkpt><trkpt lat="46.123696" lon="13.0417548"><ele>175.0</ele><time>2026-04-26T17:40:22.392Z</time></trkpt><trkpt lat="46.1237326" lon="13.0419362"><ele>175.5</ele><time>2026-04-26T17:40:23.394Z</time></trkpt><trkpt lat="46.1237777" lon="13.0421187"><ele>176.0</ele><time>2026-04-26T17:40:24.392Z</time></trkpt><trkpt lat="46.1238239" lon="13.0422973"><ele>176.5</ele><time>2026-04-26T17:40:25.393Z</time></trkpt><trkpt lat="46.1238701" lon="13.0424742"><ele>177.0</ele><time>2026-04-26T17:40:26.394Z</time></trkpt><trkpt lat="46.1239176" lon="13.0426497"><ele>177.5</ele><time>2026-04-26T17:40:27.393Z</time></trkpt><trkpt lat="46.1239673" lon="13.0428257"><ele>178.0</ele><time>2026-04-26T17:40:28.392Z</time></trkpt><trkpt lat="46.1240162" lon="13.0430032"><ele>179.25</ele><time>2026-04-26T17:40:29.392Z</time></trkpt><trkpt lat="46.1240638" lon="13.0431815"><ele>180.5</ele><time>2026-04-26T17:40:30.393Z</time></trkpt><trkpt lat="46.1241086" lon="13.0433586"><ele>181.75</ele><time>2026-04-26T17:40:31.392Z</time></trkpt><trkpt lat="46.1241528" lon="13.0435339"><ele>183.0</ele><time>2026-04-26T17:40:32.394Z</time></trkpt><trkpt lat="46.1241957" lon="13.0437101"><ele>183.0</ele><time>2026-04-26T17:40:33.393Z</time></trkpt><trkpt lat="46.1242392" lon="13.0438894"><ele>183.0</ele><time>2026-04-26T17:40:34.392Z</time></trkpt><trkpt lat="46.1242835" lon="13.0440674"><ele>183.0</ele><time>2026-04-26T17:40:35.392Z</time></trkpt><trkpt lat="46.1243275" lon="13.0442458"><ele>183.0</ele><time>2026-04-26T17:40:36.394Z</time></trkpt><trkpt lat="46.124371" lon="13.0444246"><ele>183.25</ele><time>2026-04-26T17:40:37.394Z</time></trkpt><trkpt lat="46.124415" lon="13.0446055"><ele>183.5</ele><time>2026-04-26T17:40:38.393Z</time></trkpt><trkpt lat="46.1244591" lon="13.0447852"><ele>183.75</ele><time>2026-04-26T17:40:39.393Z</time></trkpt><trkpt lat="46.1245017" lon="13.044957"><ele>184.0</ele><time>2026-04-26T17:40:40.393Z</time></trkpt><trkpt lat="46.1245416" lon="13.0451164"><ele>184.2</ele><time>2026-04-26T17:40:41.394Z</time></trkpt><trkpt lat="46.1245791" lon="13.0452653"><ele>184.39999999999998</ele><time>2026-04-26T17:40:42.393Z</time></trkpt><trkpt lat="46.1246137" lon="13.0454027"><ele>184.6</ele><time>2026-04-26T17:40:43.392Z</time></trkpt><trkpt lat="46.1246482" lon="13.045528"><ele>184.8</ele><time>2026-04-26T17:40:44.393Z</time></trkpt><trkpt lat="46.1246795" lon="13.0456528"><ele>185.0</ele><time>2026-04-26T17:40:45.394Z</time></trkpt><trkpt lat="46.1247114" lon="13.0457751"><ele>185.16666666666666</ele><time>2026-04-26T17:40:46.393Z</time></trkpt><trkpt lat="46.1247387" lon="13.0458908"><ele>185.33333333333331</ele><time>2026-04-26T17:40:47.394Z</time></trkpt><trkpt lat="46.1247601" lon="13.0459979"><ele>185.5</ele><time>2026-04-26T17:40:48.393Z</time></trkpt><trkpt lat="46.1247773" lon="13.0460995"><ele>185.66666666666666</ele><time>2026-04-26T17:40:49.392Z</time></trkpt><trkpt lat="46.1247817" lon="13.0461925"><ele>185.83333333333334</ele><time>2026-04-26T17:40:50.393Z</time></trkpt><trkpt lat="46.1247289" lon="13.0463511"><ele>186.0</ele><time>2026-04-26T17:40:52.392Z</time></trkpt><trkpt lat="46.1246769" lon="13.0464225"><ele>186.0</ele><time>2026-04-26T17:40:53.393Z</time></trkpt><trkpt lat="46.1246051" lon="13.0464847"><ele>186.0</ele><time>2026-04-26T17:40:54.393Z</time></trkpt><trkpt lat="46.1245413" lon="13.04658"><ele>186.0</ele><time>2026-04-26T17:40:55.394Z</time></trkpt><trkpt lat="46.1244767" lon="13.0466793"><ele>186.0</ele><time>2026-04-26T17:40:56.392Z</time></trkpt><trkpt lat="46.1244121" lon="13.0467844"><ele>186.0</ele><time>2026-04-26T17:40:57.393Z</time></trkpt><trkpt lat="46.1243472" lon="13.046891"><ele>186.4</ele><time>2026-04-26T17:40:58.394Z</time></trkpt><trkpt lat="46.1242794" lon="13.0470018"><ele>186.8</ele><time>2026-04-26T17:40:59.393Z</time></trkpt><trkpt lat="46.1242106" lon="13.0471147"><ele>187.20000000000002</ele><time>2026-04-26T17:41:00.393Z</time></trkpt><trkpt lat="46.124146" lon="13.0472279"><ele>187.60000000000002</ele><time>2026-04-26T17:41:01.392Z</time></trkpt><trkpt lat="46.1240819" lon="13.0473384"><ele>188.0</ele><time>2026-04-26T17:41:02.393Z</time></trkpt><trkpt lat="46.1240146" lon="13.0474394"><ele>187.60000000000002</ele><time>2026-04-26T17:41:03.394Z</time></trkpt><trkpt lat="46.1239429" lon="13.04754"><ele>187.20000000000002</ele><time>2026-04-26T17:41:04.393Z</time></trkpt><trkpt lat="46.1238605" lon="13.0476247"><ele>186.8</ele><time>2026-04-26T17:41:05.393Z</time></trkpt><trkpt lat="46.1237728" lon="13.0477021"><ele>186.4</ele><time>2026-04-26T17:41:06.394Z</time></trkpt><trkpt lat="46.1236853" lon="13.0477711"><ele>186.0</ele><time>2026-04-26T17:41:07.392Z</time></trkpt><trkpt lat="46.1235907" lon="13.0478488"><ele>186.0</ele><time>2026-04-26T17:41:08.394Z</time></trkpt><trkpt lat="46.1234937" lon="13.0479263"><ele>186.0</ele><time>2026-04-26T17:41:09.392Z</time></trkpt><trkpt lat="46.1233969" lon="13.0480022"><ele>186.0</ele><time>2026-04-26T17:41:10.393Z</time></trkpt><trkpt lat="46.1233022" lon="13.0480755"><ele>186.0</ele><time>2026-04-26T17:41:11.393Z</time></trkpt><trkpt lat="46.1232079" lon="13.048146"><ele>186.0</ele><time>2026-04-26T17:41:12.393Z</time></trkpt><trkpt lat="46.1231148" lon="13.0482205"><ele>185.60000000000002</ele><time>2026-04-26T17:41:13.393Z</time></trkpt><trkpt lat="46.1230252" lon="13.0482941"><ele>185.2</ele><time>2026-04-26T17:41:14.393Z</time></trkpt><trkpt lat="46.1229376" lon="13.0483741"><ele>184.8</ele><time>2026-04-26T17:41:15.393Z</time></trkpt><trkpt lat="46.1228487" lon="13.0484629"><ele>184.39999999999998</ele><time>2026-04-26T17:41:16.393Z</time></trkpt><trkpt lat="46.1227602" lon="13.0485517"><ele>184.0</ele><time>2026-04-26T17:41:17.392Z</time></trkpt><trkpt lat="46.1226701" lon="13.0486354"><ele>184.0</ele><time>2026-04-26T17:41:18.394Z</time></trkpt><trkpt lat="46.1225791" lon="13.0487162"><ele>184.0</ele><time>2026-04-26T17:41:19.393Z</time></trkpt><trkpt lat="46.1224869" lon="13.0487966"><ele>184.0</ele><time>2026-04-26T17:41:20.393Z</time></trkpt><trkpt lat="46.1223928" lon="13.0488757"><ele>184.0</ele><time>2026-04-26T17:41:21.393Z</time></trkpt><trkpt lat="46.12229" lon="13.0489434"><ele>184.0</ele><time>2026-04-26T17:41:22.393Z</time></trkpt><trkpt lat="46.1221857" lon="13.0490037"><ele>183.75</ele><time>2026-04-26T17:41:23.393Z</time></trkpt><trkpt lat="46.122078" lon="13.0490666"><ele>183.5</ele><time>2026-04-26T17:41:24.392Z</time></trkpt><trkpt lat="46.121973" lon="13.0491252"><ele>183.25</ele><time>2026-04-26T17:41:25.394Z</time></trkpt><trkpt lat="46.1218683" lon="13.0491823"><ele>183.0</ele><time>2026-04-26T17:41:26.393Z</time></trkpt><trkpt lat="46.1217598" lon="13.0492424"><ele>183.0</ele><time>2026-04-26T17:41:27.393Z</time></trkpt><trkpt lat="46.1216551" lon="13.0493067"><ele>183.0</ele><time>2026-04-26T17:41:28.392Z</time></trkpt><trkpt lat="46.1215472" lon="13.049372"><ele>183.0</ele><time>2026-04-26T17:41:29.393Z</time></trkpt><trkpt lat="46.1214324" lon="13.0494398"><ele>183.0</ele><time>2026-04-26T17:41:30.393Z</time></trkpt><trkpt lat="46.1213167" lon="13.0494922"><ele>181.5</ele><time>2026-04-26T17:41:31.393Z</time></trkpt><trkpt lat="46.1212025" lon="13.0495388"><ele>180.0</ele><time>2026-04-26T17:41:32.393Z</time></trkpt><trkpt lat="46.1210897" lon="13.0495844"><ele>178.5</ele><time>2026-04-26T17:41:33.394Z</time></trkpt><trkpt lat="46.1209792" lon="13.0496304"><ele>177.0</ele><time>2026-04-26T17:41:34.392Z</time></trkpt><trkpt lat="46.1208732" lon="13.0496911"><ele>177.0</ele><time>2026-04-26T17:41:35.393Z</time></trkpt><trkpt lat="46.1207733" lon="13.0497643"><ele>177.0</ele><time>2026-04-26T17:41:36.394Z</time></trkpt><trkpt lat="46.1206885" lon="13.0498367"><ele>177.0</ele><time>2026-04-26T17:41:37.393Z</time></trkpt><trkpt lat="46.1206213" lon="13.0499237"><ele>177.0</ele><time>2026-04-26T17:41:38.392Z</time></trkpt><trkpt lat="46.120576" lon="13.0500263"><ele>177.0</ele><time>2026-04-26T17:41:39.392Z</time></trkpt><trkpt lat="46.1205529" lon="13.0501485"><ele>176.39999999999998</ele><time>2026-04-26T17:41:40.392Z</time></trkpt><trkpt lat="46.1205471" lon="13.0502829"><ele>175.79999999999998</ele><time>2026-04-26T17:41:41.393Z</time></trkpt><trkpt lat="46.1205462" lon="13.0504262"><ele>175.2</ele><time>2026-04-26T17:41:42.393Z</time></trkpt><trkpt lat="46.1205473" lon="13.0505805"><ele>174.6</ele><time>2026-04-26T17:41:43.393Z</time></trkpt><trkpt lat="46.1205484" lon="13.0507484"><ele>174.0</ele><time>2026-04-26T17:41:44.393Z</time></trkpt><trkpt lat="46.1205499" lon="13.0509128"><ele>173.75</ele><time>2026-04-26T17:41:45.392Z</time></trkpt><trkpt lat="46.1205553" lon="13.0510814"><ele>173.5</ele><time>2026-04-26T17:41:46.393Z</time></trkpt><trkpt lat="46.120555" lon="13.0512482"><ele>173.25</ele><time>2026-04-26T17:41:47.393Z</time></trkpt><trkpt lat="46.1205553" lon="13.0514256"><ele>173.0</ele><time>2026-04-26T17:41:48.393Z</time></trkpt><trkpt lat="46.1205609" lon="13.0515964"><ele>173.5</ele><time>2026-04-26T17:41:49.393Z</time></trkpt><trkpt lat="46.1205681" lon="13.051761"><ele>174.0</ele><time>2026-04-26T17:41:50.394Z</time></trkpt><trkpt lat="46.1205737" lon="13.0519281"><ele>174.5</ele><time>2026-04-26T17:41:51.393Z</time></trkpt><trkpt lat="46.1205816" lon="13.0520949"><ele>175.0</ele><time>2026-04-26T17:41:52.394Z</time></trkpt><trkpt lat="46.1205869" lon="13.0522635"><ele>175.0</ele><time>2026-04-26T17:41:53.393Z</time></trkpt><trkpt lat="46.1205924" lon="13.0524232"><ele>175.0</ele><time>2026-04-26T17:41:54.393Z</time></trkpt><trkpt lat="46.1205948" lon="13.0525842"><ele>175.0</ele><time>2026-04-26T17:41:55.393Z</time></trkpt><trkpt lat="46.1206007" lon="13.0527593"><ele>175.0</ele><time>2026-04-26T17:41:56.393Z</time></trkpt><trkpt lat="46.1206041" lon="13.0529339"><ele>175.25</ele><time>2026-04-26T17:41:57.393Z</time></trkpt><trkpt lat="46.1206056" lon="13.053111"><ele>175.5</ele><time>2026-04-26T17:41:58.393Z</time></trkpt><trkpt lat="46.1206015" lon="13.0532762"><ele>175.75</ele><time>2026-04-26T17:41:59.393Z</time></trkpt><trkpt lat="46.1205932" lon="13.0534334"><ele>176.0</ele><time>2026-04-26T17:42:00.393Z</time></trkpt><trkpt lat="46.1205814" lon="13.0535935"><ele>176.0</ele><time>2026-04-26T17:42:01.392Z</time></trkpt><trkpt lat="46.1205745" lon="13.0537502"><ele>176.0</ele><time>2026-04-26T17:42:02.394Z</time></trkpt><trkpt lat="46.1205744" lon="13.053895"><ele>176.0</ele><time>2026-04-26T17:42:03.393Z</time></trkpt><trkpt lat="46.1205749" lon="13.054028"><ele>176.0</ele><time>2026-04-26T17:42:04.392Z</time></trkpt><trkpt lat="46.120577" lon="13.0541413"><ele>176.0</ele><time>2026-04-26T17:42:05.393Z</time></trkpt><trkpt lat="46.120579" lon="13.0542452"><ele>176.0</ele><time>2026-04-26T17:42:06.392Z</time></trkpt><trkpt lat="46.1205603" lon="13.0544147"><ele>176.0</ele><time>2026-04-26T17:42:08.393Z</time></trkpt><trkpt lat="46.1204559" lon="13.0545209"><ele>176.0</ele><time>2026-04-26T17:42:10.392Z</time></trkpt><trkpt lat="46.1203902" lon="13.054556"><ele>176.0</ele><time>2026-04-26T17:42:11.394Z</time></trkpt><trkpt lat="46.1203174" lon="13.0545953"><ele>176.0</ele><time>2026-04-26T17:42:12.393Z</time></trkpt><trkpt lat="46.1202391" lon="13.0546371"><ele>176.0</ele><time>2026-04-26T17:42:13.393Z</time></trkpt><trkpt lat="46.1201548" lon="13.0546837"><ele>176.0</ele><time>2026-04-26T17:42:14.392Z</time></trkpt><trkpt lat="46.1200684" lon="13.0547327"><ele>176.0</ele><time>2026-04-26T17:42:15.393Z</time></trkpt><trkpt lat="46.1199833" lon="13.0547913"><ele>176.0</ele><time>2026-04-26T17:42:16.392Z</time></trkpt><trkpt lat="46.1198981" lon="13.05485"><ele>176.0</ele><time>2026-04-26T17:42:17.393Z</time></trkpt><trkpt lat="46.1198208" lon="13.0549219"><ele>175.33333333333331</ele><time>2026-04-26T17:42:18.393Z</time></trkpt><trkpt lat="46.1197486" lon="13.0549963"><ele>174.66666666666666</ele><time>2026-04-26T17:42:19.392Z</time></trkpt><trkpt lat="46.1196815" lon="13.0550784"><ele>174.0</ele><time>2026-04-26T17:42:20.393Z</time></trkpt><trkpt lat="46.1196188" lon="13.0551598"><ele>173.33333333333334</ele><time>2026-04-26T17:42:21.392Z</time></trkpt><trkpt lat="46.1195544" lon="13.0552319"><ele>172.66666666666669</ele><time>2026-04-26T17:42:22.392Z</time></trkpt><trkpt lat="46.1194875" lon="13.0552941"><ele>172.0</ele><time>2026-04-26T17:42:23.394Z</time></trkpt><trkpt lat="46.119414" lon="13.0553317"><ele>172.0</ele><time>2026-04-26T17:42:24.393Z</time></trkpt><trkpt lat="46.1193379" lon="13.0553696"><ele>172.0</ele><time>2026-04-26T17:42:25.393Z</time></trkpt><trkpt lat="46.1192598" lon="13.055403"><ele>172.0</ele><time>2026-04-26T17:42:26.393Z</time></trkpt><trkpt lat="46.1191835" lon="13.0554352"><ele>172.0</ele><time>2026-04-26T17:42:27.392Z</time></trkpt><trkpt lat="46.1191053" lon="13.055469"><ele>172.0</ele><time>2026-04-26T17:42:28.392Z</time></trkpt><trkpt lat="46.119027" lon="13.0555081"><ele>172.0</ele><time>2026-04-26T17:42:29.392Z</time></trkpt><trkpt lat="46.1189417" lon="13.0555364"><ele>171.5</ele><time>2026-04-26T17:42:30.393Z</time></trkpt><trkpt lat="46.1188557" lon="13.055562"><ele>171.0</ele><time>2026-04-26T17:42:31.393Z</time></trkpt><trkpt lat="46.1187702" lon="13.0555926"><ele>170.5</ele><time>2026-04-26T17:42:32.393Z</time></trkpt><trkpt lat="46.1186826" lon="13.0556199"><ele>170.0</ele><time>2026-04-26T17:42:33.393Z</time></trkpt><trkpt lat="46.1186001" lon="13.0556273"><ele>169.5</ele><time>2026-04-26T17:42:34.393Z</time></trkpt><trkpt lat="46.1185208" lon="13.0556101"><ele>169.0</ele><time>2026-04-26T17:42:35.394Z</time></trkpt><trkpt lat="46.1184507" lon="13.0555921"><ele>169.0</ele><time>2026-04-26T17:42:36.393Z</time></trkpt><trkpt lat="46.1183404" lon="13.0555538"><ele>169.0</ele><time>2026-04-26T17:42:38.394Z</time></trkpt><trkpt lat="46.1182748" lon="13.0555626"><ele>169.0</ele><time>2026-04-26T17:42:40.394Z</time></trkpt><trkpt lat="46.1182657" lon="13.05569"><ele>169.0</ele><time>2026-04-26T17:42:43.393Z</time></trkpt><trkpt lat="46.1182841" lon="13.0558339"><ele>169.0</ele><time>2026-04-26T17:42:45.392Z</time></trkpt><trkpt lat="46.1183287" lon="13.0559733"><ele>169.2</ele><time>2026-04-26T17:42:47.393Z</time></trkpt><trkpt lat="46.1184047" lon="13.0561152"><ele>169.39999999999998</ele><time>2026-04-26T17:42:49.393Z</time></trkpt><trkpt lat="46.1184714" lon="13.0562593"><ele>169.6</ele><time>2026-04-26T17:42:51.393Z</time></trkpt><trkpt lat="46.118506" lon="13.0563354"><ele>169.8</ele><time>2026-04-26T17:42:52.393Z</time></trkpt><trkpt lat="46.1185492" lon="13.0564164"><ele>170.0</ele><time>2026-04-26T17:42:53.394Z</time></trkpt><trkpt lat="46.1185892" lon="13.0565016"><ele>170.0</ele><time>2026-04-26T17:42:54.392Z</time></trkpt><trkpt lat="46.1186324" lon="13.0565869"><ele>170.0</ele><time>2026-04-26T17:42:55.394Z</time></trkpt><trkpt lat="46.1186803" lon="13.0566702"><ele>170.0</ele><time>2026-04-26T17:42:56.393Z</time></trkpt><trkpt lat="46.118728" lon="13.0567522"><ele>170.0</ele><time>2026-04-26T17:42:57.393Z</time></trkpt><trkpt lat="46.1187745" lon="13.0568282"><ele>170.0</ele><time>2026-04-26T17:42:58.392Z</time></trkpt><trkpt lat="46.1188332" lon="13.0569584"><ele>170.0</ele><time>2026-04-26T17:43:00.393Z</time></trkpt><trkpt lat="46.1188511" lon="13.0570526"><ele>170.5</ele><time>2026-04-26T17:43:02.393Z</time></trkpt><trkpt lat="46.118825" lon="13.0571972"><ele>171.0</ele><time>2026-04-26T17:43:05.393Z</time></trkpt><trkpt lat="46.1187786" lon="13.0572816"><ele>171.5</ele><time>2026-04-26T17:43:06.394Z</time></trkpt><trkpt lat="46.1187337" lon="13.0573805"><ele>172.0</ele><time>2026-04-26T17:43:07.393Z</time></trkpt><trkpt lat="46.1186801" lon="13.0574873"><ele>172.5</ele><time>2026-04-26T17:43:08.393Z</time></trkpt><trkpt lat="46.1186256" lon="13.0575983"><ele>173.0</ele><time>2026-04-26T17:43:09.393Z</time></trkpt><trkpt lat="46.1185713" lon="13.0577115"><ele>173.60000000000002</ele><time>2026-04-26T17:43:10.394Z</time></trkpt><trkpt lat="46.1185154" lon="13.0578375"><ele>174.20000000000002</ele><time>2026-04-26T17:43:11.393Z</time></trkpt><trkpt lat="46.1184556" lon="13.057962"><ele>174.8</ele><time>2026-04-26T17:43:12.393Z</time></trkpt><trkpt lat="46.1183981" lon="13.0580955"><ele>175.4</ele><time>2026-04-26T17:43:13.394Z</time></trkpt><trkpt lat="46.1183356" lon="13.0582279"><ele>176.0</ele><time>2026-04-26T17:43:14.393Z</time></trkpt><trkpt lat="46.1182755" lon="13.0583613"><ele>176.0</ele><time>2026-04-26T17:43:15.393Z</time></trkpt><trkpt lat="46.1182194" lon="13.0585011"><ele>176.0</ele><time>2026-04-26T17:43:16.393Z</time></trkpt><trkpt lat="46.1181695" lon="13.0586494"><ele>176.0</ele><time>2026-04-26T17:43:17.393Z</time></trkpt><trkpt lat="46.1181351" lon="13.058804"><ele>176.0</ele><time>2026-04-26T17:43:18.393Z</time></trkpt><trkpt lat="46.1181116" lon="13.0589634"><ele>176.5</ele><time>2026-04-26T17:43:19.393Z</time></trkpt><trkpt lat="46.1181047" lon="13.059126"><ele>177.0</ele><time>2026-04-26T17:43:20.394Z</time></trkpt><trkpt lat="46.1181038" lon="13.0592893"><ele>177.5</ele><time>2026-04-26T17:43:21.393Z</time></trkpt><trkpt lat="46.1181097" lon="13.0594541"><ele>178.0</ele><time>2026-04-26T17:43:22.392Z</time></trkpt><trkpt lat="46.1181162" lon="13.0596168"><ele>178.0</ele><time>2026-04-26T17:43:23.393Z</time></trkpt><trkpt lat="46.1181204" lon="13.0597905"><ele>178.0</ele><time>2026-04-26T17:43:24.394Z</time></trkpt><trkpt lat="46.1181254" lon="13.0599595"><ele>178.0</ele><time>2026-04-26T17:43:25.393Z</time></trkpt><trkpt lat="46.1181323" lon="13.0601205"><ele>178.0</ele><time>2026-04-26T17:43:26.393Z</time></trkpt><trkpt lat="46.1181392" lon="13.0602726"><ele>178.0</ele><time>2026-04-26T17:43:27.393Z</time></trkpt><trkpt lat="46.1181438" lon="13.0604227"><ele>178.0</ele><time>2026-04-26T17:43:28.393Z</time></trkpt><trkpt lat="46.1181477" lon="13.0605846"><ele>178.0</ele><time>2026-04-26T17:43:29.394Z</time></trkpt><trkpt lat="46.1181503" lon="13.0607442"><ele>178.0</ele><time>2026-04-26T17:43:30.393Z</time></trkpt><trkpt lat="46.1181518" lon="13.0609133"><ele>178.0</ele><time>2026-04-26T17:43:31.393Z</time></trkpt><trkpt lat="46.1181465" lon="13.0610955"><ele>178.75</ele><time>2026-04-26T17:43:32.393Z</time></trkpt><trkpt lat="46.1181329" lon="13.0612892"><ele>179.5</ele><time>2026-04-26T17:43:33.393Z</time></trkpt><trkpt lat="46.1181172" lon="13.0614877"><ele>180.25</ele><time>2026-04-26T17:43:34.393Z</time></trkpt><trkpt lat="46.1181" lon="13.0616924"><ele>181.0</ele><time>2026-04-26T17:43:35.393Z</time></trkpt><trkpt lat="46.1180829" lon="13.0618994"><ele>181.0</ele><time>2026-04-26T17:43:36.392Z</time></trkpt><trkpt lat="46.1180656" lon="13.0621081"><ele>181.0</ele><time>2026-04-26T17:43:37.392Z</time></trkpt><trkpt lat="46.1180496" lon="13.0623162"><ele>181.0</ele><time>2026-04-26T17:43:38.392Z</time></trkpt><trkpt lat="46.1180318" lon="13.0625176"><ele>181.0</ele><time>2026-04-26T17:43:39.393Z</time></trkpt><trkpt lat="46.1180138" lon="13.0627151"><ele>180.75</ele><time>2026-04-26T17:43:40.393Z</time></trkpt><trkpt lat="46.1179952" lon="13.062912"><ele>180.5</ele><time>2026-04-26T17:43:41.393Z</time></trkpt><trkpt lat="46.117978" lon="13.0631"><ele>180.25</ele><time>2026-04-26T17:43:42.393Z</time></trkpt><trkpt lat="46.1179612" lon="13.0632764"><ele>180.0</ele><time>2026-04-26T17:43:43.392Z</time></trkpt><trkpt lat="46.1179458" lon="13.063443"><ele>180.0</ele><time>2026-04-26T17:43:44.393Z</time></trkpt><trkpt lat="46.1179299" lon="13.0636006"><ele>180.0</ele><time>2026-04-26T17:43:45.393Z</time></trkpt><trkpt lat="46.1179174" lon="13.0637542"><ele>180.0</ele><time>2026-04-26T17:43:46.393Z</time></trkpt><trkpt lat="46.1179072" lon="13.0639073"><ele>180.0</ele><time>2026-04-26T17:43:47.393Z</time></trkpt><trkpt lat="46.117894" lon="13.0640594"><ele>180.0</ele><time>2026-04-26T17:43:48.392Z</time></trkpt><trkpt lat="46.1178797" lon="13.0642196"><ele>180.5</ele><time>2026-04-26T17:43:49.392Z</time></trkpt><trkpt lat="46.1178662" lon="13.0643874"><ele>181.0</ele><time>2026-04-26T17:43:50.394Z</time></trkpt><trkpt lat="46.117851" lon="13.0645625"><ele>181.5</ele><time>2026-04-26T17:43:51.392Z</time></trkpt><trkpt lat="46.1178363" lon="13.0647438"><ele>182.0</ele><time>2026-04-26T17:43:52.393Z</time></trkpt><trkpt lat="46.1178219" lon="13.0649267"><ele>182.25</ele><time>2026-04-26T17:43:53.392Z</time></trkpt><trkpt lat="46.1178074" lon="13.0651143"><ele>182.5</ele><time>2026-04-26T17:43:54.393Z</time></trkpt><trkpt lat="46.1177914" lon="13.0653058"><ele>182.75</ele><time>2026-04-26T17:43:55.394Z</time></trkpt><trkpt lat="46.1177741" lon="13.0654989"><ele>183.0</ele><time>2026-04-26T17:43:56.393Z</time></trkpt><trkpt lat="46.1177556" lon="13.0656952"><ele>182.75</ele><time>2026-04-26T17:43:57.393Z</time></trkpt><trkpt lat="46.1177368" lon="13.0658966"><ele>182.5</ele><time>2026-04-26T17:43:58.393Z</time></trkpt><trkpt lat="46.11772" lon="13.0660998"><ele>182.25</ele><time>2026-04-26T17:43:59.393Z</time></trkpt><trkpt lat="46.1177021" lon="13.0663041"><ele>182.0</ele><time>2026-04-26T17:44:00.393Z</time></trkpt><trkpt lat="46.1176842" lon="13.0665085"><ele>181.75</ele><time>2026-04-26T17:44:01.393Z</time></trkpt><trkpt lat="46.1176661" lon="13.0667084"><ele>181.5</ele><time>2026-04-26T17:44:02.393Z</time></trkpt><trkpt lat="46.1176483" lon="13.0669077"><ele>181.25</ele><time>2026-04-26T17:44:03.392Z</time></trkpt><trkpt lat="46.1176307" lon="13.0671101"><ele>181.0</ele><time>2026-04-26T17:44:04.393Z</time></trkpt><trkpt lat="46.1176139" lon="13.0673117"><ele>180.5</ele><time>2026-04-26T17:44:05.394Z</time></trkpt><trkpt lat="46.1175979" lon="13.0675139"><ele>180.0</ele><time>2026-04-26T17:44:06.393Z</time></trkpt><trkpt lat="46.1175821" lon="13.0677202"><ele>179.5</ele><time>2026-04-26T17:44:07.393Z</time></trkpt><trkpt lat="46.1175638" lon="13.0679279"><ele>179.0</ele><time>2026-04-26T17:44:08.392Z</time></trkpt><trkpt lat="46.117546" lon="13.0681325"><ele>179.0</ele><time>2026-04-26T17:44:09.393Z</time></trkpt><trkpt lat="46.117528" lon="13.0683406"><ele>179.0</ele><time>2026-04-26T17:44:10.392Z</time></trkpt><trkpt lat="46.1175089" lon="13.0685498"><ele>179.0</ele><time>2026-04-26T17:44:11.393Z</time></trkpt><trkpt lat="46.1174916" lon="13.0687564"><ele>179.0</ele><time>2026-04-26T17:44:12.393Z</time></trkpt><trkpt lat="46.1174747" lon="13.0689628"><ele>179.0</ele><time>2026-04-26T17:44:13.392Z</time></trkpt><trkpt lat="46.117457" lon="13.0691658"><ele>179.0</ele><time>2026-04-26T17:44:14.393Z</time></trkpt><trkpt lat="46.1174388" lon="13.0693641"><ele>179.0</ele><time>2026-04-26T17:44:15.393Z</time></trkpt><trkpt lat="46.1174217" lon="13.0695567"><ele>179.0</ele><time>2026-04-26T17:44:16.394Z</time></trkpt><trkpt lat="46.1174045" lon="13.0697425"><ele>178.5</ele><time>2026-04-26T17:44:17.393Z</time></trkpt><trkpt lat="46.1173898" lon="13.069919"><ele>178.0</ele><time>2026-04-26T17:44:18.393Z</time></trkpt><trkpt lat="46.1173738" lon="13.0700863"><ele>177.5</ele><time>2026-04-26T17:44:19.393Z</time></trkpt><trkpt lat="46.1173505" lon="13.070252"><ele>177.0</ele><time>2026-04-26T17:44:20.392Z</time></trkpt><trkpt lat="46.1173186" lon="13.0704224"><ele>177.0</ele><time>2026-04-26T17:44:21.392Z</time></trkpt><trkpt lat="46.1172808" lon="13.0706006"><ele>177.0</ele><time>2026-04-26T17:44:22.393Z</time></trkpt><trkpt lat="46.1172378" lon="13.0707786"><ele>177.0</ele><time>2026-04-26T17:44:23.393Z</time></trkpt><trkpt lat="46.1171916" lon="13.070958"><ele>177.0</ele><time>2026-04-26T17:44:24.394Z</time></trkpt><trkpt lat="46.1171488" lon="13.0711431"><ele>177.0</ele><time>2026-04-26T17:44:25.393Z</time></trkpt><trkpt lat="46.1171085" lon="13.0713324"><ele>177.0</ele><time>2026-04-26T17:44:26.394Z</time></trkpt><trkpt lat="46.1170676" lon="13.071517"><ele>177.0</ele><time>2026-04-26T17:44:27.392Z</time></trkpt><trkpt lat="46.117026" lon="13.0717048"><ele>177.0</ele><time>2026-04-26T17:44:28.392Z</time></trkpt><trkpt lat="46.1169845" lon="13.0718933"><ele>177.0</ele><time>2026-04-26T17:44:29.392Z</time></trkpt><trkpt lat="46.1169406" lon="13.0720799"><ele>177.0</ele><time>2026-04-26T17:44:30.393Z</time></trkpt><trkpt lat="46.1168967" lon="13.0722631"><ele>177.0</ele><time>2026-04-26T17:44:31.393Z</time></trkpt><trkpt lat="46.1168545" lon="13.0724459"><ele>177.0</ele><time>2026-04-26T17:44:32.392Z</time></trkpt><trkpt lat="46.1168147" lon="13.0726236"><ele>177.0</ele><time>2026-04-26T17:44:33.393Z</time></trkpt><trkpt lat="46.1167774" lon="13.0728015"><ele>177.0</ele><time>2026-04-26T17:44:34.393Z</time></trkpt><trkpt lat="46.1167386" lon="13.0729782"><ele>177.0</ele><time>2026-04-26T17:44:35.393Z</time></trkpt><trkpt lat="46.116699" lon="13.0731581"><ele>177.0</ele><time>2026-04-26T17:44:36.393Z</time></trkpt><trkpt lat="46.1166569" lon="13.0733449"><ele>177.0</ele><time>2026-04-26T17:44:37.393Z</time></trkpt><trkpt lat="46.1166136" lon="13.0735356"><ele>177.0</ele><time>2026-04-26T17:44:38.393Z</time></trkpt><trkpt lat="46.1165707" lon="13.0737341"><ele>177.0</ele><time>2026-04-26T17:44:39.392Z</time></trkpt><trkpt lat="46.1165276" lon="13.0739389"><ele>177.0</ele><time>2026-04-26T17:44:40.393Z</time></trkpt><trkpt lat="46.1164843" lon="13.074142"><ele>177.25</ele><time>2026-04-26T17:44:41.393Z</time></trkpt><trkpt lat="46.116443" lon="13.0743424"><ele>177.5</ele><time>2026-04-26T17:44:42.393Z</time></trkpt><trkpt lat="46.1164027" lon="13.0745411"><ele>177.75</ele><time>2026-04-26T17:44:43.394Z</time></trkpt><trkpt lat="46.116364" lon="13.0747385"><ele>178.0</ele><time>2026-04-26T17:44:44.393Z</time></trkpt><trkpt lat="46.1163263" lon="13.0749342"><ele>178.0</ele><time>2026-04-26T17:44:45.393Z</time></trkpt><trkpt lat="46.1162892" lon="13.0751319"><ele>178.0</ele><time>2026-04-26T17:44:46.393Z</time></trkpt><trkpt lat="46.1162519" lon="13.07533"><ele>178.0</ele><time>2026-04-26T17:44:47.394Z</time></trkpt><trkpt lat="46.1162165" lon="13.0755293"><ele>178.0</ele><time>2026-04-26T17:44:48.392Z</time></trkpt><trkpt lat="46.1161841" lon="13.0757254"><ele>177.5</ele><time>2026-04-26T17:44:49.393Z</time></trkpt><trkpt lat="46.1161571" lon="13.075917"><ele>177.0</ele><time>2026-04-26T17:44:50.393Z</time></trkpt><trkpt lat="46.1161372" lon="13.076104"><ele>176.5</ele><time>2026-04-26T17:44:51.392Z</time></trkpt><trkpt lat="46.1161192" lon="13.0762861"><ele>176.0</ele><time>2026-04-26T17:44:52.393Z</time></trkpt><trkpt lat="46.1161023" lon="13.0764658"><ele>176.0</ele><time>2026-04-26T17:44:53.394Z</time></trkpt><trkpt lat="46.1160846" lon="13.076647"><ele>176.0</ele><time>2026-04-26T17:44:54.392Z</time></trkpt><trkpt lat="46.1160681" lon="13.0768249"><ele>176.0</ele><time>2026-04-26T17:44:55.394Z</time></trkpt><trkpt lat="46.1160527" lon="13.0769984"><ele>176.0</ele><time>2026-04-26T17:44:56.393Z</time></trkpt><trkpt lat="46.1160379" lon="13.0771655"><ele>176.0</ele><time>2026-04-26T17:44:57.393Z</time></trkpt><trkpt lat="46.1160251" lon="13.0773277"><ele>176.0</ele><time>2026-04-26T17:44:58.392Z</time></trkpt><trkpt lat="46.1160113" lon="13.0774833"><ele>176.0</ele><time>2026-04-26T17:44:59.393Z</time></trkpt><trkpt lat="46.1159971" lon="13.0776291"><ele>176.0</ele><time>2026-04-26T17:45:00.393Z</time></trkpt><trkpt lat="46.1159825" lon="13.0777603"><ele>176.0</ele><time>2026-04-26T17:45:01.393Z</time></trkpt><trkpt lat="46.115964" lon="13.0778691"><ele>176.0</ele><time>2026-04-26T17:45:02.393Z</time></trkpt><trkpt lat="46.1159358" lon="13.0779638"><ele>176.0</ele><time>2026-04-26T17:45:03.393Z</time></trkpt><trkpt lat="46.115897" lon="13.0780467"><ele>176.0</ele><time>2026-04-26T17:45:04.393Z</time></trkpt><trkpt lat="46.1158524" lon="13.0781261"><ele>176.0</ele><time>2026-04-26T17:45:05.393Z</time></trkpt><trkpt lat="46.1158217" lon="13.0782214"><ele>176.0</ele><time>2026-04-26T17:45:06.392Z</time></trkpt><trkpt lat="46.1158132" lon="13.0783285"><ele>176.0</ele><time>2026-04-26T17:45:07.394Z</time></trkpt><trkpt lat="46.1158307" lon="13.0784418"><ele>176.0</ele><time>2026-04-26T17:45:08.393Z</time></trkpt><trkpt lat="46.1158557" lon="13.0785672"><ele>176.0</ele><time>2026-04-26T17:45:09.393Z</time></trkpt><trkpt lat="46.1158653" lon="13.0787111"><ele>176.0</ele><time>2026-04-26T17:45:10.394Z</time></trkpt><trkpt lat="46.115865" lon="13.0788567"><ele>176.0</ele><time>2026-04-26T17:45:11.393Z</time></trkpt><trkpt lat="46.1158586" lon="13.0789955"><ele>176.0</ele><time>2026-04-26T17:45:12.393Z</time></trkpt><trkpt lat="46.1158454" lon="13.0791332"><ele>176.0</ele><time>2026-04-26T17:45:13.394Z</time></trkpt><trkpt lat="46.1158291" lon="13.0792663"><ele>175.83333333333331</ele><time>2026-04-26T17:45:14.392Z</time></trkpt><trkpt lat="46.1158172" lon="13.0793962"><ele>175.66666666666666</ele><time>2026-04-26T17:45:15.392Z</time></trkpt><trkpt lat="46.1158073" lon="13.0795196"><ele>175.5</ele><time>2026-04-26T17:45:16.392Z</time></trkpt><trkpt lat="46.1157964" lon="13.0796416"><ele>175.33333333333334</ele><time>2026-04-26T17:45:17.393Z</time></trkpt><trkpt lat="46.1157848" lon="13.0797594"><ele>175.16666666666669</ele><time>2026-04-26T17:45:18.392Z</time></trkpt><trkpt lat="46.1157726" lon="13.0798793"><ele>175.0</ele><time>2026-04-26T17:45:19.394Z</time></trkpt><trkpt lat="46.1157598" lon="13.080003"><ele>175.0</ele><time>2026-04-26T17:45:20.393Z</time></trkpt><trkpt lat="46.1157483" lon="13.0801315"><ele>175.0</ele><time>2026-04-26T17:45:21.393Z</time></trkpt><trkpt lat="46.1157373" lon="13.0802618"><ele>175.0</ele><time>2026-04-26T17:45:22.392Z</time></trkpt><trkpt lat="46.115727" lon="13.0803911"><ele>175.0</ele><time>2026-04-26T17:45:23.394Z</time></trkpt><trkpt lat="46.1157175" lon="13.0805176"><ele>175.0</ele><time>2026-04-26T17:45:24.393Z</time></trkpt><trkpt lat="46.1157073" lon="13.0806395"><ele>175.0</ele><time>2026-04-26T17:45:25.392Z</time></trkpt><trkpt lat="46.1156968" lon="13.0807548"><ele>175.66666666666669</ele><time>2026-04-26T17:45:26.394Z</time></trkpt><trkpt lat="46.1156885" lon="13.0808639"><ele>176.33333333333334</ele><time>2026-04-26T17:45:27.393Z</time></trkpt><trkpt lat="46.1156805" lon="13.0809548"><ele>177.0</ele><time>2026-04-26T17:45:28.392Z</time></trkpt><trkpt lat="46.1156619" lon="13.0810743"><ele>177.66666666666666</ele><time>2026-04-26T17:45:30.393Z</time></trkpt><trkpt lat="46.1156431" lon="13.0812158"><ele>178.33333333333331</ele><time>2026-04-26T17:45:33.393Z</time></trkpt><trkpt lat="46.1156362" lon="13.0813866"><ele>179.0</ele><time>2026-04-26T17:45:35.393Z</time></trkpt><trkpt lat="46.1156338" lon="13.0814832"><ele>179.0</ele><time>2026-04-26T17:45:36.394Z</time></trkpt><trkpt lat="46.1156316" lon="13.0815907"><ele>179.0</ele><time>2026-04-26T17:45:37.392Z</time></trkpt><trkpt lat="46.1156342" lon="13.0817082"><ele>179.0</ele><time>2026-04-26T17:45:38.393Z</time></trkpt><trkpt lat="46.1156419" lon="13.0818236"><ele>179.0</ele><time>2026-04-26T17:45:39.392Z</time></trkpt><trkpt lat="46.1156511" lon="13.0819355"><ele>179.0</ele><time>2026-04-26T17:45:40.393Z</time></trkpt><trkpt lat="46.1156616" lon="13.0820453"><ele>179.0</ele><time>2026-04-26T17:45:41.394Z</time></trkpt><trkpt lat="46.115671" lon="13.0821426"><ele>178.85714285714286</ele><time>2026-04-26T17:45:42.393Z</time></trkpt><trkpt lat="46.1156796" lon="13.0822366"><ele>178.71428571428572</ele><time>2026-04-26T17:45:43.394Z</time></trkpt><trkpt lat="46.11569" lon="13.0823347"><ele>178.57142857142856</ele><time>2026-04-26T17:45:44.394Z</time></trkpt><trkpt lat="46.1157038" lon="13.0824304"><ele>178.42857142857144</ele><time>2026-04-26T17:45:45.393Z</time></trkpt><trkpt lat="46.1157182" lon="13.0825277"><ele>178.28571428571428</ele><time>2026-04-26T17:45:46.393Z</time></trkpt><trkpt lat="46.1157322" lon="13.0826238"><ele>178.14285714285714</ele><time>2026-04-26T17:45:47.393Z</time></trkpt><trkpt lat="46.1157463" lon="13.0827182"><ele>178.0</ele><time>2026-04-26T17:45:48.394Z</time></trkpt><trkpt lat="46.1157599" lon="13.0828094"><ele>178.0</ele><time>2026-04-26T17:45:49.392Z</time></trkpt><trkpt lat="46.1157741" lon="13.082902"><ele>178.0</ele><time>2026-04-26T17:45:50.392Z</time></trkpt><trkpt lat="46.1157999" lon="13.0830729"><ele>178.0</ele><time>2026-04-26T17:45:52.392Z</time></trkpt><trkpt lat="46.1158232" lon="13.0832375"><ele>178.0</ele><time>2026-04-26T17:45:54.393Z</time></trkpt><trkpt lat="46.1158441" lon="13.0833799"><ele>178.0</ele><time>2026-04-26T17:45:56.392Z</time></trkpt><trkpt lat="46.1158593" lon="13.0834974"><ele>178.0</ele><time>2026-04-26T17:45:58.392Z</time></trkpt><trkpt lat="46.1158564" lon="13.0836065"><ele>178.0</ele><time>2026-04-26T17:46:01.393Z</time></trkpt><trkpt lat="46.1158106" lon="13.0836699"><ele>178.0</ele><time>2026-04-26T17:46:03.394Z</time></trkpt><trkpt lat="46.1157069" lon="13.0836989"><ele>178.0</ele><time>2026-04-26T17:46:05.392Z</time></trkpt><trkpt lat="46.1155801" lon="13.083731"><ele>178.0</ele><time>2026-04-26T17:46:07.393Z</time></trkpt><trkpt lat="46.1155059" lon="13.0837502"><ele>178.0</ele><time>2026-04-26T17:46:08.393Z</time></trkpt><trkpt lat="46.1154248" lon="13.0837695"><ele>178.0</ele><time>2026-04-26T17:46:09.393Z</time></trkpt><trkpt lat="46.1153423" lon="13.0837927"><ele>178.0</ele><time>2026-04-26T17:46:10.393Z</time></trkpt><trkpt lat="46.1152524" lon="13.0838162"><ele>178.0</ele><time>2026-04-26T17:46:11.393Z</time></trkpt><trkpt lat="46.1151639" lon="13.08384"><ele>178.0</ele><time>2026-04-26T17:46:12.393Z</time></trkpt><trkpt lat="46.1150765" lon="13.0838636"><ele>178.0</ele><time>2026-04-26T17:46:13.393Z</time></trkpt><trkpt lat="46.1149875" lon="13.0838878"><ele>178.0</ele><time>2026-04-26T17:46:14.393Z</time></trkpt><trkpt lat="46.1149001" lon="13.0839107"><ele>177.83333333333334</ele><time>2026-04-26T17:46:15.392Z</time></trkpt><trkpt lat="46.1148122" lon="13.0839353"><ele>177.66666666666669</ele><time>2026-04-26T17:46:16.393Z</time></trkpt><trkpt lat="46.1147242" lon="13.0839559"><ele>177.5</ele><time>2026-04-26T17:46:17.393Z</time></trkpt><trkpt lat="46.1146364" lon="13.0839733"><ele>177.33333333333334</ele><time>2026-04-26T17:46:18.392Z</time></trkpt><trkpt lat="46.1145541" lon="13.0839982"><ele>177.16666666666666</ele><time>2026-04-26T17:46:19.393Z</time></trkpt><trkpt lat="46.1144738" lon="13.0840194"><ele>177.0</ele><time>2026-04-26T17:46:20.393Z</time></trkpt><trkpt lat="46.1143932" lon="13.0840459"><ele>177.0</ele><time>2026-04-26T17:46:21.393Z</time></trkpt><trkpt lat="46.1143135" lon="13.0840657"><ele>177.0</ele><time>2026-04-26T17:46:22.393Z</time></trkpt><trkpt lat="46.1142279" lon="13.08407"><ele>177.0</ele><time>2026-04-26T17:46:23.392Z</time></trkpt><trkpt lat="46.1141571" lon="13.0840625"><ele>177.0</ele><time>2026-04-26T17:46:24.393Z</time></trkpt><trkpt lat="46.1140778" lon="13.0840702"><ele>177.0</ele><time>2026-04-26T17:46:25.392Z</time></trkpt><trkpt lat="46.1139988" lon="13.0840854"><ele>177.0</ele><time>2026-04-26T17:46:26.393Z</time></trkpt><trkpt lat="46.1139207" lon="13.0841161"><ele>176.66666666666666</ele><time>2026-04-26T17:46:27.393Z</time></trkpt><trkpt lat="46.1138366" lon="13.0841454"><ele>176.33333333333334</ele><time>2026-04-26T17:46:28.392Z</time></trkpt><trkpt lat="46.1137528" lon="13.0841767"><ele>176.0</ele><time>2026-04-26T17:46:29.393Z</time></trkpt><trkpt lat="46.113667" lon="13.0842011"><ele>175.66666666666669</ele><time>2026-04-26T17:46:30.393Z</time></trkpt><trkpt lat="46.1135882" lon="13.0842258"><ele>175.33333333333334</ele><time>2026-04-26T17:46:31.393Z</time></trkpt><trkpt lat="46.1135129" lon="13.0842445"><ele>175.0</ele><time>2026-04-26T17:46:32.393Z</time></trkpt><trkpt lat="46.1134391" lon="13.0842636"><ele>175.0</ele><time>2026-04-26T17:46:33.393Z</time></trkpt><trkpt lat="46.1133786" lon="13.0842893"><ele>175.0</ele><time>2026-04-26T17:46:34.393Z</time></trkpt><trkpt lat="46.1132766" lon="13.0843266"><ele>175.0</ele><time>2026-04-26T17:46:36.394Z</time></trkpt><trkpt lat="46.1131933" lon="13.0843582"><ele>175.0</ele><time>2026-04-26T17:46:38.393Z</time></trkpt><trkpt lat="46.1131195" lon="13.0844156"><ele>175.0</ele><time>2026-04-26T17:46:47.393Z</time></trkpt><trkpt lat="46.1130877" lon="13.0844973"><ele>175.0</ele><time>2026-04-26T17:46:49.393Z</time></trkpt><trkpt lat="46.1131396" lon="13.084626"><ele>175.0</ele><time>2026-04-26T17:46:51.394Z</time></trkpt><trkpt lat="46.1131909" lon="13.0847609"><ele>175.0</ele><time>2026-04-26T17:46:53.393Z</time></trkpt><trkpt lat="46.1132406" lon="13.0849203"><ele>175.0</ele><time>2026-04-26T17:46:55.393Z</time></trkpt><trkpt lat="46.113272" lon="13.0850136"><ele>175.0</ele><time>2026-04-26T17:46:56.393Z</time></trkpt><trkpt lat="46.113288" lon="13.0851217"><ele>175.0</ele><time>2026-04-26T17:46:57.393Z</time></trkpt><trkpt lat="46.1133132" lon="13.0852268"><ele>175.0</ele><time>2026-04-26T17:46:58.392Z</time></trkpt><trkpt lat="46.1133386" lon="13.0853197"><ele>175.0</ele><time>2026-04-26T17:46:59.393Z</time></trkpt><trkpt lat="46.1133666" lon="13.0854136"><ele>175.0</ele><time>2026-04-26T17:47:00.393Z</time></trkpt><trkpt lat="46.1134184" lon="13.08549"><ele>175.0</ele><time>2026-04-26T17:47:01.393Z</time></trkpt><trkpt lat="46.1134784" lon="13.0855496"><ele>175.0</ele><time>2026-04-26T17:47:02.393Z</time></trkpt><trkpt lat="46.1135427" lon="13.0855796"><ele>175.0</ele><time>2026-04-26T17:47:03.393Z</time></trkpt><trkpt lat="46.1136168" lon="13.0855822"><ele>175.0</ele><time>2026-04-26T17:47:04.392Z</time></trkpt><trkpt lat="46.1137092" lon="13.0855632"><ele>175.0</ele><time>2026-04-26T17:47:05.393Z</time></trkpt><trkpt lat="46.1138023" lon="13.08554"><ele>175.0</ele><time>2026-04-26T17:47:06.393Z</time></trkpt><trkpt lat="46.113886" lon="13.0855267"><ele>175.0</ele><time>2026-04-26T17:47:07.393Z</time></trkpt><trkpt lat="46.1139606" lon="13.0855177"><ele>175.0</ele><time>2026-04-26T17:47:08.393Z</time></trkpt><trkpt lat="46.1140299" lon="13.0855136"><ele>175.0</ele><time>2026-04-26T17:47:09.393Z</time></trkpt><trkpt lat="46.114097" lon="13.085524"><ele>175.0</ele><time>2026-04-26T17:47:10.392Z</time></trkpt><trkpt lat="46.1141941" lon="13.0856223"><ele>175.4</ele><time>2026-04-26T17:47:12.393Z</time></trkpt><trkpt lat="46.1141908" lon="13.0857949"><ele>175.8</ele><time>2026-04-26T17:47:14.394Z</time></trkpt><trkpt lat="46.1141372" lon="13.0858836"><ele>176.2</ele><time>2026-04-26T17:47:15.393Z</time></trkpt><trkpt lat="46.1140666" lon="13.0859758"><ele>176.6</ele><time>2026-04-26T17:47:16.393Z</time></trkpt><trkpt lat="46.1139945" lon="13.0860684"><ele>177.0</ele><time>2026-04-26T17:47:17.393Z</time></trkpt><trkpt lat="46.1139242" lon="13.0861577"><ele>177.0</ele><time>2026-04-26T17:47:18.393Z</time></trkpt><trkpt lat="46.1138432" lon="13.0862539"><ele>177.0</ele><time>2026-04-26T17:47:19.393Z</time></trkpt><trkpt lat="46.1137579" lon="13.0863376"><ele>177.0</ele><time>2026-04-26T17:47:20.392Z</time></trkpt><trkpt lat="46.1136852" lon="13.0864262"><ele>177.0</ele><time>2026-04-26T17:47:21.394Z</time></trkpt><trkpt lat="46.1136318" lon="13.0865354"><ele>177.0</ele><time>2026-04-26T17:47:22.393Z</time></trkpt><trkpt lat="46.1135973" lon="13.0866671"><ele>178.2</ele><time>2026-04-26T17:47:23.393Z</time></trkpt><trkpt lat="46.1135918" lon="13.0868244"><ele>179.39999999999998</ele><time>2026-04-26T17:47:24.392Z</time></trkpt><trkpt lat="46.1136084" lon="13.0869823"><ele>180.60000000000002</ele><time>2026-04-26T17:47:25.392Z</time></trkpt><trkpt lat="46.113638" lon="13.087136"><ele>181.8</ele><time>2026-04-26T17:47:26.392Z</time></trkpt><trkpt lat="46.1136656" lon="13.0872899"><ele>183.0</ele><time>2026-04-26T17:47:27.393Z</time></trkpt><trkpt lat="46.1136929" lon="13.0874413"><ele>184.4</ele><time>2026-04-26T17:47:28.393Z</time></trkpt><trkpt lat="46.113719" lon="13.0875919"><ele>185.8</ele><time>2026-04-26T17:47:29.393Z</time></trkpt><trkpt lat="46.1137454" lon="13.0877483"><ele>187.2</ele><time>2026-04-26T17:47:30.393Z</time></trkpt><trkpt lat="46.1137697" lon="13.087906"><ele>188.6</ele><time>2026-04-26T17:47:31.393Z</time></trkpt><trkpt lat="46.1137882" lon="13.0880673"><ele>190.0</ele><time>2026-04-26T17:47:32.393Z</time></trkpt><trkpt lat="46.1138016" lon="13.0882275"><ele>190.4</ele><time>2026-04-26T17:47:33.394Z</time></trkpt><trkpt lat="46.1138093" lon="13.0883894"><ele>190.8</ele><time>2026-04-26T17:47:34.393Z</time></trkpt><trkpt lat="46.1138128" lon="13.0885437"><ele>191.2</ele><time>2026-04-26T17:47:35.393Z</time></trkpt><trkpt lat="46.11382" lon="13.0886924"><ele>191.6</ele><time>2026-04-26T17:47:36.393Z</time></trkpt><trkpt lat="46.1138273" lon="13.0888358"><ele>192.0</ele><time>2026-04-26T17:47:37.392Z</time></trkpt><trkpt lat="46.1138336" lon="13.08895"><ele>192.0</ele><time>2026-04-26T17:47:38.393Z</time></trkpt><trkpt lat="46.1138389" lon="13.089041"><ele>192.0</ele><time>2026-04-26T17:47:39.393Z</time></trkpt><trkpt lat="46.1138464" lon="13.0892141"><ele>192.0</ele><time>2026-04-26T17:47:41.394Z</time></trkpt><trkpt lat="46.113852" lon="13.0893093"><ele>192.0</ele><time>2026-04-26T17:47:42.392Z</time></trkpt><trkpt lat="46.113859" lon="13.0894114"><ele>192.0</ele><time>2026-04-26T17:47:43.393Z</time></trkpt><trkpt lat="46.1138672" lon="13.0895185"><ele>192.0</ele><time>2026-04-26T17:47:44.393Z</time></trkpt><trkpt lat="46.1138763" lon="13.0896316"><ele>191.39999999999998</ele><time>2026-04-26T17:47:45.393Z</time></trkpt><trkpt lat="46.1138826" lon="13.0897619"><ele>190.79999999999998</ele><time>2026-04-26T17:47:46.392Z</time></trkpt><trkpt lat="46.1138869" lon="13.0899004"><ele>190.2</ele><time>2026-04-26T17:47:47.392Z</time></trkpt><trkpt lat="46.1138911" lon="13.0900354"><ele>189.6</ele><time>2026-04-26T17:47:48.393Z</time></trkpt><trkpt lat="46.1138927" lon="13.0901781"><ele>189.0</ele><time>2026-04-26T17:47:49.393Z</time></trkpt><trkpt lat="46.1138969" lon="13.0903203"><ele>188.2</ele><time>2026-04-26T17:47:50.393Z</time></trkpt><trkpt lat="46.1138987" lon="13.0904691"><ele>187.39999999999998</ele><time>2026-04-26T17:47:51.394Z</time></trkpt><trkpt lat="46.1138972" lon="13.090617"><ele>186.6</ele><time>2026-04-26T17:47:52.392Z</time></trkpt><trkpt lat="46.1138893" lon="13.0907574"><ele>185.8</ele><time>2026-04-26T17:47:53.394Z</time></trkpt><trkpt lat="46.113879" lon="13.0908929"><ele>185.0</ele><time>2026-04-26T17:47:54.393Z</time></trkpt><trkpt lat="46.1138699" lon="13.0910239"><ele>184.85714285714283</ele><time>2026-04-26T17:47:55.392Z</time></trkpt><trkpt lat="46.1138619" lon="13.0911418"><ele>184.71428571428572</ele><time>2026-04-26T17:47:56.394Z</time></trkpt><trkpt lat="46.1138578" lon="13.0912462"><ele>184.57142857142856</ele><time>2026-04-26T17:47:57.393Z</time></trkpt><trkpt lat="46.1138539" lon="13.09134"><ele>184.42857142857142</ele><time>2026-04-26T17:47:58.392Z</time></trkpt><trkpt lat="46.1138485" lon="13.0914359"><ele>184.28571428571428</ele><time>2026-04-26T17:47:59.394Z</time></trkpt><trkpt lat="46.1138454" lon="13.0915392"><ele>184.14285714285714</ele><time>2026-04-26T17:48:00.394Z</time></trkpt><trkpt lat="46.1138392" lon="13.0916444"><ele>184.0</ele><time>2026-04-26T17:48:01.394Z</time></trkpt><trkpt lat="46.1138327" lon="13.0917531"><ele>184.79999999999998</ele><time>2026-04-26T17:48:02.394Z</time></trkpt><trkpt lat="46.1138297" lon="13.0918599"><ele>185.6</ele><time>2026-04-26T17:48:03.393Z</time></trkpt><trkpt lat="46.1138193" lon="13.0920072"><ele>186.4</ele><time>2026-04-26T17:48:05.393Z</time></trkpt><trkpt lat="46.1137879" lon="13.0921305"><ele>187.2</ele><time>2026-04-26T17:48:25.393Z</time></trkpt><trkpt lat="46.1137714" lon="13.0923122"><ele>188.0</ele><time>2026-04-26T17:48:27.393Z</time></trkpt><trkpt lat="46.1137786" lon="13.0924275"><ele>188.60000000000002</ele><time>2026-04-26T17:48:28.393Z</time></trkpt><trkpt lat="46.1137873" lon="13.0925789"><ele>189.20000000000002</ele><time>2026-04-26T17:48:29.393Z</time></trkpt><trkpt lat="46.1137972" lon="13.0927215"><ele>189.8</ele><time>2026-04-26T17:48:30.393Z</time></trkpt><trkpt lat="46.113806" lon="13.0928712"><ele>190.4</ele><time>2026-04-26T17:48:31.394Z</time></trkpt><trkpt lat="46.1138139" lon="13.0930293"><ele>191.0</ele><time>2026-04-26T17:48:32.392Z</time></trkpt><trkpt lat="46.1138221" lon="13.0931853"><ele>190.8</ele><time>2026-04-26T17:48:33.393Z</time></trkpt><trkpt lat="46.1138332" lon="13.0933402"><ele>190.60000000000002</ele><time>2026-04-26T17:48:34.394Z</time></trkpt><trkpt lat="46.1138434" lon="13.0934946"><ele>190.4</ele><time>2026-04-26T17:48:35.393Z</time></trkpt><trkpt lat="46.1138518" lon="13.0936554"><ele>190.2</ele><time>2026-04-26T17:48:36.393Z</time></trkpt><trkpt lat="46.1138624" lon="13.0938183"><ele>190.0</ele><time>2026-04-26T17:48:37.393Z</time></trkpt><trkpt lat="46.1138723" lon="13.0939867"><ele>190.75</ele><time>2026-04-26T17:48:38.393Z</time></trkpt><trkpt lat="46.1138832" lon="13.094156"><ele>191.5</ele><time>2026-04-26T17:48:39.394Z</time></trkpt><trkpt lat="46.1138965" lon="13.0943256"><ele>192.25</ele><time>2026-04-26T17:48:40.393Z</time></trkpt><trkpt lat="46.1139141" lon="13.0945022"><ele>193.0</ele><time>2026-04-26T17:48:41.393Z</time></trkpt><trkpt lat="46.1139341" lon="13.0946703"><ele>193.0</ele><time>2026-04-26T17:48:42.393Z</time></trkpt><trkpt lat="46.1139573" lon="13.0948496"><ele>193.0</ele><time>2026-04-26T17:48:43.392Z</time></trkpt><trkpt lat="46.1139811" lon="13.0950274"><ele>193.0</ele><time>2026-04-26T17:48:44.393Z</time></trkpt><trkpt lat="46.1140107" lon="13.095204"><ele>193.0</ele><time>2026-04-26T17:48:45.393Z</time></trkpt><trkpt lat="46.1140411" lon="13.0953796"><ele>193.75</ele><time>2026-04-26T17:48:46.393Z</time></trkpt><trkpt lat="46.1140729" lon="13.0955535"><ele>194.5</ele><time>2026-04-26T17:48:47.392Z</time></trkpt><trkpt lat="46.1141058" lon="13.0957294"><ele>195.25</ele><time>2026-04-26T17:48:48.394Z</time></trkpt><trkpt lat="46.1141409" lon="13.0959143"><ele>196.0</ele><time>2026-04-26T17:48:49.393Z</time></trkpt><trkpt lat="46.1141793" lon="13.0961172"><ele>196.0</ele><time>2026-04-26T17:48:50.394Z</time></trkpt><trkpt lat="46.1142211" lon="13.0963326"><ele>196.0</ele><time>2026-04-26T17:48:51.392Z</time></trkpt><trkpt lat="46.114261" lon="13.0965544"><ele>196.0</ele><time>2026-04-26T17:48:52.392Z</time></trkpt><trkpt lat="46.1143036" lon="13.0967873"><ele>196.0</ele><time>2026-04-26T17:48:53.394Z</time></trkpt><trkpt lat="46.1143469" lon="13.09702"><ele>196.0</ele><time>2026-04-26T17:48:54.392Z</time></trkpt><trkpt lat="46.1143914" lon="13.0972474"><ele>196.0</ele><time>2026-04-26T17:48:55.392Z</time></trkpt><trkpt lat="46.1144381" lon="13.0974826"><ele>196.0</ele><time>2026-04-26T17:48:56.393Z</time></trkpt><trkpt lat="46.1144844" lon="13.0977219"><ele>196.0</ele><time>2026-04-26T17:48:57.393Z</time></trkpt><trkpt lat="46.1145308" lon="13.097964"><ele>196.0</ele><time>2026-04-26T17:48:58.392Z</time></trkpt><trkpt lat="46.1145771" lon="13.0982058"><ele>197.0</ele><time>2026-04-26T17:48:59.393Z</time></trkpt><trkpt lat="46.1146248" lon="13.098441"><ele>198.0</ele><time>2026-04-26T17:49:00.393Z</time></trkpt><trkpt lat="46.114676" lon="13.0986751"><ele>199.0</ele><time>2026-04-26T17:49:01.393Z</time></trkpt><trkpt lat="46.1147284" lon="13.0988989"><ele>202.0</ele><time>2026-04-26T17:49:02.394Z</time></trkpt><trkpt lat="46.1147844" lon="13.0991075"><ele>205.0</ele><time>2026-04-26T17:49:03.392Z</time></trkpt><trkpt lat="46.1148466" lon="13.0993083"><ele>208.0</ele><time>2026-04-26T17:49:04.393Z</time></trkpt><trkpt lat="46.1149123" lon="13.099496"><ele>211.25</ele><time>2026-04-26T17:49:05.393Z</time></trkpt><trkpt lat="46.1149787" lon="13.0996811"><ele>214.5</ele><time>2026-04-26T17:49:06.394Z</time></trkpt><trkpt lat="46.1150534" lon="13.0998632"><ele>217.75</ele><time>2026-04-26T17:49:07.394Z</time></trkpt><trkpt lat="46.115121" lon="13.1000419"><ele>221.0</ele><time>2026-04-26T17:49:08.393Z</time></trkpt><trkpt lat="46.1151939" lon="13.1002285"><ele>221.0</ele><time>2026-04-26T17:49:09.393Z</time></trkpt><trkpt lat="46.1152663" lon="13.1004154"><ele>221.0</ele><time>2026-04-26T17:49:10.394Z</time></trkpt><trkpt lat="46.1153357" lon="13.1006116"><ele>221.0</ele><time>2026-04-26T17:49:11.393Z</time></trkpt><trkpt lat="46.1154173" lon="13.1008251"><ele>218.0</ele><time>2026-04-26T17:49:12.393Z</time></trkpt><trkpt lat="46.1155043" lon="13.101049"><ele>215.0</ele><time>2026-04-26T17:49:13.392Z</time></trkpt><trkpt lat="46.1155942" lon="13.1012794"><ele>212.0</ele><time>2026-04-26T17:49:14.393Z</time></trkpt><trkpt lat="46.1156836" lon="13.1015143"><ele>207.66666666666669</ele><time>2026-04-26T17:49:15.392Z</time></trkpt><trkpt lat="46.1157725" lon="13.1017522"><ele>203.33333333333331</ele><time>2026-04-26T17:49:16.392Z</time></trkpt><trkpt lat="46.1158514" lon="13.1019915"><ele>199.0</ele><time>2026-04-26T17:49:17.394Z</time></trkpt><trkpt lat="46.1159239" lon="13.1022401"><ele>198.66666666666666</ele><time>2026-04-26T17:49:18.394Z</time></trkpt><trkpt lat="46.1159834" lon="13.1024969"><ele>198.33333333333331</ele><time>2026-04-26T17:49:19.393Z</time></trkpt><trkpt lat="46.1160339" lon="13.102755"><ele>198.0</ele><time>2026-04-26T17:49:20.393Z</time></trkpt><trkpt lat="46.1160697" lon="13.1030139"><ele>198.33333333333331</ele><time>2026-04-26T17:49:21.394Z</time></trkpt><trkpt lat="46.1160921" lon="13.1032697"><ele>198.66666666666666</ele><time>2026-04-26T17:49:22.394Z</time></trkpt><trkpt lat="46.1161077" lon="13.1035305"><ele>199.0</ele><time>2026-04-26T17:49:23.394Z</time></trkpt><trkpt lat="46.1161222" lon="13.1037916"><ele>199.0</ele><time>2026-04-26T17:49:24.393Z</time></trkpt><trkpt lat="46.1161361" lon="13.1040505"><ele>199.0</ele><time>2026-04-26T17:49:25.393Z</time></trkpt><trkpt lat="46.1161504" lon="13.1043039"><ele>199.0</ele><time>2026-04-26T17:49:26.393Z</time></trkpt><trkpt lat="46.1161641" lon="13.1045545"><ele>198.66666666666666</ele><time>2026-04-26T17:49:27.392Z</time></trkpt><trkpt lat="46.1161784" lon="13.1048021"><ele>198.33333333333331</ele><time>2026-04-26T17:49:28.392Z</time></trkpt><trkpt lat="46.116191" lon="13.105046"><ele>198.0</ele><time>2026-04-26T17:49:29.392Z</time></trkpt><trkpt lat="46.1162033" lon="13.1052882"><ele>197.66666666666669</ele><time>2026-04-26T17:49:30.394Z</time></trkpt><trkpt lat="46.1162153" lon="13.105529"><ele>197.33333333333334</ele><time>2026-04-26T17:49:31.393Z</time></trkpt><trkpt lat="46.1162271" lon="13.1057685"><ele>197.0</ele><time>2026-04-26T17:49:32.393Z</time></trkpt><trkpt lat="46.1162387" lon="13.1060116"><ele>197.0</ele><time>2026-04-26T17:49:33.393Z</time></trkpt><trkpt lat="46.1162509" lon="13.1062573"><ele>197.0</ele><time>2026-04-26T17:49:34.393Z</time></trkpt><trkpt lat="46.116262" lon="13.1065027"><ele>197.0</ele><time>2026-04-26T17:49:35.392Z</time></trkpt><trkpt lat="46.1162741" lon="13.1067446"><ele>197.0</ele><time>2026-04-26T17:49:36.393Z</time></trkpt><trkpt lat="46.1162885" lon="13.1069794"><ele>197.0</ele><time>2026-04-26T17:49:37.394Z</time></trkpt><trkpt lat="46.1163035" lon="13.1072103"><ele>197.0</ele><time>2026-04-26T17:49:38.393Z</time></trkpt><trkpt lat="46.116317" lon="13.107432"><ele>197.25</ele><time>2026-04-26T17:49:39.393Z</time></trkpt><trkpt lat="46.1163283" lon="13.107633"><ele>197.5</ele><time>2026-04-26T17:49:40.394Z</time></trkpt><trkpt lat="46.1163372" lon="13.1078195"><ele>197.75</ele><time>2026-04-26T17:49:41.393Z</time></trkpt><trkpt lat="46.1163416" lon="13.1079972"><ele>198.0</ele><time>2026-04-26T17:49:42.393Z</time></trkpt><trkpt lat="46.1163428" lon="13.1081684"><ele>196.5</ele><time>2026-04-26T17:49:43.393Z</time></trkpt><trkpt lat="46.1163494" lon="13.1083336"><ele>195.0</ele><time>2026-04-26T17:49:44.393Z</time></trkpt><trkpt lat="46.1163626" lon="13.1084948"><ele>193.5</ele><time>2026-04-26T17:49:45.393Z</time></trkpt><trkpt lat="46.1163784" lon="13.1086704"><ele>192.0</ele><time>2026-04-26T17:49:46.393Z</time></trkpt><trkpt lat="46.1163897" lon="13.1088612"><ele>192.0</ele><time>2026-04-26T17:49:47.393Z</time></trkpt><trkpt lat="46.1164015" lon="13.1090528"><ele>192.0</ele><time>2026-04-26T17:49:48.393Z</time></trkpt><trkpt lat="46.1164128" lon="13.1092469"><ele>192.0</ele><time>2026-04-26T17:49:49.392Z</time></trkpt><trkpt lat="46.1164227" lon="13.1094382"><ele>192.0</ele><time>2026-04-26T17:49:50.393Z</time></trkpt><trkpt lat="46.1164316" lon="13.1096186"><ele>191.0</ele><time>2026-04-26T17:49:51.393Z</time></trkpt><trkpt lat="46.1164404" lon="13.1097909"><ele>190.0</ele><time>2026-04-26T17:49:52.393Z</time></trkpt><trkpt lat="46.1164478" lon="13.1099593"><ele>189.0</ele><time>2026-04-26T17:49:53.392Z</time></trkpt><trkpt lat="46.1164553" lon="13.1101195"><ele>188.0</ele><time>2026-04-26T17:49:54.393Z</time></trkpt><trkpt lat="46.1164619" lon="13.1102849"><ele>187.25</ele><time>2026-04-26T17:49:55.393Z</time></trkpt><trkpt lat="46.1164692" lon="13.11046"><ele>186.5</ele><time>2026-04-26T17:49:56.393Z</time></trkpt><trkpt lat="46.1164756" lon="13.1106439"><ele>185.75</ele><time>2026-04-26T17:49:57.393Z</time></trkpt><trkpt lat="46.1164876" lon="13.1108432"><ele>185.0</ele><time>2026-04-26T17:49:58.393Z</time></trkpt><trkpt lat="46.1165016" lon="13.11106"><ele>185.0</ele><time>2026-04-26T17:49:59.394Z</time></trkpt><trkpt lat="46.1165161" lon="13.1112851"><ele>185.0</ele><time>2026-04-26T17:50:00.393Z</time></trkpt><trkpt lat="46.1165298" lon="13.1115218"><ele>185.0</ele><time>2026-04-26T17:50:01.393Z</time></trkpt><trkpt lat="46.1165409" lon="13.1117672"><ele>185.0</ele><time>2026-04-26T17:50:02.394Z</time></trkpt><trkpt lat="46.1165549" lon="13.1120204"><ele>185.0</ele><time>2026-04-26T17:50:03.392Z</time></trkpt><trkpt lat="46.1165696" lon="13.1122755"><ele>185.0</ele><time>2026-04-26T17:50:04.392Z</time></trkpt><trkpt lat="46.1165829" lon="13.1125253"><ele>185.66666666666666</ele><time>2026-04-26T17:50:05.393Z</time></trkpt><trkpt lat="46.1165947" lon="13.112765"><ele>186.33333333333334</ele><time>2026-04-26T17:50:06.394Z</time></trkpt><trkpt lat="46.1166055" lon="13.1130014"><ele>187.0</ele><time>2026-04-26T17:50:07.393Z</time></trkpt><trkpt lat="46.1166155" lon="13.1132327"><ele>188.33333333333334</ele><time>2026-04-26T17:50:08.393Z</time></trkpt><trkpt lat="46.1166294" lon="13.1134673"><ele>189.66666666666666</ele><time>2026-04-26T17:50:09.393Z</time></trkpt><trkpt lat="46.1166413" lon="13.1136903"><ele>191.0</ele><time>2026-04-26T17:50:10.393Z</time></trkpt><trkpt lat="46.1166541" lon="13.1139108"><ele>192.66666666666666</ele><time>2026-04-26T17:50:11.393Z</time></trkpt><trkpt lat="46.1166656" lon="13.1141337"><ele>194.33333333333331</ele><time>2026-04-26T17:50:12.392Z</time></trkpt><trkpt lat="46.1166749" lon="13.1143598"><ele>196.0</ele><time>2026-04-26T17:50:13.393Z</time></trkpt><trkpt lat="46.1166818" lon="13.1145893"><ele>196.0</ele><time>2026-04-26T17:50:14.394Z</time></trkpt><trkpt lat="46.1166823" lon="13.1148095"><ele>196.0</ele><time>2026-04-26T17:50:15.394Z</time></trkpt><trkpt lat="46.1166738" lon="13.1150352"><ele>196.0</ele><time>2026-04-26T17:50:16.394Z</time></trkpt><trkpt lat="46.1166553" lon="13.1152573"><ele>197.33333333333331</ele><time>2026-04-26T17:50:17.392Z</time></trkpt><trkpt lat="46.116632" lon="13.115474"><ele>198.66666666666669</ele><time>2026-04-26T17:50:18.392Z</time></trkpt><trkpt lat="46.1166066" lon="13.1156899"><ele>200.0</ele><time>2026-04-26T17:50:19.393Z</time></trkpt><trkpt lat="46.1165829" lon="13.1159087"><ele>200.0</ele><time>2026-04-26T17:50:20.393Z</time></trkpt><trkpt lat="46.1165578" lon="13.1161247"><ele>200.0</ele><time>2026-04-26T17:50:21.393Z</time></trkpt><trkpt lat="46.1165297" lon="13.1163352"><ele>200.0</ele><time>2026-04-26T17:50:22.393Z</time></trkpt><trkpt lat="46.1165014" lon="13.1165397"><ele>200.0</ele><time>2026-04-26T17:50:23.393Z</time></trkpt><trkpt lat="46.116475" lon="13.1167432"><ele>200.5</ele><time>2026-04-26T17:50:24.393Z</time></trkpt><trkpt lat="46.1164531" lon="13.116946"><ele>201.0</ele><time>2026-04-26T17:50:25.394Z</time></trkpt><trkpt lat="46.1164449" lon="13.1171553"><ele>201.5</ele><time>2026-04-26T17:50:26.393Z</time></trkpt><trkpt lat="46.1164573" lon="13.1173498"><ele>202.0</ele><time>2026-04-26T17:50:27.393Z</time></trkpt><trkpt lat="46.1164906" lon="13.1175361"><ele>203.25</ele><time>2026-04-26T17:50:28.393Z</time></trkpt><trkpt lat="46.1165461" lon="13.1177196"><ele>204.5</ele><time>2026-04-26T17:50:29.392Z</time></trkpt><trkpt lat="46.1166197" lon="13.1178912"><ele>205.75</ele><time>2026-04-26T17:50:30.393Z</time></trkpt><trkpt lat="46.1167013" lon="13.1180376"><ele>207.0</ele><time>2026-04-26T17:50:31.392Z</time></trkpt><trkpt lat="46.1167978" lon="13.118168"><ele>210.0</ele><time>2026-04-26T17:50:32.393Z</time></trkpt><trkpt lat="46.1169079" lon="13.1182893"><ele>213.0</ele><time>2026-04-26T17:50:33.393Z</time></trkpt><trkpt lat="46.1170218" lon="13.1183963"><ele>216.0</ele><time>2026-04-26T17:50:34.393Z</time></trkpt><trkpt lat="46.1171274" lon="13.1184954"><ele>219.0</ele><time>2026-04-26T17:50:35.393Z</time></trkpt><trkpt lat="46.1172226" lon="13.1185892"><ele>219.0</ele><time>2026-04-26T17:50:36.393Z</time></trkpt><trkpt lat="46.1173201" lon="13.1186817"><ele>219.0</ele><time>2026-04-26T17:50:37.394Z</time></trkpt><trkpt lat="46.1174231" lon="13.1187779"><ele>219.0</ele><time>2026-04-26T17:50:38.393Z</time></trkpt><trkpt lat="46.1175307" lon="13.1188782"><ele>219.0</ele><time>2026-04-26T17:50:39.393Z</time></trkpt><trkpt lat="46.1176428" lon="13.1189878"><ele>222.25</ele><time>2026-04-26T17:50:40.392Z</time></trkpt><trkpt lat="46.1177476" lon="13.1190861"><ele>225.5</ele><time>2026-04-26T17:50:41.393Z</time></trkpt><trkpt lat="46.1178602" lon="13.1191895"><ele>228.75</ele><time>2026-04-26T17:50:42.393Z</time></trkpt><trkpt lat="46.117982" lon="13.1192992"><ele>232.0</ele><time>2026-04-26T17:50:43.393Z</time></trkpt><trkpt lat="46.1180973" lon="13.1194018"><ele>232.0</ele><time>2026-04-26T17:50:44.393Z</time></trkpt><trkpt lat="46.1182115" lon="13.1195084"><ele>232.0</ele><time>2026-04-26T17:50:45.393Z</time></trkpt><trkpt lat="46.1183174" lon="13.1196196"><ele>232.0</ele><time>2026-04-26T17:50:46.394Z</time></trkpt><trkpt lat="46.1184234" lon="13.1197522"><ele>232.0</ele><time>2026-04-26T17:50:47.392Z</time></trkpt><trkpt lat="46.1185176" lon="13.1199072"><ele>233.75</ele><time>2026-04-26T17:50:48.393Z</time></trkpt><trkpt lat="46.1185978" lon="13.1200764"><ele>235.5</ele><time>2026-04-26T17:50:49.392Z</time></trkpt><trkpt lat="46.1186546" lon="13.1202605"><ele>237.25</ele><time>2026-04-26T17:50:50.393Z</time></trkpt><trkpt lat="46.1186847" lon="13.1204427"><ele>239.0</ele><time>2026-04-26T17:50:51.394Z</time></trkpt><trkpt lat="46.1186994" lon="13.1206115"><ele>239.0</ele><time>2026-04-26T17:50:52.393Z</time></trkpt><trkpt lat="46.1186971" lon="13.1207725"><ele>238.99999999999997</ele><time>2026-04-26T17:50:53.393Z</time></trkpt><trkpt lat="46.118678" lon="13.12093"><ele>238.99999999999997</ele><time>2026-04-26T17:50:54.393Z</time></trkpt><trkpt lat="46.1186566" lon="13.1210909"><ele>239.0</ele><time>2026-04-26T17:50:55.394Z</time></trkpt><trkpt lat="46.1186512" lon="13.1212328"><ele>239.0</ele><time>2026-04-26T17:50:56.393Z</time></trkpt><trkpt lat="46.1186535" lon="13.1213641"><ele>239.00000000000003</ele><time>2026-04-26T17:50:57.393Z</time></trkpt><trkpt lat="46.1186688" lon="13.1214758"><ele>239.0</ele><time>2026-04-26T17:50:58.392Z</time></trkpt><trkpt lat="46.118697" lon="13.1215596"><ele>239.0</ele><time>2026-04-26T17:50:59.394Z</time></trkpt><trkpt lat="46.1187381" lon="13.1216434"><ele>239.0</ele><time>2026-04-26T17:51:00.392Z</time></trkpt><trkpt lat="46.1187852" lon="13.1217336"><ele>239.00000000000003</ele><time>2026-04-26T17:51:01.393Z</time></trkpt><trkpt lat="46.1188357" lon="13.1218311"><ele>239.0</ele><time>2026-04-26T17:51:02.393Z</time></trkpt><trkpt lat="46.1188843" lon="13.1219143"><ele>239.0</ele><time>2026-04-26T17:51:03.393Z</time></trkpt><trkpt lat="46.1189471" lon="13.1220187"><ele>238.99999999999997</ele><time>2026-04-26T17:51:04.392Z</time></trkpt><trkpt lat="46.1190118" lon="13.1221337"><ele>238.99999999999997</ele><time>2026-04-26T17:51:05.393Z</time></trkpt><trkpt lat="46.1190669" lon="13.1222446"><ele>239.0</ele><time>2026-04-26T17:51:06.393Z</time></trkpt><trkpt lat="46.1191124" lon="13.1223556"><ele>239.0</ele><time>2026-04-26T17:51:07.393Z</time></trkpt><trkpt lat="46.1191477" lon="13.122462"><ele>241.6</ele><time>2026-04-26T17:51:08.394Z</time></trkpt><trkpt lat="46.1191916" lon="13.1225686"><ele>244.2</ele><time>2026-04-26T17:51:09.393Z</time></trkpt><trkpt lat="46.1192433" lon="13.1226791"><ele>246.79999999999998</ele><time>2026-04-26T17:51:10.393Z</time></trkpt><trkpt lat="46.1193021" lon="13.1227978"><ele>249.39999999999998</ele><time>2026-04-26T17:51:11.393Z</time></trkpt><trkpt lat="46.119378" lon="13.1229127"><ele>252.0</ele><time>2026-04-26T17:51:12.394Z</time></trkpt><trkpt lat="46.1194774" lon="13.1230064"><ele>252.0</ele><time>2026-04-26T17:51:13.392Z</time></trkpt><trkpt lat="46.1195765" lon="13.1230925"><ele>252.0</ele><time>2026-04-26T17:51:14.392Z</time></trkpt><trkpt lat="46.1196565" lon="13.1231727"><ele>252.0</ele><time>2026-04-26T17:51:15.393Z</time></trkpt><trkpt lat="46.1197181" lon="13.1232428"><ele>252.0</ele><time>2026-04-26T17:51:16.394Z</time></trkpt><trkpt lat="46.1197541" lon="13.1233228"><ele>252.0</ele><time>2026-04-26T17:51:17.392Z</time></trkpt><trkpt lat="46.1197707" lon="13.1234261"><ele>252.0</ele><time>2026-04-26T17:51:18.393Z</time></trkpt><trkpt lat="46.1197787" lon="13.1235627"><ele>251.0</ele><time>2026-04-26T17:51:19.393Z</time></trkpt><trkpt lat="46.1197805" lon="13.1237038"><ele>250.0</ele><time>2026-04-26T17:51:20.393Z</time></trkpt><trkpt lat="46.1197796" lon="13.1238533"><ele>249.0</ele><time>2026-04-26T17:51:21.394Z</time></trkpt><trkpt lat="46.1197717" lon="13.1240102"><ele>248.0</ele><time>2026-04-26T17:51:22.392Z</time></trkpt><trkpt lat="46.1197678" lon="13.1241618"><ele>247.0</ele><time>2026-04-26T17:51:23.393Z</time></trkpt><trkpt lat="46.1197686" lon="13.1243184"><ele>245.75</ele><time>2026-04-26T17:51:24.393Z</time></trkpt><trkpt lat="46.1197828" lon="13.1244781"><ele>244.5</ele><time>2026-04-26T17:51:25.394Z</time></trkpt><trkpt lat="46.1198086" lon="13.1246356"><ele>243.25</ele><time>2026-04-26T17:51:26.394Z</time></trkpt><trkpt lat="46.1198468" lon="13.1247997"><ele>242.0</ele><time>2026-04-26T17:51:27.393Z</time></trkpt><trkpt lat="46.1198974" lon="13.1249695"><ele>246.25</ele><time>2026-04-26T17:51:28.393Z</time></trkpt><trkpt lat="46.1199485" lon="13.1251286"><ele>250.5</ele><time>2026-04-26T17:51:29.393Z</time></trkpt><trkpt lat="46.1199935" lon="13.1252931"><ele>254.75</ele><time>2026-04-26T17:51:30.393Z</time></trkpt><trkpt lat="46.1200224" lon="13.1254637"><ele>259.0</ele><time>2026-04-26T17:51:31.393Z</time></trkpt><trkpt lat="46.1200308" lon="13.1256375"><ele>258.4</ele><time>2026-04-26T17:51:32.392Z</time></trkpt><trkpt lat="46.1200229" lon="13.1258045"><ele>257.79999999999995</ele><time>2026-04-26T17:51:33.393Z</time></trkpt><trkpt lat="46.1200054" lon="13.1259639"><ele>257.20000000000005</ele><time>2026-04-26T17:51:34.394Z</time></trkpt><trkpt lat="46.1199928" lon="13.1261177"><ele>256.6</ele><time>2026-04-26T17:51:35.393Z</time></trkpt><trkpt lat="46.1200064" lon="13.1262655"><ele>256.0</ele><time>2026-04-26T17:51:36.393Z</time></trkpt><trkpt lat="46.1200451" lon="13.1264155"><ele>254.0</ele><time>2026-04-26T17:51:37.394Z</time></trkpt><trkpt lat="46.1200989" lon="13.1265655"><ele>252.0</ele><time>2026-04-26T17:51:38.393Z</time></trkpt><trkpt lat="46.1201565" lon="13.1267167"><ele>250.0</ele><time>2026-04-26T17:51:39.393Z</time></trkpt><trkpt lat="46.1202211" lon="13.1268785"><ele>248.0</ele><time>2026-04-26T17:51:40.393Z</time></trkpt><trkpt lat="46.1202861" lon="13.1270436"><ele>248.0</ele><time>2026-04-26T17:51:41.393Z</time></trkpt><trkpt lat="46.1203519" lon="13.1272113"><ele>248.0</ele><time>2026-04-26T17:51:42.394Z</time></trkpt><trkpt lat="46.1204189" lon="13.1273793"><ele>248.0</ele><time>2026-04-26T17:51:43.394Z</time></trkpt><trkpt lat="46.1204849" lon="13.1275539"><ele>248.0</ele><time>2026-04-26T17:51:44.392Z</time></trkpt><trkpt lat="46.1205525" lon="13.1277315"><ele>247.5</ele><time>2026-04-26T17:51:45.393Z</time></trkpt><trkpt lat="46.1206124" lon="13.127918"><ele>247.0</ele><time>2026-04-26T17:51:46.392Z</time></trkpt><trkpt lat="46.1206582" lon="13.128112"><ele>246.5</ele><time>2026-04-26T17:51:47.393Z</time></trkpt><trkpt lat="46.1206907" lon="13.1283156"><ele>246.0</ele><time>2026-04-26T17:51:48.393Z</time></trkpt><trkpt lat="46.1207021" lon="13.128515"><ele>246.0</ele><time>2026-04-26T17:51:49.394Z</time></trkpt><trkpt lat="46.1206938" lon="13.1287053"><ele>246.0</ele><time>2026-04-26T17:51:50.393Z</time></trkpt><trkpt lat="46.120673" lon="13.128882"><ele>246.0</ele><time>2026-04-26T17:51:51.393Z</time></trkpt><trkpt lat="46.1206459" lon="13.1290353"><ele>246.0</ele><time>2026-04-26T17:51:52.394Z</time></trkpt><trkpt lat="46.1206177" lon="13.1291699"><ele>245.8</ele><time>2026-04-26T17:51:53.393Z</time></trkpt><trkpt lat="46.1205878" lon="13.1292957"><ele>245.60000000000002</ele><time>2026-04-26T17:51:54.394Z</time></trkpt><trkpt lat="46.1205519" lon="13.1294138"><ele>245.4</ele><time>2026-04-26T17:51:55.392Z</time></trkpt><trkpt lat="46.1205114" lon="13.1295304"><ele>245.2</ele><time>2026-04-26T17:51:56.393Z</time></trkpt><trkpt lat="46.1204675" lon="13.1296504"><ele>245.0</ele><time>2026-04-26T17:51:57.393Z</time></trkpt><trkpt lat="46.1204219" lon="13.1297651"><ele>245.00000000000003</ele><time>2026-04-26T17:51:58.393Z</time></trkpt><trkpt lat="46.1203804" lon="13.1298807"><ele>245.0</ele><time>2026-04-26T17:51:59.393Z</time></trkpt><trkpt lat="46.120344" lon="13.1299987"><ele>245.0</ele><time>2026-04-26T17:52:00.393Z</time></trkpt><trkpt lat="46.1203151" lon="13.1301093"><ele>245.0</ele><time>2026-04-26T17:52:01.393Z</time></trkpt><trkpt lat="46.1202931" lon="13.1302004"><ele>245.00000000000003</ele><time>2026-04-26T17:52:02.392Z</time></trkpt><trkpt lat="46.1202624" lon="13.1303391"><ele>245.0</ele><time>2026-04-26T17:52:04.393Z</time></trkpt><trkpt lat="46.1202413" lon="13.1304363"><ele>244.83333333333334</ele><time>2026-04-26T17:52:06.392Z</time></trkpt><trkpt lat="46.1202271" lon="13.1305304"><ele>244.66666666666669</ele><time>2026-04-26T17:52:08.394Z</time></trkpt><trkpt lat="46.1201994" lon="13.1306143"><ele>244.5</ele><time>2026-04-26T17:52:10.393Z</time></trkpt><trkpt lat="46.1201471" lon="13.1306912"><ele>244.33333333333331</ele><time>2026-04-26T17:52:12.393Z</time></trkpt><trkpt lat="46.120039" lon="13.1307768"><ele>244.16666666666666</ele><time>2026-04-26T17:52:14.394Z</time></trkpt><trkpt lat="46.1199695" lon="13.1308145"><ele>244.0</ele><time>2026-04-26T17:52:15.393Z</time></trkpt><trkpt lat="46.119892" lon="13.1308454"><ele>243.49999999999997</ele><time>2026-04-26T17:52:16.393Z</time></trkpt><trkpt lat="46.1198069" lon="13.1308707"><ele>243.0</ele><time>2026-04-26T17:52:17.393Z</time></trkpt><trkpt lat="46.1197187" lon="13.1308857"><ele>242.5</ele><time>2026-04-26T17:52:18.393Z</time></trkpt><trkpt lat="46.1196307" lon="13.13089"><ele>242.0</ele><time>2026-04-26T17:52:19.392Z</time></trkpt><trkpt lat="46.1195424" lon="13.1308948"><ele>241.49999999999997</ele><time>2026-04-26T17:52:20.394Z</time></trkpt><trkpt lat="46.11946" lon="13.1309014"><ele>241.0</ele><time>2026-04-26T17:52:21.393Z</time></trkpt><trkpt lat="46.119377" lon="13.1309189"><ele>241.0</ele><time>2026-04-26T17:52:22.393Z</time></trkpt><trkpt lat="46.1192957" lon="13.1309618"><ele>241.00000000000003</ele><time>2026-04-26T17:52:23.394Z</time></trkpt><trkpt lat="46.1192183" lon="13.1310319"><ele>241.00000000000003</ele><time>2026-04-26T17:52:24.393Z</time></trkpt><trkpt lat="46.1191369" lon="13.1311143"><ele>241.0</ele><time>2026-04-26T17:52:25.392Z</time></trkpt><trkpt lat="46.1190535" lon="13.1312074"><ele>241.0</ele><time>2026-04-26T17:52:26.393Z</time></trkpt><trkpt lat="46.1189585" lon="13.1313037"><ele>238.75</ele><time>2026-04-26T17:52:27.394Z</time></trkpt><trkpt lat="46.118866" lon="13.131402"><ele>236.5</ele><time>2026-04-26T17:52:28.394Z</time></trkpt><trkpt lat="46.1187738" lon="13.1315108"><ele>234.25</ele><time>2026-04-26T17:52:29.393Z</time></trkpt><trkpt lat="46.1186831" lon="13.131625"><ele>232.0</ele><time>2026-04-26T17:52:30.393Z</time></trkpt><trkpt lat="46.1185938" lon="13.1317385"><ele>232.0</ele><time>2026-04-26T17:52:31.393Z</time></trkpt><trkpt lat="46.118507" lon="13.1318503"><ele>232.0</ele><time>2026-04-26T17:52:32.392Z</time></trkpt><trkpt lat="46.1184228" lon="13.1319633"><ele>232.0</ele><time>2026-04-26T17:52:33.393Z</time></trkpt><trkpt lat="46.1183379" lon="13.1320707"><ele>232.0</ele><time>2026-04-26T17:52:34.393Z</time></trkpt><trkpt lat="46.1182501" lon="13.132168"><ele>231.75</ele><time>2026-04-26T17:52:35.393Z</time></trkpt><trkpt lat="46.1181615" lon="13.1322801"><ele>231.5</ele><time>2026-04-26T17:52:36.393Z</time></trkpt><trkpt lat="46.1180691" lon="13.1324059"><ele>231.25</ele><time>2026-04-26T17:52:37.393Z</time></trkpt><trkpt lat="46.1179745" lon="13.1325303"><ele>231.0</ele><time>2026-04-26T17:52:38.393Z</time></trkpt><trkpt lat="46.117876" lon="13.1326563"><ele>231.0</ele><time>2026-04-26T17:52:39.393Z</time></trkpt><trkpt lat="46.1177732" lon="13.1327918"><ele>231.0</ele><time>2026-04-26T17:52:40.393Z</time></trkpt><trkpt lat="46.117675" lon="13.1329206"><ele>231.0</ele><time>2026-04-26T17:52:41.392Z</time></trkpt><trkpt lat="46.1175749" lon="13.13305"><ele>231.0</ele><time>2026-04-26T17:52:42.392Z</time></trkpt><trkpt lat="46.117476" lon="13.1331788"><ele>230.5</ele><time>2026-04-26T17:52:43.393Z</time></trkpt><trkpt lat="46.1173814" lon="13.1333018"><ele>230.0</ele><time>2026-04-26T17:52:44.392Z</time></trkpt><trkpt lat="46.1172933" lon="13.1334241"><ele>229.5</ele><time>2026-04-26T17:52:45.393Z</time></trkpt><trkpt lat="46.1172111" lon="13.1335341"><ele>229.0</ele><time>2026-04-26T17:52:46.393Z</time></trkpt><trkpt lat="46.1171251" lon="13.1336161"><ele>228.99999999999997</ele><time>2026-04-26T17:52:47.393Z</time></trkpt><trkpt lat="46.1170349" lon="13.1336653"><ele>229.0</ele><time>2026-04-26T17:52:48.394Z</time></trkpt><trkpt lat="46.1169409" lon="13.1336864"><ele>229.0</ele><time>2026-04-26T17:52:49.393Z</time></trkpt><trkpt lat="46.1168496" lon="13.1336851"><ele>229.0</ele><time>2026-04-26T17:52:50.392Z</time></trkpt><trkpt lat="46.1167687" lon="13.1336757"><ele>228.99999999999997</ele><time>2026-04-26T17:52:51.393Z</time></trkpt><trkpt lat="46.1166923" lon="13.1336621"><ele>229.0</ele><time>2026-04-26T17:52:52.393Z</time></trkpt><trkpt lat="46.1166118" lon="13.1336524"><ele>226.39999999999998</ele><time>2026-04-26T17:52:53.393Z</time></trkpt><trkpt lat="46.1165216" lon="13.13364"><ele>223.79999999999998</ele><time>2026-04-26T17:52:54.393Z</time></trkpt><trkpt lat="46.1164314" lon="13.1336396"><ele>221.20000000000002</ele><time>2026-04-26T17:52:55.394Z</time></trkpt><trkpt lat="46.1163388" lon="13.1336492"><ele>218.60000000000002</ele><time>2026-04-26T17:52:56.393Z</time></trkpt><trkpt lat="46.1162459" lon="13.1336646"><ele>216.0</ele><time>2026-04-26T17:52:57.392Z</time></trkpt><trkpt lat="46.1161563" lon="13.1336839"><ele>216.0</ele><time>2026-04-26T17:52:58.393Z</time></trkpt><trkpt lat="46.116067" lon="13.1337051"><ele>216.00000000000003</ele><time>2026-04-26T17:52:59.393Z</time></trkpt><trkpt lat="46.1159828" lon="13.1337383"><ele>216.00000000000003</ele><time>2026-04-26T17:53:00.392Z</time></trkpt><trkpt lat="46.1159012" lon="13.1337905"><ele>216.0</ele><time>2026-04-26T17:53:01.394Z</time></trkpt><trkpt lat="46.1158124" lon="13.1338391"><ele>216.0</ele><time>2026-04-26T17:53:02.393Z</time></trkpt><trkpt lat="46.1157172" lon="13.1338614"><ele>212.8</ele><time>2026-04-26T17:53:03.392Z</time></trkpt><trkpt lat="46.1156246" lon="13.1338568"><ele>209.60000000000002</ele><time>2026-04-26T17:53:04.393Z</time></trkpt><trkpt lat="46.1155223" lon="13.1338536"><ele>206.4</ele><time>2026-04-26T17:53:05.394Z</time></trkpt><trkpt lat="46.1154219" lon="13.1338767"><ele>203.2</ele><time>2026-04-26T17:53:06.393Z</time></trkpt><trkpt lat="46.1153189" lon="13.1339168"><ele>200.0</ele><time>2026-04-26T17:53:07.394Z</time></trkpt><trkpt lat="46.1152189" lon="13.133968"><ele>200.0</ele><time>2026-04-26T17:53:08.392Z</time></trkpt><trkpt lat="46.115114" lon="13.1340237"><ele>200.0</ele><time>2026-04-26T17:53:09.393Z</time></trkpt><trkpt lat="46.1150084" lon="13.1340836"><ele>200.0</ele><time>2026-04-26T17:53:10.393Z</time></trkpt><trkpt lat="46.1149006" lon="13.1341431"><ele>200.0</ele><time>2026-04-26T17:53:11.392Z</time></trkpt><trkpt lat="46.1147893" lon="13.1341876"><ele>199.0</ele><time>2026-04-26T17:53:12.393Z</time></trkpt><trkpt lat="46.1146786" lon="13.1342322"><ele>198.0</ele><time>2026-04-26T17:53:13.393Z</time></trkpt><trkpt lat="46.114567" lon="13.1342798"><ele>197.0</ele><time>2026-04-26T17:53:14.393Z</time></trkpt><trkpt lat="46.1144613" lon="13.1343282"><ele>196.0</ele><time>2026-04-26T17:53:15.394Z</time></trkpt><trkpt lat="46.1143591" lon="13.1343784"><ele>196.0</ele><time>2026-04-26T17:53:16.392Z</time></trkpt><trkpt lat="46.1142639" lon="13.1344445"><ele>196.0</ele><time>2026-04-26T17:53:17.393Z</time></trkpt><trkpt lat="46.1141749" lon="13.134529"><ele>196.0</ele><time>2026-04-26T17:53:18.393Z</time></trkpt><trkpt lat="46.1140977" lon="13.1346331"><ele>196.0</ele><time>2026-04-26T17:53:19.394Z</time></trkpt><trkpt lat="46.1140332" lon="13.1347545"><ele>196.0</ele><time>2026-04-26T17:53:20.393Z</time></trkpt><trkpt lat="46.1139808" lon="13.1348982"><ele>193.75</ele><time>2026-04-26T17:53:21.393Z</time></trkpt><trkpt lat="46.11394" lon="13.1350652"><ele>191.5</ele><time>2026-04-26T17:53:22.394Z</time></trkpt><trkpt lat="46.1139005" lon="13.1352515"><ele>189.25</ele><time>2026-04-26T17:53:23.393Z</time></trkpt><trkpt lat="46.1138653" lon="13.1354528"><ele>187.0</ele><time>2026-04-26T17:53:24.393Z</time></trkpt><trkpt lat="46.1138371" lon="13.1356529"><ele>187.25</ele><time>2026-04-26T17:53:25.394Z</time></trkpt><trkpt lat="46.1138085" lon="13.1358571"><ele>187.5</ele><time>2026-04-26T17:53:26.393Z</time></trkpt><trkpt lat="46.1137826" lon="13.1360625"><ele>187.75</ele><time>2026-04-26T17:53:27.393Z</time></trkpt><trkpt lat="46.11376" lon="13.1362578"><ele>188.0</ele><time>2026-04-26T17:53:28.393Z</time></trkpt><trkpt lat="46.1137374" lon="13.1364435"><ele>188.25</ele><time>2026-04-26T17:53:29.393Z</time></trkpt><trkpt lat="46.1137225" lon="13.1366172"><ele>188.5</ele><time>2026-04-26T17:53:30.393Z</time></trkpt><trkpt lat="46.1137131" lon="13.1367799"><ele>188.75</ele><time>2026-04-26T17:53:31.393Z</time></trkpt><trkpt lat="46.1136936" lon="13.1369402"><ele>189.0</ele><time>2026-04-26T17:53:32.392Z</time></trkpt><trkpt lat="46.1136507" lon="13.137087"><ele>189.0</ele><time>2026-04-26T17:53:33.393Z</time></trkpt><trkpt lat="46.1135889" lon="13.1372157"><ele>189.0</ele><time>2026-04-26T17:53:34.392Z</time></trkpt><trkpt lat="46.1135049" lon="13.1373192"><ele>189.0</ele><time>2026-04-26T17:53:35.393Z</time></trkpt><trkpt lat="46.1134142" lon="13.1374156"><ele>189.0</ele><time>2026-04-26T17:53:36.393Z</time></trkpt><trkpt lat="46.113334" lon="13.1375102"><ele>189.0</ele><time>2026-04-26T17:53:37.393Z</time></trkpt><trkpt lat="46.1132705" lon="13.1376084"><ele>187.79999999999998</ele><time>2026-04-26T17:53:38.393Z</time></trkpt><trkpt lat="46.113224" lon="13.1377188"><ele>186.6</ele><time>2026-04-26T17:53:39.392Z</time></trkpt><trkpt lat="46.1131991" lon="13.1378483"><ele>185.4</ele><time>2026-04-26T17:53:40.393Z</time></trkpt><trkpt lat="46.1131964" lon="13.1379972"><ele>184.2</ele><time>2026-04-26T17:53:41.392Z</time></trkpt><trkpt lat="46.1132096" lon="13.1381643"><ele>183.0</ele><time>2026-04-26T17:53:42.393Z</time></trkpt><trkpt lat="46.1132285" lon="13.1383444"><ele>183.5</ele><time>2026-04-26T17:53:43.393Z</time></trkpt><trkpt lat="46.1132486" lon="13.1385276"><ele>184.0</ele><time>2026-04-26T17:53:44.394Z</time></trkpt><trkpt lat="46.1132706" lon="13.1387112"><ele>184.5</ele><time>2026-04-26T17:53:45.393Z</time></trkpt><trkpt lat="46.1132925" lon="13.1389078"><ele>185.0</ele><time>2026-04-26T17:53:46.393Z</time></trkpt><trkpt lat="46.1133146" lon="13.139105"><ele>185.0</ele><time>2026-04-26T17:53:47.392Z</time></trkpt><trkpt lat="46.1133365" lon="13.1393041"><ele>185.0</ele><time>2026-04-26T17:53:48.394Z</time></trkpt><trkpt lat="46.1133569" lon="13.1394885"><ele>185.0</ele><time>2026-04-26T17:53:49.393Z</time></trkpt><trkpt lat="46.1133781" lon="13.1396485"><ele>185.0</ele><time>2026-04-26T17:53:50.393Z</time></trkpt><trkpt lat="46.1133959" lon="13.1397923"><ele>185.16666666666666</ele><time>2026-04-26T17:53:51.393Z</time></trkpt><trkpt lat="46.1134052" lon="13.13991"><ele>185.33333333333331</ele><time>2026-04-26T17:53:52.393Z</time></trkpt><trkpt lat="46.1134004" lon="13.140022"><ele>185.5</ele><time>2026-04-26T17:53:53.393Z</time></trkpt><trkpt lat="46.1133724" lon="13.1401228"><ele>185.66666666666666</ele><time>2026-04-26T17:53:54.393Z</time></trkpt><trkpt lat="46.1133168" lon="13.1402002"><ele>185.83333333333334</ele><time>2026-04-26T17:53:55.394Z</time></trkpt><trkpt lat="46.1132371" lon="13.1402567"><ele>186.0</ele><time>2026-04-26T17:53:56.392Z</time></trkpt><trkpt lat="46.1131411" lon="13.1402914"><ele>183.75</ele><time>2026-04-26T17:53:57.394Z</time></trkpt><trkpt lat="46.1130337" lon="13.140318"><ele>181.5</ele><time>2026-04-26T17:53:58.392Z</time></trkpt><trkpt lat="46.1129212" lon="13.1403412"><ele>179.25</ele><time>2026-04-26T17:53:59.392Z</time></trkpt><trkpt lat="46.1128058" lon="13.1403685"><ele>177.0</ele><time>2026-04-26T17:54:00.393Z</time></trkpt><trkpt lat="46.1126854" lon="13.1403954"><ele>177.0</ele><time>2026-04-26T17:54:01.393Z</time></trkpt><trkpt lat="46.1125635" lon="13.1404208"><ele>177.0</ele><time>2026-04-26T17:54:02.393Z</time></trkpt><trkpt lat="46.1124451" lon="13.1404463"><ele>177.0</ele><time>2026-04-26T17:54:03.393Z</time></trkpt><trkpt lat="46.1123286" lon="13.1404711"><ele>177.0</ele><time>2026-04-26T17:54:04.393Z</time></trkpt><trkpt lat="46.1122148" lon="13.1404937"><ele>176.39999999999998</ele><time>2026-04-26T17:54:05.393Z</time></trkpt><trkpt lat="46.1121034" lon="13.1405142"><ele>175.79999999999998</ele><time>2026-04-26T17:54:06.394Z</time></trkpt><trkpt lat="46.1119977" lon="13.140537"><ele>175.2</ele><time>2026-04-26T17:54:07.394Z</time></trkpt><trkpt lat="46.1118926" lon="13.140561"><ele>174.6</ele><time>2026-04-26T17:54:08.392Z</time></trkpt><trkpt lat="46.1117816" lon="13.1405797"><ele>174.0</ele><time>2026-04-26T17:54:09.393Z</time></trkpt><trkpt lat="46.111675" lon="13.1405795"><ele>174.2</ele><time>2026-04-26T17:54:10.392Z</time></trkpt><trkpt lat="46.1115719" lon="13.1405744"><ele>174.39999999999998</ele><time>2026-04-26T17:54:11.392Z</time></trkpt><trkpt lat="46.1114714" lon="13.1405772"><ele>174.6</ele><time>2026-04-26T17:54:12.394Z</time></trkpt><trkpt lat="46.1113694" lon="13.1405805"><ele>174.8</ele><time>2026-04-26T17:54:13.394Z</time></trkpt><trkpt lat="46.1112656" lon="13.140587"><ele>175.0</ele><time>2026-04-26T17:54:14.394Z</time></trkpt><trkpt lat="46.1111586" lon="13.1405909"><ele>175.0</ele><time>2026-04-26T17:54:15.394Z</time></trkpt><trkpt lat="46.1110502" lon="13.1405936"><ele>175.0</ele><time>2026-04-26T17:54:16.393Z</time></trkpt><trkpt lat="46.1109391" lon="13.1405988"><ele>175.0</ele><time>2026-04-26T17:54:17.393Z</time></trkpt><trkpt lat="46.1108286" lon="13.1406131"><ele>175.0</ele><time>2026-04-26T17:54:18.393Z</time></trkpt><trkpt lat="46.1107169" lon="13.1406297"><ele>175.0</ele><time>2026-04-26T17:54:19.393Z</time></trkpt><trkpt lat="46.1106114" lon="13.1406555"><ele>175.33333333333334</ele><time>2026-04-26T17:54:20.393Z</time></trkpt><trkpt lat="46.1105155" lon="13.1406857"><ele>175.66666666666669</ele><time>2026-04-26T17:54:21.393Z</time></trkpt><trkpt lat="46.1104236" lon="13.1407016"><ele>176.0</ele><time>2026-04-26T17:54:22.392Z</time></trkpt><trkpt lat="46.1103359" lon="13.1407204"><ele>176.33333333333334</ele><time>2026-04-26T17:54:23.393Z</time></trkpt><trkpt lat="46.1102516" lon="13.1407445"><ele>176.66666666666666</ele><time>2026-04-26T17:54:24.393Z</time></trkpt><trkpt lat="46.1101792" lon="13.140775"><ele>177.0</ele><time>2026-04-26T17:54:25.393Z</time></trkpt><trkpt lat="46.110116" lon="13.1408232"><ele>175.5</ele><time>2026-04-26T17:54:26.392Z</time></trkpt><trkpt lat="46.1100565" lon="13.1408914"><ele>174.0</ele><time>2026-04-26T17:54:27.393Z</time></trkpt><trkpt lat="46.1100025" lon="13.1409741"><ele>172.5</ele><time>2026-04-26T17:54:28.393Z</time></trkpt><trkpt lat="46.1099467" lon="13.1410622"><ele>171.0</ele><time>2026-04-26T17:54:29.392Z</time></trkpt><trkpt lat="46.1098869" lon="13.1411413"><ele>169.5</ele><time>2026-04-26T17:54:30.393Z</time></trkpt><trkpt lat="46.1098209" lon="13.1412123"><ele>168.0</ele><time>2026-04-26T17:54:31.393Z</time></trkpt><trkpt lat="46.1097462" lon="13.1412738"><ele>167.33333333333334</ele><time>2026-04-26T17:54:32.393Z</time></trkpt><trkpt lat="46.1096715" lon="13.1413325"><ele>166.66666666666666</ele><time>2026-04-26T17:54:33.393Z</time></trkpt><trkpt lat="46.1095988" lon="13.1413932"><ele>166.0</ele><time>2026-04-26T17:54:34.393Z</time></trkpt><trkpt lat="46.1095238" lon="13.1414461"><ele>165.33333333333331</ele><time>2026-04-26T17:54:35.393Z</time></trkpt><trkpt lat="46.109436" lon="13.1414792"><ele>164.66666666666666</ele><time>2026-04-26T17:54:36.392Z</time></trkpt><trkpt lat="46.1093509" lon="13.141486"><ele>164.0</ele><time>2026-04-26T17:54:37.393Z</time></trkpt><trkpt lat="46.1092737" lon="13.1414606"><ele>164.0</ele><time>2026-04-26T17:54:38.393Z</time></trkpt><trkpt lat="46.1092035" lon="13.1413987"><ele>164.0</ele><time>2026-04-26T17:54:39.393Z</time></trkpt><trkpt lat="46.1091523" lon="13.1413181"><ele>164.0</ele><time>2026-04-26T17:54:40.392Z</time></trkpt><trkpt lat="46.1091094" lon="13.1412421"><ele>164.0</ele><time>2026-04-26T17:54:41.393Z</time></trkpt><trkpt lat="46.1090631" lon="13.1411757"><ele>164.0</ele><time>2026-04-26T17:54:42.394Z</time></trkpt><trkpt lat="46.1089538" lon="13.1411085"><ele>164.0</ele><time>2026-04-26T17:54:44.394Z</time></trkpt><trkpt lat="46.1088399" lon="13.1411618"><ele>164.5</ele><time>2026-04-26T17:54:46.392Z</time></trkpt><trkpt lat="46.1087997" lon="13.1412356"><ele>165.0</ele><time>2026-04-26T17:54:47.393Z</time></trkpt><trkpt lat="46.108774" lon="13.1413383"><ele>165.5</ele><time>2026-04-26T17:54:48.394Z</time></trkpt><trkpt lat="46.1087644" lon="13.141466"><ele>166.0</ele><time>2026-04-26T17:54:49.393Z</time></trkpt><trkpt lat="46.1087706" lon="13.1416124"><ele>166.5</ele><time>2026-04-26T17:54:50.393Z</time></trkpt><trkpt lat="46.1087828" lon="13.1417533"><ele>167.0</ele><time>2026-04-26T17:54:51.394Z</time></trkpt><trkpt lat="46.1087884" lon="13.1419044"><ele>167.39999999999998</ele><time>2026-04-26T17:54:52.393Z</time></trkpt><trkpt lat="46.1087958" lon="13.1420445"><ele>167.79999999999998</ele><time>2026-04-26T17:54:53.393Z</time></trkpt><trkpt lat="46.1088043" lon="13.142179"><ele>168.2</ele><time>2026-04-26T17:54:54.393Z</time></trkpt><trkpt lat="46.108814" lon="13.1423152"><ele>168.6</ele><time>2026-04-26T17:54:55.392Z</time></trkpt><trkpt lat="46.1088164" lon="13.1424579"><ele>169.0</ele><time>2026-04-26T17:54:56.394Z</time></trkpt><trkpt lat="46.1088157" lon="13.1425992"><ele>169.79999999999998</ele><time>2026-04-26T17:54:57.392Z</time></trkpt><trkpt lat="46.108811" lon="13.1427528"><ele>170.6</ele><time>2026-04-26T17:54:58.394Z</time></trkpt><trkpt lat="46.1087969" lon="13.1429137"><ele>171.4</ele><time>2026-04-26T17:54:59.393Z</time></trkpt><trkpt lat="46.1087749" lon="13.1430689"><ele>172.2</ele><time>2026-04-26T17:55:00.393Z</time></trkpt><trkpt lat="46.1087488" lon="13.1432151"><ele>173.0</ele><time>2026-04-26T17:55:01.393Z</time></trkpt><trkpt lat="46.1087235" lon="13.1433589"><ele>173.60000000000002</ele><time>2026-04-26T17:55:02.394Z</time></trkpt><trkpt lat="46.108698" lon="13.1435036"><ele>174.20000000000002</ele><time>2026-04-26T17:55:03.393Z</time></trkpt><trkpt lat="46.1086716" lon="13.1436567"><ele>174.8</ele><time>2026-04-26T17:55:04.392Z</time></trkpt><trkpt lat="46.1086438" lon="13.1438122"><ele>175.4</ele><time>2026-04-26T17:55:05.392Z</time></trkpt><trkpt lat="46.1086136" lon="13.1439706"><ele>176.0</ele><time>2026-04-26T17:55:06.393Z</time></trkpt><trkpt lat="46.1085813" lon="13.1441332"><ele>177.20000000000002</ele><time>2026-04-26T17:55:07.394Z</time></trkpt><trkpt lat="46.1085519" lon="13.1442965"><ele>178.4</ele><time>2026-04-26T17:55:08.392Z</time></trkpt><trkpt lat="46.1085249" lon="13.1444541"><ele>179.6</ele><time>2026-04-26T17:55:09.392Z</time></trkpt><trkpt lat="46.1084995" lon="13.1446006"><ele>180.8</ele><time>2026-04-26T17:55:10.394Z</time></trkpt><trkpt lat="46.1084725" lon="13.1447441"><ele>182.0</ele><time>2026-04-26T17:55:11.392Z</time></trkpt><trkpt lat="46.1084405" lon="13.1448796"><ele>183.5</ele><time>2026-04-26T17:55:12.392Z</time></trkpt><trkpt lat="46.108408" lon="13.1450001"><ele>185.0</ele><time>2026-04-26T17:55:13.392Z</time></trkpt><trkpt lat="46.1083744" lon="13.1451053"><ele>186.5</ele><time>2026-04-26T17:55:14.394Z</time></trkpt><trkpt lat="46.1083395" lon="13.1452095"><ele>188.0</ele><time>2026-04-26T17:55:15.393Z</time></trkpt><trkpt lat="46.10831" lon="13.1453226"><ele>189.5</ele><time>2026-04-26T17:55:16.392Z</time></trkpt><trkpt lat="46.1082803" lon="13.1454435"><ele>191.0</ele><time>2026-04-26T17:55:17.394Z</time></trkpt><trkpt lat="46.1082584" lon="13.1455734"><ele>188.60000000000002</ele><time>2026-04-26T17:55:18.392Z</time></trkpt><trkpt lat="46.1082361" lon="13.1457044"><ele>186.2</ele><time>2026-04-26T17:55:19.394Z</time></trkpt><trkpt lat="46.1082156" lon="13.1458414"><ele>183.8</ele><time>2026-04-26T17:55:20.393Z</time></trkpt><trkpt lat="46.1081996" lon="13.1459793"><ele>181.39999999999998</ele><time>2026-04-26T17:55:21.393Z</time></trkpt><trkpt lat="46.108187" lon="13.1461189"><ele>179.0</ele><time>2026-04-26T17:55:22.394Z</time></trkpt><trkpt lat="46.1081733" lon="13.1462569"><ele>179.0</ele><time>2026-04-26T17:55:23.392Z</time></trkpt><trkpt lat="46.1081622" lon="13.1463878"><ele>179.0</ele><time>2026-04-26T17:55:24.394Z</time></trkpt><trkpt lat="46.1081499" lon="13.1465174"><ele>179.0</ele><time>2026-04-26T17:55:25.394Z</time></trkpt><trkpt lat="46.108135" lon="13.146651"><ele>179.0</ele><time>2026-04-26T17:55:26.393Z</time></trkpt><trkpt lat="46.1081213" lon="13.1467828"><ele>179.0</ele><time>2026-04-26T17:55:27.393Z</time></trkpt><trkpt lat="46.1081068" lon="13.1469061"><ele>178.83333333333331</ele><time>2026-04-26T17:55:28.392Z</time></trkpt><trkpt lat="46.1080863" lon="13.1470249"><ele>178.66666666666666</ele><time>2026-04-26T17:55:29.393Z</time></trkpt><trkpt lat="46.1080706" lon="13.1471402"><ele>178.5</ele><time>2026-04-26T17:55:30.393Z</time></trkpt><trkpt lat="46.1080543" lon="13.1472556"><ele>178.33333333333334</ele><time>2026-04-26T17:55:31.393Z</time></trkpt><trkpt lat="46.1080317" lon="13.1473805"><ele>178.16666666666669</ele><time>2026-04-26T17:55:32.393Z</time></trkpt><trkpt lat="46.1080007" lon="13.1475151"><ele>178.0</ele><time>2026-04-26T17:55:33.394Z</time></trkpt><trkpt lat="46.1079759" lon="13.1476577"><ele>178.60000000000002</ele><time>2026-04-26T17:55:34.393Z</time></trkpt><trkpt lat="46.1079534" lon="13.1478113"><ele>179.20000000000002</ele><time>2026-04-26T17:55:35.394Z</time></trkpt><trkpt lat="46.1079382" lon="13.1479648"><ele>179.8</ele><time>2026-04-26T17:55:36.392Z</time></trkpt><trkpt lat="46.107932" lon="13.1481143"><ele>180.4</ele><time>2026-04-26T17:55:37.393Z</time></trkpt><trkpt lat="46.1079316" lon="13.1482638"><ele>181.0</ele><time>2026-04-26T17:55:38.394Z</time></trkpt><trkpt lat="46.1079432" lon="13.1484076"><ele>181.0</ele><time>2026-04-26T17:55:39.393Z</time></trkpt><trkpt lat="46.1079566" lon="13.1485464"><ele>181.0</ele><time>2026-04-26T17:55:40.393Z</time></trkpt><trkpt lat="46.1079852" lon="13.1486665"><ele>181.0</ele><time>2026-04-26T17:55:41.393Z</time></trkpt><trkpt lat="46.1080274" lon="13.1487761"><ele>181.0</ele><time>2026-04-26T17:55:42.393Z</time></trkpt><trkpt lat="46.1080812" lon="13.148874"><ele>181.0</ele><time>2026-04-26T17:55:43.392Z</time></trkpt><trkpt lat="46.1081481" lon="13.1489638"><ele>181.0</ele><time>2026-04-26T17:55:44.392Z</time></trkpt><trkpt lat="46.1082207" lon="13.149037"><ele>181.0</ele><time>2026-04-26T17:55:45.393Z</time></trkpt><trkpt lat="46.1082991" lon="13.149108"><ele>181.0</ele><time>2026-04-26T17:55:46.392Z</time></trkpt><trkpt lat="46.1083843" lon="13.1491704"><ele>181.0</ele><time>2026-04-26T17:55:47.393Z</time></trkpt><trkpt lat="46.1084788" lon="13.1492313"><ele>181.0</ele><time>2026-04-26T17:55:48.393Z</time></trkpt><trkpt lat="46.1085803" lon="13.1492856"><ele>183.0</ele><time>2026-04-26T17:55:49.393Z</time></trkpt><trkpt lat="46.108686" lon="13.149326"><ele>185.0</ele><time>2026-04-26T17:55:50.393Z</time></trkpt><trkpt lat="46.1087959" lon="13.1493604"><ele>187.0</ele><time>2026-04-26T17:55:51.393Z</time></trkpt><trkpt lat="46.1089103" lon="13.1493859"><ele>189.0</ele><time>2026-04-26T17:55:52.392Z</time></trkpt><trkpt lat="46.1090264" lon="13.1494071"><ele>188.79999999999998</ele><time>2026-04-26T17:55:53.392Z</time></trkpt><trkpt lat="46.1091398" lon="13.1494245"><ele>188.6</ele><time>2026-04-26T17:55:54.394Z</time></trkpt><trkpt lat="46.1092482" lon="13.1494405"><ele>188.4</ele><time>2026-04-26T17:55:55.393Z</time></trkpt><trkpt lat="46.1093548" lon="13.1494442"><ele>188.2</ele><time>2026-04-26T17:55:56.392Z</time></trkpt><trkpt lat="46.1094573" lon="13.149449"><ele>188.0</ele><time>2026-04-26T17:55:57.394Z</time></trkpt><trkpt lat="46.1095613" lon="13.1494712"><ele>188.0</ele><time>2026-04-26T17:55:58.392Z</time></trkpt><trkpt lat="46.1096712" lon="13.1495216"><ele>188.0</ele><time>2026-04-26T17:55:59.394Z</time></trkpt><trkpt lat="46.1097823" lon="13.149601"><ele>188.0</ele><time>2026-04-26T17:56:00.393Z</time></trkpt><trkpt lat="46.1098899" lon="13.1496892"><ele>188.0</ele><time>2026-04-26T17:56:01.394Z</time></trkpt><trkpt lat="46.1099991" lon="13.1497733"><ele>187.75</ele><time>2026-04-26T17:56:02.392Z</time></trkpt><trkpt lat="46.1101077" lon="13.1498574"><ele>187.5</ele><time>2026-04-26T17:56:03.393Z</time></trkpt><trkpt lat="46.1102225" lon="13.1499425"><ele>187.25</ele><time>2026-04-26T17:56:04.394Z</time></trkpt><trkpt lat="46.1103241" lon="13.1500196"><ele>187.0</ele><time>2026-04-26T17:56:05.392Z</time></trkpt><trkpt lat="46.1104124" lon="13.1500924"><ele>187.2</ele><time>2026-04-26T17:56:06.393Z</time></trkpt><trkpt lat="46.1104938" lon="13.1501553"><ele>187.39999999999998</ele><time>2026-04-26T17:56:07.394Z</time></trkpt><trkpt lat="46.1105673" lon="13.150223"><ele>187.60000000000002</ele><time>2026-04-26T17:56:08.394Z</time></trkpt><trkpt lat="46.1106341" lon="13.1503056"><ele>187.8</ele><time>2026-04-26T17:56:09.393Z</time></trkpt><trkpt lat="46.1106973" lon="13.1504094"><ele>188.0</ele><time>2026-04-26T17:56:10.393Z</time></trkpt><trkpt lat="46.1107505" lon="13.1505307"><ele>188.0</ele><time>2026-04-26T17:56:11.393Z</time></trkpt><trkpt lat="46.1107971" lon="13.1506579"><ele>188.0</ele><time>2026-04-26T17:56:12.393Z</time></trkpt><trkpt lat="46.1108435" lon="13.1507866"><ele>188.0</ele><time>2026-04-26T17:56:13.393Z</time></trkpt><trkpt lat="46.1108886" lon="13.1509105"><ele>188.0</ele><time>2026-04-26T17:56:14.393Z</time></trkpt><trkpt lat="46.1109293" lon="13.1510371"><ele>188.0</ele><time>2026-04-26T17:56:15.392Z</time></trkpt><trkpt lat="46.1109665" lon="13.1511606"><ele>188.66666666666666</ele><time>2026-04-26T17:56:16.393Z</time></trkpt><trkpt lat="46.1110052" lon="13.1512798"><ele>189.33333333333331</ele><time>2026-04-26T17:56:17.393Z</time></trkpt><trkpt lat="46.1110475" lon="13.15139"><ele>190.0</ele><time>2026-04-26T17:56:18.392Z</time></trkpt><trkpt lat="46.1110856" lon="13.1514978"><ele>190.66666666666666</ele><time>2026-04-26T17:56:19.392Z</time></trkpt><trkpt lat="46.1111134" lon="13.1516087"><ele>191.33333333333334</ele><time>2026-04-26T17:56:20.394Z</time></trkpt><trkpt lat="46.111143" lon="13.151706"><ele>192.0</ele><time>2026-04-26T17:56:21.393Z</time></trkpt><trkpt lat="46.1111866" lon="13.1518453"><ele>192.16666666666666</ele><time>2026-04-26T17:56:23.393Z</time></trkpt><trkpt lat="46.1112192" lon="13.1519363"><ele>192.33333333333331</ele><time>2026-04-26T17:56:25.393Z</time></trkpt><trkpt lat="46.1112487" lon="13.1520345"><ele>192.5</ele><time>2026-04-26T17:56:28.393Z</time></trkpt><trkpt lat="46.1112447" lon="13.1521372"><ele>192.66666666666666</ele><time>2026-04-26T17:57:24.393Z</time></trkpt><trkpt lat="46.1111525" lon="13.1522058"><ele>192.83333333333331</ele><time>2026-04-26T17:57:26.392Z</time></trkpt><trkpt lat="46.1110932" lon="13.1522596"><ele>193.0</ele><time>2026-04-26T17:57:27.394Z</time></trkpt><trkpt lat="46.1110269" lon="13.1523159"><ele>192.0</ele><time>2026-04-26T17:57:28.394Z</time></trkpt><trkpt lat="46.1109522" lon="13.1523758"><ele>191.0</ele><time>2026-04-26T17:57:29.393Z</time></trkpt><trkpt lat="46.1108671" lon="13.1524322"><ele>190.0</ele><time>2026-04-26T17:57:30.393Z</time></trkpt><trkpt lat="46.1107786" lon="13.1524921"><ele>189.0</ele><time>2026-04-26T17:57:31.393Z</time></trkpt><trkpt lat="46.110688" lon="13.1525524"><ele>188.0</ele><time>2026-04-26T17:57:32.392Z</time></trkpt><trkpt lat="46.1105912" lon="13.1526077"><ele>186.75</ele><time>2026-04-26T17:57:33.394Z</time></trkpt><trkpt lat="46.1104897" lon="13.1526577"><ele>185.5</ele><time>2026-04-26T17:57:34.393Z</time></trkpt><trkpt lat="46.1103801" lon="13.1526874"><ele>184.25</ele><time>2026-04-26T17:57:35.393Z</time></trkpt><trkpt lat="46.1102645" lon="13.1526923"><ele>183.0</ele><time>2026-04-26T17:57:36.394Z</time></trkpt><trkpt lat="46.1101494" lon="13.1526872"><ele>183.0</ele><time>2026-04-26T17:57:37.393Z</time></trkpt><trkpt lat="46.110037" lon="13.1526803"><ele>183.0</ele><time>2026-04-26T17:57:38.393Z</time></trkpt><trkpt lat="46.1099262" lon="13.1526715"><ele>183.0</ele><time>2026-04-26T17:57:39.394Z</time></trkpt><trkpt lat="46.1098147" lon="13.1526613"><ele>183.0</ele><time>2026-04-26T17:57:40.393Z</time></trkpt><trkpt lat="46.109701" lon="13.1526588"><ele>183.0</ele><time>2026-04-26T17:57:41.392Z</time></trkpt><trkpt lat="46.1095856" lon="13.1526686"><ele>181.5</ele><time>2026-04-26T17:57:42.393Z</time></trkpt><trkpt lat="46.1094681" lon="13.1526844"><ele>180.0</ele><time>2026-04-26T17:57:43.394Z</time></trkpt><trkpt lat="46.1093456" lon="13.1526993"><ele>178.5</ele><time>2026-04-26T17:57:44.393Z</time></trkpt><trkpt lat="46.1092194" lon="13.1527157"><ele>177.0</ele><time>2026-04-26T17:57:45.393Z</time></trkpt><trkpt lat="46.1090867" lon="13.1527363"><ele>175.0</ele><time>2026-04-26T17:57:46.392Z</time></trkpt><trkpt lat="46.108948" lon="13.1527583"><ele>173.0</ele><time>2026-04-26T17:57:47.393Z</time></trkpt><trkpt lat="46.1088025" lon="13.1527815"><ele>171.0</ele><time>2026-04-26T17:57:48.393Z</time></trkpt><trkpt lat="46.1086579" lon="13.152806"><ele>169.0</ele><time>2026-04-26T17:57:49.393Z</time></trkpt><trkpt lat="46.1085104" lon="13.1528309"><ele>169.0</ele><time>2026-04-26T17:57:50.393Z</time></trkpt><trkpt lat="46.1083616" lon="13.1528559"><ele>169.0</ele><time>2026-04-26T17:57:51.393Z</time></trkpt><trkpt lat="46.1082165" lon="13.1528805"><ele>169.0</ele><time>2026-04-26T17:57:52.392Z</time></trkpt><trkpt lat="46.1080709" lon="13.1529062"><ele>169.0</ele><time>2026-04-26T17:57:53.393Z</time></trkpt><trkpt lat="46.1079282" lon="13.1529372"><ele>168.5</ele><time>2026-04-26T17:57:54.392Z</time></trkpt><trkpt lat="46.107787" lon="13.1529747"><ele>168.0</ele><time>2026-04-26T17:57:55.393Z</time></trkpt><trkpt lat="46.1076482" lon="13.1530214"><ele>167.5</ele><time>2026-04-26T17:57:56.392Z</time></trkpt><trkpt lat="46.1075056" lon="13.1530718"><ele>167.0</ele><time>2026-04-26T17:57:57.393Z</time></trkpt><trkpt lat="46.1073648" lon="13.1531229"><ele>166.25</ele><time>2026-04-26T17:57:58.393Z</time></trkpt><trkpt lat="46.1072279" lon="13.1531737"><ele>165.5</ele><time>2026-04-26T17:57:59.393Z</time></trkpt><trkpt lat="46.1070958" lon="13.153222"><ele>164.75</ele><time>2026-04-26T17:58:00.393Z</time></trkpt><trkpt lat="46.1069672" lon="13.1532684"><ele>164.0</ele><time>2026-04-26T17:58:01.392Z</time></trkpt><trkpt lat="46.1068409" lon="13.1533074"><ele>163.75</ele><time>2026-04-26T17:58:02.393Z</time></trkpt><trkpt lat="46.106715" lon="13.1533436"><ele>163.5</ele><time>2026-04-26T17:58:03.393Z</time></trkpt><trkpt lat="46.1065867" lon="13.1533758"><ele>163.25</ele><time>2026-04-26T17:58:04.393Z</time></trkpt><trkpt lat="46.1064589" lon="13.1534012"><ele>163.0</ele><time>2026-04-26T17:58:05.393Z</time></trkpt><trkpt lat="46.1063252" lon="13.1534251"><ele>161.75</ele><time>2026-04-26T17:58:06.393Z</time></trkpt><trkpt lat="46.1061894" lon="13.1534474"><ele>160.5</ele><time>2026-04-26T17:58:07.392Z</time></trkpt><trkpt lat="46.1060538" lon="13.1534629"><ele>159.25</ele><time>2026-04-26T17:58:08.393Z</time></trkpt><trkpt lat="46.1059194" lon="13.1534792"><ele>158.0</ele><time>2026-04-26T17:58:09.393Z</time></trkpt><trkpt lat="46.1057858" lon="13.153498"><ele>156.8</ele><time>2026-04-26T17:58:10.392Z</time></trkpt><trkpt lat="46.1056596" lon="13.1535156"><ele>155.60000000000002</ele><time>2026-04-26T17:58:11.394Z</time></trkpt><trkpt lat="46.1055425" lon="13.1535252"><ele>154.39999999999998</ele><time>2026-04-26T17:58:12.393Z</time></trkpt><trkpt lat="46.1054395" lon="13.1535382"><ele>153.2</ele><time>2026-04-26T17:58:13.394Z</time></trkpt><trkpt lat="46.1053552" lon="13.1535475"><ele>152.0</ele><time>2026-04-26T17:58:14.394Z</time></trkpt><trkpt lat="46.1052715" lon="13.1535616"><ele>152.0</ele><time>2026-04-26T17:58:15.393Z</time></trkpt><trkpt lat="46.1051872" lon="13.153575"><ele>152.0</ele><time>2026-04-26T17:58:16.393Z</time></trkpt><trkpt lat="46.1051024" lon="13.1535862"><ele>152.0</ele><time>2026-04-26T17:58:17.394Z</time></trkpt><trkpt lat="46.1050145" lon="13.153598"><ele>152.0</ele><time>2026-04-26T17:58:18.394Z</time></trkpt><trkpt lat="46.104923" lon="13.1536124"><ele>152.0</ele><time>2026-04-26T17:58:19.392Z</time></trkpt><trkpt lat="46.1048276" lon="13.153625"><ele>152.0</ele><time>2026-04-26T17:58:20.393Z</time></trkpt><trkpt lat="46.1047323" lon="13.1536351"><ele>151.2</ele><time>2026-04-26T17:58:21.392Z</time></trkpt><trkpt lat="46.1046384" lon="13.1536361"><ele>150.39999999999998</ele><time>2026-04-26T17:58:22.393Z</time></trkpt><trkpt lat="46.1045459" lon="13.1536187"><ele>149.60000000000002</ele><time>2026-04-26T17:58:23.394Z</time></trkpt><trkpt lat="46.1044554" lon="13.1535827"><ele>148.8</ele><time>2026-04-26T17:58:24.392Z</time></trkpt><trkpt lat="46.1043709" lon="13.153533"><ele>148.0</ele><time>2026-04-26T17:58:25.393Z</time></trkpt><trkpt lat="46.1042849" lon="13.1534772"><ele>148.0</ele><time>2026-04-26T17:58:26.393Z</time></trkpt><trkpt lat="46.1041979" lon="13.1534146"><ele>148.0</ele><time>2026-04-26T17:58:27.392Z</time></trkpt><trkpt lat="46.1041074" lon="13.1533534"><ele>148.0</ele><time>2026-04-26T17:58:28.393Z</time></trkpt><trkpt lat="46.1040203" lon="13.1532934"><ele>148.0</ele><time>2026-04-26T17:58:29.392Z</time></trkpt><trkpt lat="46.1039392" lon="13.1532324"><ele>148.0</ele><time>2026-04-26T17:58:30.394Z</time></trkpt><trkpt lat="46.1038636" lon="13.1531794"><ele>147.16666666666669</ele><time>2026-04-26T17:58:31.392Z</time></trkpt><trkpt lat="46.1037919" lon="13.1531387"><ele>146.33333333333334</ele><time>2026-04-26T17:58:32.393Z</time></trkpt><trkpt lat="46.1037221" lon="13.1530907"><ele>145.5</ele><time>2026-04-26T17:58:33.393Z</time></trkpt><trkpt lat="46.1036471" lon="13.1530573"><ele>144.66666666666666</ele><time>2026-04-26T17:58:34.392Z</time></trkpt><trkpt lat="46.1035685" lon="13.1530349"><ele>143.83333333333331</ele><time>2026-04-26T17:58:35.393Z</time></trkpt><trkpt lat="46.1034861" lon="13.1530118"><ele>143.0</ele><time>2026-04-26T17:58:36.392Z</time></trkpt><trkpt lat="46.1034028" lon="13.1529851"><ele>143.0</ele><time>2026-04-26T17:58:37.393Z</time></trkpt><trkpt lat="46.1033167" lon="13.1529569"><ele>143.0</ele><time>2026-04-26T17:58:38.393Z</time></trkpt><trkpt lat="46.1032296" lon="13.1529402"><ele>143.0</ele><time>2026-04-26T17:58:39.392Z</time></trkpt><trkpt lat="46.1031393" lon="13.1529398"><ele>143.0</ele><time>2026-04-26T17:58:40.394Z</time></trkpt><trkpt lat="46.1030482" lon="13.1529438"><ele>143.0</ele><time>2026-04-26T17:58:41.393Z</time></trkpt><trkpt lat="46.1029548" lon="13.152953"><ele>142.6</ele><time>2026-04-26T17:58:42.393Z</time></trkpt><trkpt lat="46.1028622" lon="13.1529572"><ele>142.20000000000002</ele><time>2026-04-26T17:58:43.393Z</time></trkpt><trkpt lat="46.10277" lon="13.1529681"><ele>141.8</ele><time>2026-04-26T17:58:44.394Z</time></trkpt><trkpt lat="46.1026738" lon="13.1529861"><ele>141.4</ele><time>2026-04-26T17:58:45.393Z</time></trkpt><trkpt lat="46.1025721" lon="13.1530075"><ele>141.0</ele><time>2026-04-26T17:58:46.393Z</time></trkpt><trkpt lat="46.1024716" lon="13.1530277"><ele>140.8</ele><time>2026-04-26T17:58:47.394Z</time></trkpt><trkpt lat="46.1023671" lon="13.1530554"><ele>140.6</ele><time>2026-04-26T17:58:48.393Z</time></trkpt><trkpt lat="46.1022677" lon="13.1530826"><ele>140.4</ele><time>2026-04-26T17:58:49.393Z</time></trkpt><trkpt lat="46.1021722" lon="13.153105"><ele>140.2</ele><time>2026-04-26T17:58:50.393Z</time></trkpt><trkpt lat="46.1020732" lon="13.153153"><ele>140.0</ele><time>2026-04-26T17:58:51.392Z</time></trkpt><trkpt lat="46.1019831" lon="13.1531751"><ele>140.0</ele><time>2026-04-26T17:58:52.392Z</time></trkpt><trkpt lat="46.1018985" lon="13.1531907"><ele>140.0</ele><time>2026-04-26T17:58:53.393Z</time></trkpt><trkpt lat="46.1018146" lon="13.1532173"><ele>140.0</ele><time>2026-04-26T17:58:54.393Z</time></trkpt><trkpt lat="46.1017289" lon="13.1532515"><ele>140.0</ele><time>2026-04-26T17:58:55.393Z</time></trkpt><trkpt lat="46.1016467" lon="13.1532806"><ele>140.0</ele><time>2026-04-26T17:58:56.393Z</time></trkpt><trkpt lat="46.1015703" lon="13.153311"><ele>140.0</ele><time>2026-04-26T17:58:57.392Z</time></trkpt><trkpt lat="46.1015002" lon="13.1533372"><ele>139.6</ele><time>2026-04-26T17:58:58.393Z</time></trkpt><trkpt lat="46.1013913" lon="13.1533794"><ele>139.2</ele><time>2026-04-26T17:59:00.394Z</time></trkpt><trkpt lat="46.1013294" lon="13.1534116"><ele>138.8</ele><time>2026-04-26T17:59:02.394Z</time></trkpt><trkpt lat="46.1012695" lon="13.1535053"><ele>138.4</ele><time>2026-04-26T17:59:08.392Z</time></trkpt><trkpt lat="46.1012999" lon="13.1536701"><ele>138.0</ele><time>2026-04-26T17:59:10.394Z</time></trkpt><trkpt lat="46.101315" lon="13.1537606"><ele>138.0</ele><time>2026-04-26T17:59:11.392Z</time></trkpt><trkpt lat="46.10133" lon="13.1538615"><ele>138.0</ele><time>2026-04-26T17:59:12.392Z</time></trkpt><trkpt lat="46.1013449" lon="13.1539719"><ele>138.0</ele><time>2026-04-26T17:59:13.393Z</time></trkpt><trkpt lat="46.1013667" lon="13.1541099"><ele>138.0</ele><time>2026-04-26T17:59:14.392Z</time></trkpt><trkpt lat="46.1013884" lon="13.1542515"><ele>138.0</ele><time>2026-04-26T17:59:15.393Z</time></trkpt><trkpt lat="46.1014122" lon="13.1543882"><ele>138.0</ele><time>2026-04-26T17:59:16.392Z</time></trkpt><trkpt lat="46.1014355" lon="13.1545405"><ele>137.75</ele><time>2026-04-26T17:59:17.393Z</time></trkpt><trkpt lat="46.1014617" lon="13.1547013"><ele>137.5</ele><time>2026-04-26T17:59:18.394Z</time></trkpt><trkpt lat="46.1014886" lon="13.1548714"><ele>137.25</ele><time>2026-04-26T17:59:19.392Z</time></trkpt><trkpt lat="46.1015144" lon="13.1550483"><ele>137.0</ele><time>2026-04-26T17:59:20.393Z</time></trkpt><trkpt lat="46.1015428" lon="13.1552192"><ele>137.0</ele><time>2026-04-26T17:59:21.393Z</time></trkpt><trkpt lat="46.1015694" lon="13.1553957"><ele>137.0</ele><time>2026-04-26T17:59:22.393Z</time></trkpt><trkpt lat="46.101596" lon="13.1555733"><ele>137.0</ele><time>2026-04-26T17:59:23.394Z</time></trkpt><trkpt lat="46.1016233" lon="13.1557542"><ele>137.0</ele><time>2026-04-26T17:59:24.393Z</time></trkpt><trkpt lat="46.101651" lon="13.155935"><ele>137.5</ele><time>2026-04-26T17:59:25.393Z</time></trkpt><trkpt lat="46.1016782" lon="13.1561114"><ele>138.0</ele><time>2026-04-26T17:59:26.394Z</time></trkpt><trkpt lat="46.1017022" lon="13.1562873"><ele>138.5</ele><time>2026-04-26T17:59:27.393Z</time></trkpt><trkpt lat="46.101718" lon="13.1564701"><ele>139.0</ele><time>2026-04-26T17:59:28.392Z</time></trkpt><trkpt lat="46.1017199" lon="13.1566547"><ele>139.0</ele><time>2026-04-26T17:59:29.393Z</time></trkpt><trkpt lat="46.1017126" lon="13.1568447"><ele>139.0</ele><time>2026-04-26T17:59:30.393Z</time></trkpt><trkpt lat="46.1016962" lon="13.1570342"><ele>139.0</ele><time>2026-04-26T17:59:31.392Z</time></trkpt><trkpt lat="46.1016796" lon="13.1572195"><ele>139.0</ele><time>2026-04-26T17:59:32.393Z</time></trkpt><trkpt lat="46.1016633" lon="13.1573996"><ele>138.75</ele><time>2026-04-26T17:59:33.393Z</time></trkpt><trkpt lat="46.1016454" lon="13.1575778"><ele>138.5</ele><time>2026-04-26T17:59:34.393Z</time></trkpt><trkpt lat="46.1016315" lon="13.1577516"><ele>138.25</ele><time>2026-04-26T17:59:35.393Z</time></trkpt><trkpt lat="46.1016226" lon="13.1579294"><ele>138.0</ele><time>2026-04-26T17:59:36.393Z</time></trkpt><trkpt lat="46.1016197" lon="13.158109"><ele>138.0</ele><time>2026-04-26T17:59:37.393Z</time></trkpt><trkpt lat="46.1016289" lon="13.1582936"><ele>138.0</ele><time>2026-04-26T17:59:38.392Z</time></trkpt><trkpt lat="46.1016475" lon="13.1584887"><ele>138.0</ele><time>2026-04-26T17:59:39.393Z</time></trkpt><trkpt lat="46.101675" lon="13.1586766"><ele>138.0</ele><time>2026-04-26T17:59:40.393Z</time></trkpt><trkpt lat="46.1017039" lon="13.1588669"><ele>138.5</ele><time>2026-04-26T17:59:41.394Z</time></trkpt><trkpt lat="46.1017346" lon="13.1590581"><ele>139.0</ele><time>2026-04-26T17:59:42.393Z</time></trkpt><trkpt lat="46.1017663" lon="13.1592502"><ele>139.5</ele><time>2026-04-26T17:59:43.393Z</time></trkpt><trkpt lat="46.1017964" lon="13.159444"><ele>140.0</ele><time>2026-04-26T17:59:44.392Z</time></trkpt><trkpt lat="46.1018261" lon="13.159641"><ele>140.0</ele><time>2026-04-26T17:59:45.392Z</time></trkpt><trkpt lat="46.1018521" lon="13.1598381"><ele>140.0</ele><time>2026-04-26T17:59:46.394Z</time></trkpt><trkpt lat="46.1018761" lon="13.1600374"><ele>140.0</ele><time>2026-04-26T17:59:47.392Z</time></trkpt><trkpt lat="46.1018934" lon="13.1602395"><ele>140.0</ele><time>2026-04-26T17:59:48.393Z</time></trkpt><trkpt lat="46.1019047" lon="13.1604441"><ele>139.75</ele><time>2026-04-26T17:59:49.393Z</time></trkpt><trkpt lat="46.1019106" lon="13.1606479"><ele>139.5</ele><time>2026-04-26T17:59:50.393Z</time></trkpt><trkpt lat="46.1019149" lon="13.1608525"><ele>139.25</ele><time>2026-04-26T17:59:51.393Z</time></trkpt><trkpt lat="46.1019181" lon="13.1610473"><ele>139.0</ele><time>2026-04-26T17:59:52.392Z</time></trkpt><trkpt lat="46.1019211" lon="13.1612341"><ele>138.25</ele><time>2026-04-26T17:59:53.393Z</time></trkpt><trkpt lat="46.1019254" lon="13.1614212"><ele>137.5</ele><time>2026-04-26T17:59:54.394Z</time></trkpt><trkpt lat="46.1019345" lon="13.161602"><ele>136.75</ele><time>2026-04-26T17:59:55.393Z</time></trkpt><trkpt lat="46.101956" lon="13.1617917"><ele>136.0</ele><time>2026-04-26T17:59:56.392Z</time></trkpt><trkpt lat="46.1019889" lon="13.161994"><ele>136.0</ele><time>2026-04-26T17:59:57.392Z</time></trkpt><trkpt lat="46.102034" lon="13.1621908"><ele>136.0</ele><time>2026-04-26T17:59:58.393Z</time></trkpt><trkpt lat="46.1020848" lon="13.1623947"><ele>136.0</ele><time>2026-04-26T17:59:59.394Z</time></trkpt><trkpt lat="46.1021355" lon="13.1625987"><ele>136.0</ele><time>2026-04-26T18:00:00.392Z</time></trkpt><trkpt lat="46.1021853" lon="13.1627996"><ele>136.0</ele><time>2026-04-26T18:00:01.393Z</time></trkpt><trkpt lat="46.102234" lon="13.162999"><ele>136.0</ele><time>2026-04-26T18:00:02.392Z</time></trkpt><trkpt lat="46.1022784" lon="13.1631971"><ele>136.0</ele><time>2026-04-26T18:00:03.393Z</time></trkpt><trkpt lat="46.1023201" lon="13.163396"><ele>136.0</ele><time>2026-04-26T18:00:04.394Z</time></trkpt><trkpt lat="46.1023541" lon="13.1635999"><ele>136.0</ele><time>2026-04-26T18:00:05.392Z</time></trkpt><trkpt lat="46.102387" lon="13.1638073"><ele>136.0</ele><time>2026-04-26T18:00:06.393Z</time></trkpt><trkpt lat="46.1024151" lon="13.1640183"><ele>136.0</ele><time>2026-04-26T18:00:07.394Z</time></trkpt><trkpt lat="46.1024456" lon="13.1642272"><ele>136.0</ele><time>2026-04-26T18:00:08.393Z</time></trkpt><trkpt lat="46.1024736" lon="13.1644318"><ele>136.75</ele><time>2026-04-26T18:00:09.392Z</time></trkpt><trkpt lat="46.1025" lon="13.1646354"><ele>137.5</ele><time>2026-04-26T18:00:10.393Z</time></trkpt><trkpt lat="46.1025232" lon="13.1648433"><ele>138.25</ele><time>2026-04-26T18:00:11.393Z</time></trkpt><trkpt lat="46.1025426" lon="13.1650503"><ele>139.0</ele><time>2026-04-26T18:00:12.392Z</time></trkpt><trkpt lat="46.1025548" lon="13.165254"><ele>139.0</ele><time>2026-04-26T18:00:13.393Z</time></trkpt><trkpt lat="46.1025662" lon="13.1654566"><ele>139.0</ele><time>2026-04-26T18:00:14.392Z</time></trkpt><trkpt lat="46.1025722" lon="13.1656604"><ele>139.0</ele><time>2026-04-26T18:00:15.392Z</time></trkpt><trkpt lat="46.1025737" lon="13.1658677"><ele>139.0</ele><time>2026-04-26T18:00:16.393Z</time></trkpt><trkpt lat="46.1025716" lon="13.1660744"><ele>138.75</ele><time>2026-04-26T18:00:17.394Z</time></trkpt><trkpt lat="46.1025646" lon="13.1662857"><ele>138.5</ele><time>2026-04-26T18:00:18.393Z</time></trkpt><trkpt lat="46.1025555" lon="13.1664977"><ele>138.25</ele><time>2026-04-26T18:00:19.393Z</time></trkpt><trkpt lat="46.1025447" lon="13.1667059"><ele>138.0</ele><time>2026-04-26T18:00:20.394Z</time></trkpt><trkpt lat="46.1025301" lon="13.1669168"><ele>138.0</ele><time>2026-04-26T18:00:21.393Z</time></trkpt><trkpt lat="46.1025134" lon="13.1671255"><ele>138.0</ele><time>2026-04-26T18:00:22.393Z</time></trkpt><trkpt lat="46.1024937" lon="13.1673329"><ele>138.0</ele><time>2026-04-26T18:00:23.392Z</time></trkpt><trkpt lat="46.1024696" lon="13.1675431"><ele>138.0</ele><time>2026-04-26T18:00:24.393Z</time></trkpt><trkpt lat="46.1024382" lon="13.1677485"><ele>138.25</ele><time>2026-04-26T18:00:25.393Z</time></trkpt><trkpt lat="46.1023961" lon="13.167947"><ele>138.5</ele><time>2026-04-26T18:00:26.392Z</time></trkpt><trkpt lat="46.1023497" lon="13.1681458"><ele>138.75</ele><time>2026-04-26T18:00:27.393Z</time></trkpt><trkpt lat="46.1022976" lon="13.1683454"><ele>139.0</ele><time>2026-04-26T18:00:28.393Z</time></trkpt><trkpt lat="46.1022438" lon="13.1685441"><ele>139.0</ele><time>2026-04-26T18:00:29.393Z</time></trkpt><trkpt lat="46.1021869" lon="13.1687443"><ele>139.0</ele><time>2026-04-26T18:00:30.393Z</time></trkpt><trkpt lat="46.1021303" lon="13.1689415"><ele>139.0</ele><time>2026-04-26T18:00:31.393Z</time></trkpt><trkpt lat="46.1020714" lon="13.1691397"><ele>139.0</ele><time>2026-04-26T18:00:32.393Z</time></trkpt><trkpt lat="46.1020164" lon="13.169335"><ele>138.5</ele><time>2026-04-26T18:00:33.394Z</time></trkpt><trkpt lat="46.1019622" lon="13.1695303"><ele>138.0</ele><time>2026-04-26T18:00:34.392Z</time></trkpt><trkpt lat="46.1019049" lon="13.1697327"><ele>137.5</ele><time>2026-04-26T18:00:35.393Z</time></trkpt><trkpt lat="46.1018468" lon="13.169932"><ele>137.0</ele><time>2026-04-26T18:00:36.393Z</time></trkpt><trkpt lat="46.1017866" lon="13.170131"><ele>136.75</ele><time>2026-04-26T18:00:37.393Z</time></trkpt><trkpt lat="46.1017306" lon="13.170326"><ele>136.5</ele><time>2026-04-26T18:00:38.394Z</time></trkpt><trkpt lat="46.1016738" lon="13.170517"><ele>136.25</ele><time>2026-04-26T18:00:39.392Z</time></trkpt><trkpt lat="46.101617" lon="13.1707016"><ele>136.0</ele><time>2026-04-26T18:00:40.392Z</time></trkpt><trkpt lat="46.1015611" lon="13.1708816"><ele>136.0</ele><time>2026-04-26T18:00:41.393Z</time></trkpt><trkpt lat="46.1015034" lon="13.1710602"><ele>136.0</ele><time>2026-04-26T18:00:42.393Z</time></trkpt><trkpt lat="46.1014448" lon="13.1712364"><ele>136.0</ele><time>2026-04-26T18:00:43.393Z</time></trkpt><trkpt lat="46.1013854" lon="13.1714088"><ele>136.0</ele><time>2026-04-26T18:00:44.393Z</time></trkpt><trkpt lat="46.101325" lon="13.1715823"><ele>135.5</ele><time>2026-04-26T18:00:45.393Z</time></trkpt><trkpt lat="46.1012618" lon="13.1717649"><ele>135.0</ele><time>2026-04-26T18:00:46.392Z</time></trkpt><trkpt lat="46.1011972" lon="13.171952"><ele>134.5</ele><time>2026-04-26T18:00:47.394Z</time></trkpt><trkpt lat="46.1011326" lon="13.1721408"><ele>134.0</ele><time>2026-04-26T18:00:48.393Z</time></trkpt><trkpt lat="46.1010671" lon="13.1723305"><ele>134.0</ele><time>2026-04-26T18:00:49.394Z</time></trkpt><trkpt lat="46.1010007" lon="13.1725225"><ele>134.0</ele><time>2026-04-26T18:00:50.393Z</time></trkpt><trkpt lat="46.1009345" lon="13.1727143"><ele>134.0</ele><time>2026-04-26T18:00:51.393Z</time></trkpt><trkpt lat="46.1008668" lon="13.1729061"><ele>134.0</ele><time>2026-04-26T18:00:52.393Z</time></trkpt><trkpt lat="46.1007994" lon="13.1731007"><ele>133.33333333333331</ele><time>2026-04-26T18:00:53.393Z</time></trkpt><trkpt lat="46.1007266" lon="13.1733019"><ele>132.66666666666666</ele><time>2026-04-26T18:00:54.394Z</time></trkpt><trkpt lat="46.1006541" lon="13.1735064"><ele>132.0</ele><time>2026-04-26T18:00:55.393Z</time></trkpt><trkpt lat="46.1005818" lon="13.1737209"><ele>132.0</ele><time>2026-04-26T18:00:56.392Z</time></trkpt><trkpt lat="46.1005111" lon="13.1739334"><ele>132.0</ele><time>2026-04-26T18:00:57.394Z</time></trkpt><trkpt lat="46.1004361" lon="13.1741542"><ele>132.0</ele><time>2026-04-26T18:00:58.393Z</time></trkpt><trkpt lat="46.1003584" lon="13.1743833"><ele>132.0</ele><time>2026-04-26T18:00:59.393Z</time></trkpt><trkpt lat="46.1002789" lon="13.1746127"><ele>132.0</ele><time>2026-04-26T18:01:00.392Z</time></trkpt><trkpt lat="46.1001987" lon="13.1748413"><ele>132.0</ele><time>2026-04-26T18:01:01.393Z</time></trkpt><trkpt lat="46.100117" lon="13.1750703"><ele>132.0</ele><time>2026-04-26T18:01:02.393Z</time></trkpt><trkpt lat="46.1000339" lon="13.1752976"><ele>132.0</ele><time>2026-04-26T18:01:03.392Z</time></trkpt><trkpt lat="46.0999469" lon="13.1755218"><ele>132.0</ele><time>2026-04-26T18:01:04.392Z</time></trkpt><trkpt lat="46.0998567" lon="13.1757431"><ele>131.66666666666666</ele><time>2026-04-26T18:01:05.393Z</time></trkpt><trkpt lat="46.0997625" lon="13.1759576"><ele>131.33333333333331</ele><time>2026-04-26T18:01:06.393Z</time></trkpt><trkpt lat="46.0996694" lon="13.1761619"><ele>131.0</ele><time>2026-04-26T18:01:07.392Z</time></trkpt><trkpt lat="46.0995764" lon="13.1763559"><ele>131.0</ele><time>2026-04-26T18:01:08.393Z</time></trkpt><trkpt lat="46.0994825" lon="13.1765502"><ele>131.0</ele><time>2026-04-26T18:01:09.393Z</time></trkpt><trkpt lat="46.0993939" lon="13.1767333"><ele>131.0</ele><time>2026-04-26T18:01:10.393Z</time></trkpt><trkpt lat="46.0993074" lon="13.1769116"><ele>131.0</ele><time>2026-04-26T18:01:11.394Z</time></trkpt><trkpt lat="46.0992221" lon="13.1770836"><ele>131.0</ele><time>2026-04-26T18:01:12.392Z</time></trkpt><trkpt lat="46.099135" lon="13.1772529"><ele>131.0</ele><time>2026-04-26T18:01:13.393Z</time></trkpt><trkpt lat="46.0990396" lon="13.17741"><ele>131.0</ele><time>2026-04-26T18:01:14.393Z</time></trkpt><trkpt lat="46.0989377" lon="13.1775541"><ele>130.5</ele><time>2026-04-26T18:01:15.394Z</time></trkpt><trkpt lat="46.0988299" lon="13.1776885"><ele>130.0</ele><time>2026-04-26T18:01:16.393Z</time></trkpt><trkpt lat="46.0987168" lon="13.177815"><ele>129.5</ele><time>2026-04-26T18:01:17.394Z</time></trkpt><trkpt lat="46.0986072" lon="13.177929"><ele>129.0</ele><time>2026-04-26T18:01:18.393Z</time></trkpt><trkpt lat="46.0985055" lon="13.1780301"><ele>129.0</ele><time>2026-04-26T18:01:19.393Z</time></trkpt><trkpt lat="46.0984112" lon="13.1781227"><ele>129.0</ele><time>2026-04-26T18:01:20.394Z</time></trkpt><trkpt lat="46.0983317" lon="13.1782064"><ele>129.0</ele><time>2026-04-26T18:01:21.393Z</time></trkpt><trkpt lat="46.0982681" lon="13.178293"><ele>129.0</ele><time>2026-04-26T18:01:22.393Z</time></trkpt><trkpt lat="46.0982191" lon="13.178379"><ele>129.0</ele><time>2026-04-26T18:01:23.393Z</time></trkpt><trkpt lat="46.0981785" lon="13.1784602"><ele>129.0</ele><time>2026-04-26T18:01:24.393Z</time></trkpt><trkpt lat="46.0981341" lon="13.1785367"><ele>128.83333333333334</ele><time>2026-04-26T18:01:25.394Z</time></trkpt><trkpt lat="46.0980862" lon="13.178617"><ele>128.66666666666666</ele><time>2026-04-26T18:01:26.393Z</time></trkpt><trkpt lat="46.0980447" lon="13.178706"><ele>128.5</ele><time>2026-04-26T18:01:27.394Z</time></trkpt><trkpt lat="46.098018" lon="13.1788074"><ele>128.33333333333331</ele><time>2026-04-26T18:01:28.393Z</time></trkpt><trkpt lat="46.0980169" lon="13.1789199"><ele>128.16666666666666</ele><time>2026-04-26T18:01:29.392Z</time></trkpt><trkpt lat="46.0980408" lon="13.1790489"><ele>128.0</ele><time>2026-04-26T18:01:30.394Z</time></trkpt><trkpt lat="46.0980765" lon="13.1791834"><ele>127.80000000000001</ele><time>2026-04-26T18:01:31.394Z</time></trkpt><trkpt lat="46.0980992" lon="13.1793282"><ele>127.60000000000001</ele><time>2026-04-26T18:01:32.393Z</time></trkpt><trkpt lat="46.0981087" lon="13.1794779"><ele>127.39999999999999</ele><time>2026-04-26T18:01:33.393Z</time></trkpt><trkpt lat="46.0981088" lon="13.179631"><ele>127.19999999999999</ele><time>2026-04-26T18:01:34.394Z</time></trkpt><trkpt lat="46.0980949" lon="13.1797836"><ele>127.0</ele><time>2026-04-26T18:01:35.393Z</time></trkpt><trkpt lat="46.0980702" lon="13.1799305"><ele>127.39999999999999</ele><time>2026-04-26T18:01:36.393Z</time></trkpt><trkpt lat="46.0980402" lon="13.1800747"><ele>127.79999999999998</ele><time>2026-04-26T18:01:37.392Z</time></trkpt><trkpt lat="46.0980068" lon="13.180223"><ele>128.2</ele><time>2026-04-26T18:01:38.393Z</time></trkpt><trkpt lat="46.097966" lon="13.1803765"><ele>128.6</ele><time>2026-04-26T18:01:39.393Z</time></trkpt><trkpt lat="46.0979167" lon="13.1805326"><ele>129.0</ele><time>2026-04-26T18:01:40.393Z</time></trkpt><trkpt lat="46.0978622" lon="13.1806947"><ele>129.25</ele><time>2026-04-26T18:01:41.394Z</time></trkpt><trkpt lat="46.0978082" lon="13.1808531"><ele>129.5</ele><time>2026-04-26T18:01:42.393Z</time></trkpt><trkpt lat="46.0977563" lon="13.1810051"><ele>129.75</ele><time>2026-04-26T18:01:43.393Z</time></trkpt><trkpt lat="46.0977064" lon="13.1811509"><ele>130.0</ele><time>2026-04-26T18:01:44.393Z</time></trkpt><trkpt lat="46.0976574" lon="13.1812938"><ele>130.0</ele><time>2026-04-26T18:01:45.393Z</time></trkpt><trkpt lat="46.0976119" lon="13.1814304"><ele>130.0</ele><time>2026-04-26T18:01:46.392Z</time></trkpt><trkpt lat="46.0975663" lon="13.1815632"><ele>130.0</ele><time>2026-04-26T18:01:47.394Z</time></trkpt><trkpt lat="46.0975225" lon="13.1816909"><ele>130.0</ele><time>2026-04-26T18:01:48.393Z</time></trkpt><trkpt lat="46.0974784" lon="13.1818208"><ele>130.0</ele><time>2026-04-26T18:01:49.392Z</time></trkpt><trkpt lat="46.0974329" lon="13.1819539"><ele>129.5</ele><time>2026-04-26T18:01:50.394Z</time></trkpt><trkpt lat="46.0973841" lon="13.1820965"><ele>129.0</ele><time>2026-04-26T18:01:51.393Z</time></trkpt><trkpt lat="46.0973342" lon="13.1822399"><ele>128.5</ele><time>2026-04-26T18:01:52.392Z</time></trkpt><trkpt lat="46.0972798" lon="13.1823898"><ele>128.0</ele><time>2026-04-26T18:01:53.392Z</time></trkpt><trkpt lat="46.0972243" lon="13.1825419"><ele>128.0</ele><time>2026-04-26T18:01:54.393Z</time></trkpt><trkpt lat="46.0971673" lon="13.1826958"><ele>128.0</ele><time>2026-04-26T18:01:55.393Z</time></trkpt><trkpt lat="46.0971105" lon="13.1828511"><ele>128.0</ele><time>2026-04-26T18:01:56.392Z</time></trkpt><trkpt lat="46.0970509" lon="13.1830097"><ele>128.0</ele><time>2026-04-26T18:01:57.393Z</time></trkpt><trkpt lat="46.0969914" lon="13.1831709"><ele>128.25</ele><time>2026-04-26T18:01:58.392Z</time></trkpt><trkpt lat="46.096932" lon="13.1833319"><ele>128.5</ele><time>2026-04-26T18:01:59.393Z</time></trkpt><trkpt lat="46.0968719" lon="13.1834919"><ele>128.75</ele><time>2026-04-26T18:02:00.393Z</time></trkpt><trkpt lat="46.0968104" lon="13.1836512"><ele>129.0</ele><time>2026-04-26T18:02:01.392Z</time></trkpt><trkpt lat="46.0967503" lon="13.1838055"><ele>129.0</ele><time>2026-04-26T18:02:02.392Z</time></trkpt><trkpt lat="46.0966919" lon="13.1839552"><ele>129.0</ele><time>2026-04-26T18:02:03.393Z</time></trkpt><trkpt lat="46.0966327" lon="13.1841026"><ele>129.0</ele><time>2026-04-26T18:02:04.393Z</time></trkpt><trkpt lat="46.0965739" lon="13.1842422"><ele>129.0</ele><time>2026-04-26T18:02:05.393Z</time></trkpt><trkpt lat="46.0965168" lon="13.1843778"><ele>129.4</ele><time>2026-04-26T18:02:06.392Z</time></trkpt><trkpt lat="46.096463" lon="13.184504"><ele>129.8</ele><time>2026-04-26T18:02:07.394Z</time></trkpt><trkpt lat="46.0964127" lon="13.1846286"><ele>130.2</ele><time>2026-04-26T18:02:08.393Z</time></trkpt><trkpt lat="46.0963643" lon="13.1847492"><ele>130.6</ele><time>2026-04-26T18:02:09.393Z</time></trkpt><trkpt lat="46.0963224" lon="13.1848582"><ele>131.0</ele><time>2026-04-26T18:02:10.393Z</time></trkpt><trkpt lat="46.0962874" lon="13.1849596"><ele>131.16666666666666</ele><time>2026-04-26T18:02:11.394Z</time></trkpt><trkpt lat="46.0962591" lon="13.1850549"><ele>131.33333333333331</ele><time>2026-04-26T18:02:12.393Z</time></trkpt><trkpt lat="46.09623" lon="13.1851491"><ele>131.5</ele><time>2026-04-26T18:02:13.393Z</time></trkpt><trkpt lat="46.0961848" lon="13.1852532"><ele>131.66666666666666</ele><time>2026-04-26T18:02:14.393Z</time></trkpt><trkpt lat="46.0961301" lon="13.1853742"><ele>131.83333333333334</ele><time>2026-04-26T18:02:15.393Z</time></trkpt><trkpt lat="46.0960733" lon="13.1854979"><ele>132.0</ele><time>2026-04-26T18:02:16.393Z</time></trkpt><trkpt lat="46.09601" lon="13.1856241"><ele>132.0</ele><time>2026-04-26T18:02:17.393Z</time></trkpt><trkpt lat="46.0959451" lon="13.1857586"><ele>132.0</ele><time>2026-04-26T18:02:18.393Z</time></trkpt><trkpt lat="46.0958798" lon="13.1859005"><ele>132.0</ele><time>2026-04-26T18:02:19.394Z</time></trkpt><trkpt lat="46.0958112" lon="13.1860469"><ele>132.0</ele><time>2026-04-26T18:02:20.393Z</time></trkpt><trkpt lat="46.0957437" lon="13.1861939"><ele>131.25</ele><time>2026-04-26T18:02:21.393Z</time></trkpt><trkpt lat="46.0956751" lon="13.1863465"><ele>130.5</ele><time>2026-04-26T18:02:22.393Z</time></trkpt><trkpt lat="46.095603" lon="13.186512"><ele>129.75</ele><time>2026-04-26T18:02:23.392Z</time></trkpt><trkpt lat="46.0955283" lon="13.1866797"><ele>129.0</ele><time>2026-04-26T18:02:24.394Z</time></trkpt><trkpt lat="46.0954511" lon="13.1868504"><ele>129.0</ele><time>2026-04-26T18:02:25.394Z</time></trkpt><trkpt lat="46.0953734" lon="13.1870244"><ele>129.0</ele><time>2026-04-26T18:02:26.392Z</time></trkpt><trkpt lat="46.0952933" lon="13.1872009"><ele>129.0</ele><time>2026-04-26T18:02:27.393Z</time></trkpt><trkpt lat="46.0952132" lon="13.1873822"><ele>129.0</ele><time>2026-04-26T18:02:28.393Z</time></trkpt><trkpt lat="46.0951315" lon="13.1875675"><ele>128.66666666666666</ele><time>2026-04-26T18:02:29.393Z</time></trkpt><trkpt lat="46.0950469" lon="13.1877531"><ele>128.33333333333331</ele><time>2026-04-26T18:02:30.392Z</time></trkpt><trkpt lat="46.0949661" lon="13.1879373"><ele>128.0</ele><time>2026-04-26T18:02:31.393Z</time></trkpt><trkpt lat="46.0948805" lon="13.1881283"><ele>127.66666666666666</ele><time>2026-04-26T18:02:32.393Z</time></trkpt><trkpt lat="46.0947977" lon="13.1883252"><ele>127.33333333333334</ele><time>2026-04-26T18:02:33.394Z</time></trkpt><trkpt lat="46.0947249" lon="13.1885319"><ele>127.0</ele><time>2026-04-26T18:02:34.392Z</time></trkpt><trkpt lat="46.0946605" lon="13.188754"><ele>127.0</ele><time>2026-04-26T18:02:35.392Z</time></trkpt><trkpt lat="46.0946084" lon="13.1889817"><ele>127.0</ele><time>2026-04-26T18:02:36.394Z</time></trkpt><trkpt lat="46.0945619" lon="13.1892099"><ele>127.0</ele><time>2026-04-26T18:02:37.393Z</time></trkpt><trkpt lat="46.0945225" lon="13.1894335"><ele>125.33333333333334</ele><time>2026-04-26T18:02:38.392Z</time></trkpt><trkpt lat="46.0944876" lon="13.1896522"><ele>123.66666666666666</ele><time>2026-04-26T18:02:39.393Z</time></trkpt><trkpt lat="46.0944478" lon="13.1898607"><ele>122.0</ele><time>2026-04-26T18:02:40.394Z</time></trkpt><trkpt lat="46.094396" lon="13.1900594"><ele>121.33333333333333</ele><time>2026-04-26T18:02:41.393Z</time></trkpt><trkpt lat="46.0943237" lon="13.1902551"><ele>120.66666666666666</ele><time>2026-04-26T18:02:42.393Z</time></trkpt><trkpt lat="46.0942282" lon="13.1904446"><ele>120.0</ele><time>2026-04-26T18:02:43.393Z</time></trkpt><trkpt lat="46.0941106" lon="13.1906245"><ele>119.66666666666666</ele><time>2026-04-26T18:02:44.393Z</time></trkpt><trkpt lat="46.0939836" lon="13.1908036"><ele>119.33333333333333</ele><time>2026-04-26T18:02:45.392Z</time></trkpt><trkpt lat="46.0938593" lon="13.190974"><ele>119.0</ele><time>2026-04-26T18:02:46.392Z</time></trkpt><trkpt lat="46.0937372" lon="13.1911393"><ele>119.0</ele><time>2026-04-26T18:02:47.393Z</time></trkpt><trkpt lat="46.093613" lon="13.1913046"><ele>119.0</ele><time>2026-04-26T18:02:48.394Z</time></trkpt><trkpt lat="46.0934841" lon="13.1914771"><ele>119.0</ele><time>2026-04-26T18:02:49.393Z</time></trkpt><trkpt lat="46.0933523" lon="13.1916516"><ele>118.66666666666666</ele><time>2026-04-26T18:02:50.392Z</time></trkpt><trkpt lat="46.0932182" lon="13.1918347"><ele>118.33333333333334</ele><time>2026-04-26T18:02:51.394Z</time></trkpt><trkpt lat="46.0930853" lon="13.192014"><ele>118.0</ele><time>2026-04-26T18:02:52.393Z</time></trkpt><trkpt lat="46.0929525" lon="13.1921913"><ele>117.33333333333334</ele><time>2026-04-26T18:02:53.392Z</time></trkpt><trkpt lat="46.092823" lon="13.1923656"><ele>116.66666666666666</ele><time>2026-04-26T18:02:54.393Z</time></trkpt><trkpt lat="46.0926957" lon="13.1925352"><ele>116.0</ele><time>2026-04-26T18:02:55.394Z</time></trkpt><trkpt lat="46.0925736" lon="13.1927003"><ele>116.0</ele><time>2026-04-26T18:02:56.392Z</time></trkpt><trkpt lat="46.0924569" lon="13.1928597"><ele>116.0</ele><time>2026-04-26T18:02:57.394Z</time></trkpt><trkpt lat="46.0923399" lon="13.1930182"><ele>116.0</ele><time>2026-04-26T18:02:58.392Z</time></trkpt><trkpt lat="46.0922231" lon="13.1931788"><ele>116.66666666666666</ele><time>2026-04-26T18:02:59.394Z</time></trkpt><trkpt lat="46.0921069" lon="13.1933401"><ele>117.33333333333334</ele><time>2026-04-26T18:03:00.393Z</time></trkpt><trkpt lat="46.091993" lon="13.1934975"><ele>118.0</ele><time>2026-04-26T18:03:01.393Z</time></trkpt><trkpt lat="46.0918809" lon="13.1936507"><ele>118.0</ele><time>2026-04-26T18:03:02.393Z</time></trkpt><trkpt lat="46.0917665" lon="13.1937986"><ele>118.0</ele><time>2026-04-26T18:03:03.392Z</time></trkpt><trkpt lat="46.0916509" lon="13.1939491"><ele>118.0</ele><time>2026-04-26T18:03:04.393Z</time></trkpt><trkpt lat="46.0915348" lon="13.1940959"><ele>117.66666666666667</ele><time>2026-04-26T18:03:05.394Z</time></trkpt><trkpt lat="46.091417" lon="13.1942431"><ele>117.33333333333334</ele><time>2026-04-26T18:03:06.393Z</time></trkpt><trkpt lat="46.0912956" lon="13.1943947"><ele>117.0</ele><time>2026-04-26T18:03:07.393Z</time></trkpt><trkpt lat="46.0911715" lon="13.194542"><ele>117.0</ele><time>2026-04-26T18:03:08.393Z</time></trkpt><trkpt lat="46.091043" lon="13.1946808"><ele>117.0</ele><time>2026-04-26T18:03:09.394Z</time></trkpt><trkpt lat="46.0909105" lon="13.194807"><ele>117.0</ele><time>2026-04-26T18:03:10.392Z</time></trkpt><trkpt lat="46.0907688" lon="13.1949321"><ele>118.0</ele><time>2026-04-26T18:03:11.393Z</time></trkpt><trkpt lat="46.0906331" lon="13.1950492"><ele>119.0</ele><time>2026-04-26T18:03:12.393Z</time></trkpt><trkpt lat="46.0904944" lon="13.1951396"><ele>120.0</ele><time>2026-04-26T18:03:13.392Z</time></trkpt><trkpt lat="46.0903503" lon="13.1952481"><ele>120.0</ele><time>2026-04-26T18:03:14.393Z</time></trkpt><trkpt lat="46.090208" lon="13.1953621"><ele>120.0</ele><time>2026-04-26T18:03:15.394Z</time></trkpt><trkpt lat="46.090064" lon="13.1954675"><ele>120.0</ele><time>2026-04-26T18:03:16.393Z</time></trkpt><trkpt lat="46.0899249" lon="13.1955667"><ele>119.25</ele><time>2026-04-26T18:03:17.393Z</time></trkpt><trkpt lat="46.0897931" lon="13.1956684"><ele>118.5</ele><time>2026-04-26T18:03:18.394Z</time></trkpt><trkpt lat="46.0896647" lon="13.1957676"><ele>117.75</ele><time>2026-04-26T18:03:19.393Z</time></trkpt><trkpt lat="46.0895423" lon="13.1958653"><ele>117.0</ele><time>2026-04-26T18:03:20.393Z</time></trkpt><trkpt lat="46.0894252" lon="13.1959574"><ele>117.0</ele><time>2026-04-26T18:03:21.393Z</time></trkpt><trkpt lat="46.0893137" lon="13.1960384"><ele>116.99999999999999</ele><time>2026-04-26T18:03:22.393Z</time></trkpt><trkpt lat="46.0892078" lon="13.1961147"><ele>116.99999999999999</ele><time>2026-04-26T18:03:23.393Z</time></trkpt><trkpt lat="46.0891131" lon="13.1961867"><ele>117.0</ele><time>2026-04-26T18:03:24.394Z</time></trkpt><trkpt lat="46.089033" lon="13.1962503"><ele>117.0</ele><time>2026-04-26T18:03:25.393Z</time></trkpt><trkpt lat="46.088957" lon="13.1962948"><ele>117.0</ele><time>2026-04-26T18:03:26.394Z</time></trkpt><trkpt lat="46.0888879" lon="13.1963124"><ele>116.99999999999999</ele><time>2026-04-26T18:03:27.392Z</time></trkpt><trkpt lat="46.0888169" lon="13.19631"><ele>116.99999999999999</ele><time>2026-04-26T18:03:28.392Z</time></trkpt><trkpt lat="46.0887086" lon="13.1963891"><ele>117.0</ele><time>2026-04-26T18:03:30.393Z</time></trkpt><trkpt lat="46.0886931" lon="13.1965602"><ele>117.0</ele><time>2026-04-26T18:03:32.393Z</time></trkpt><trkpt lat="46.0887234" lon="13.196662"><ele>117.0</ele><time>2026-04-26T18:03:33.394Z</time></trkpt><trkpt lat="46.0887412" lon="13.1967869"><ele>116.99999999999999</ele><time>2026-04-26T18:03:34.393Z</time></trkpt><trkpt lat="46.0887319" lon="13.1969154"><ele>116.99999999999999</ele><time>2026-04-26T18:03:35.393Z</time></trkpt><trkpt lat="46.0887091" lon="13.197058"><ele>117.0</ele><time>2026-04-26T18:03:36.392Z</time></trkpt><trkpt lat="46.0886901" lon="13.197227"><ele>117.0</ele><time>2026-04-26T18:03:37.394Z</time></trkpt><trkpt lat="46.0886793" lon="13.1974034"><ele>117.75</ele><time>2026-04-26T18:03:38.393Z</time></trkpt><trkpt lat="46.0886695" lon="13.1975791"><ele>118.5</ele><time>2026-04-26T18:03:39.394Z</time></trkpt><trkpt lat="46.0886615" lon="13.1977592"><ele>119.25</ele><time>2026-04-26T18:03:40.393Z</time></trkpt><trkpt lat="46.0886531" lon="13.1979349"><ele>120.0</ele><time>2026-04-26T18:03:41.394Z</time></trkpt><trkpt lat="46.0886452" lon="13.1981099"><ele>120.25</ele><time>2026-04-26T18:03:42.393Z</time></trkpt><trkpt lat="46.0886383" lon="13.1982824"><ele>120.5</ele><time>2026-04-26T18:03:43.394Z</time></trkpt><trkpt lat="46.0886324" lon="13.1984529"><ele>120.75</ele><time>2026-04-26T18:03:44.393Z</time></trkpt><trkpt lat="46.0886264" lon="13.1986238"><ele>121.0</ele><time>2026-04-26T18:03:45.394Z</time></trkpt><trkpt lat="46.0886201" lon="13.1987973"><ele>121.0</ele><time>2026-04-26T18:03:46.393Z</time></trkpt><trkpt lat="46.0886149" lon="13.1989695"><ele>121.0</ele><time>2026-04-26T18:03:47.393Z</time></trkpt><trkpt lat="46.0886111" lon="13.1991408"><ele>121.0</ele><time>2026-04-26T18:03:48.392Z</time></trkpt><trkpt lat="46.088605" lon="13.1993126"><ele>121.0</ele><time>2026-04-26T18:03:49.392Z</time></trkpt><trkpt lat="46.0885976" lon="13.1994861"><ele>121.19999999999999</ele><time>2026-04-26T18:03:50.391Z</time></trkpt><trkpt lat="46.0885889" lon="13.1996537"><ele>121.39999999999999</ele><time>2026-04-26T18:03:51.391Z</time></trkpt><trkpt lat="46.0885817" lon="13.1998142"><ele>121.6</ele><time>2026-04-26T18:03:52.393Z</time></trkpt><trkpt lat="46.088575" lon="13.199968"><ele>121.8</ele><time>2026-04-26T18:03:53.392Z</time></trkpt><trkpt lat="46.0885688" lon="13.2001143"><ele>122.0</ele><time>2026-04-26T18:03:54.392Z</time></trkpt><trkpt lat="46.0885636" lon="13.2002536"><ele>121.66666666666666</ele><time>2026-04-26T18:03:55.391Z</time></trkpt><trkpt lat="46.0885561" lon="13.2003872"><ele>121.33333333333333</ele><time>2026-04-26T18:03:56.392Z</time></trkpt><trkpt lat="46.0885464" lon="13.2005118"><ele>121.0</ele><time>2026-04-26T18:03:57.391Z</time></trkpt><trkpt lat="46.0885319" lon="13.2006264"><ele>120.66666666666666</ele><time>2026-04-26T18:03:58.392Z</time></trkpt><trkpt lat="46.0885162" lon="13.2007308"><ele>120.33333333333333</ele><time>2026-04-26T18:03:59.392Z</time></trkpt><trkpt lat="46.0884988" lon="13.2008219"><ele>120.0</ele><time>2026-04-26T18:04:00.392Z</time></trkpt><trkpt lat="46.0884708" lon="13.200906"><ele>120.0</ele><time>2026-04-26T18:04:01.393Z</time></trkpt><trkpt lat="46.0884322" lon="13.2010561"><ele>120.0</ele><time>2026-04-26T18:04:03.392Z</time></trkpt><trkpt lat="46.0884826" lon="13.201187"><ele>120.0</ele><time>2026-04-26T18:04:05.393Z</time></trkpt><trkpt lat="46.0885157" lon="13.2013708"><ele>120.0</ele><time>2026-04-26T18:04:07.392Z</time></trkpt><trkpt lat="46.0885117" lon="13.2014903"><ele>120.0</ele><time>2026-04-26T18:04:08.392Z</time></trkpt><trkpt lat="46.0885117" lon="13.2016266"><ele>120.0</ele><time>2026-04-26T18:04:09.391Z</time></trkpt><trkpt lat="46.0885088" lon="13.2017751"><ele>120.0</ele><time>2026-04-26T18:04:10.392Z</time></trkpt><trkpt lat="46.0885087" lon="13.2019231"><ele>120.0</ele><time>2026-04-26T18:04:11.392Z</time></trkpt><trkpt lat="46.0885031" lon="13.2020723"><ele>120.0</ele><time>2026-04-26T18:04:12.392Z</time></trkpt><trkpt lat="46.0884963" lon="13.2022204"><ele>120.0</ele><time>2026-04-26T18:04:13.393Z</time></trkpt><trkpt lat="46.0884851" lon="13.2023831"><ele>119.75</ele><time>2026-04-26T18:04:14.392Z</time></trkpt><trkpt lat="46.0884692" lon="13.2025606"><ele>119.5</ele><time>2026-04-26T18:04:15.392Z</time></trkpt><trkpt lat="46.0884633" lon="13.2027478"><ele>119.25</ele><time>2026-04-26T18:04:16.391Z</time></trkpt><trkpt lat="46.0884569" lon="13.202934"><ele>119.0</ele><time>2026-04-26T18:04:17.392Z</time></trkpt><trkpt lat="46.0884511" lon="13.2031091"><ele>119.25</ele><time>2026-04-26T18:04:18.392Z</time></trkpt><trkpt lat="46.0884421" lon="13.2032838"><ele>119.5</ele><time>2026-04-26T18:04:19.392Z</time></trkpt><trkpt lat="46.0884321" lon="13.2034607"><ele>119.75</ele><time>2026-04-26T18:04:20.393Z</time></trkpt><trkpt lat="46.0884229" lon="13.2036305"><ele>120.0</ele><time>2026-04-26T18:04:21.391Z</time></trkpt><trkpt lat="46.0884167" lon="13.2038018"><ele>120.0</ele><time>2026-04-26T18:04:22.392Z</time></trkpt><trkpt lat="46.0884142" lon="13.2039815"><ele>120.0</ele><time>2026-04-26T18:04:23.393Z</time></trkpt><trkpt lat="46.0884094" lon="13.2041607"><ele>120.0</ele><time>2026-04-26T18:04:24.392Z</time></trkpt><trkpt lat="46.0884014" lon="13.2043362"><ele>120.0</ele><time>2026-04-26T18:04:25.393Z</time></trkpt><trkpt lat="46.0883976" lon="13.2045267"><ele>120.25</ele><time>2026-04-26T18:04:26.391Z</time></trkpt><trkpt lat="46.0883917" lon="13.2047172"><ele>120.5</ele><time>2026-04-26T18:04:27.392Z</time></trkpt><trkpt lat="46.0883878" lon="13.204904"><ele>120.75</ele><time>2026-04-26T18:04:28.391Z</time></trkpt><trkpt lat="46.0883802" lon="13.2050873"><ele>121.0</ele><time>2026-04-26T18:04:29.391Z</time></trkpt><trkpt lat="46.0883707" lon="13.2052678"><ele>121.0</ele><time>2026-04-26T18:04:30.391Z</time></trkpt><trkpt lat="46.0883635" lon="13.2054413"><ele>121.0</ele><time>2026-04-26T18:04:31.391Z</time></trkpt><trkpt lat="46.0883572" lon="13.2056016"><ele>121.0</ele><time>2026-04-26T18:04:32.393Z</time></trkpt><trkpt lat="46.0883502" lon="13.2057565"><ele>121.0</ele><time>2026-04-26T18:04:33.392Z</time></trkpt><trkpt lat="46.0883463" lon="13.2059231"><ele>121.0</ele><time>2026-04-26T18:04:34.391Z</time></trkpt><trkpt lat="46.0883403" lon="13.2061013"><ele>121.0</ele><time>2026-04-26T18:04:35.391Z</time></trkpt><trkpt lat="46.088332" lon="13.2062627"><ele>121.0</ele><time>2026-04-26T18:04:36.392Z</time></trkpt><trkpt lat="46.0883273" lon="13.2064187"><ele>121.0</ele><time>2026-04-26T18:04:37.392Z</time></trkpt><trkpt lat="46.0883244" lon="13.206568"><ele>121.0</ele><time>2026-04-26T18:04:38.392Z</time></trkpt><trkpt lat="46.0883216" lon="13.2067061"><ele>121.0</ele><time>2026-04-26T18:04:39.392Z</time></trkpt><trkpt lat="46.0883177" lon="13.2068446"><ele>121.0</ele><time>2026-04-26T18:04:40.392Z</time></trkpt><trkpt lat="46.0883149" lon="13.2069926"><ele>121.0</ele><time>2026-04-26T18:04:41.392Z</time></trkpt><trkpt lat="46.0883106" lon="13.2071507"><ele>121.0</ele><time>2026-04-26T18:04:42.392Z</time></trkpt><trkpt lat="46.0883038" lon="13.2073128"><ele>121.0</ele><time>2026-04-26T18:04:43.392Z</time></trkpt><trkpt lat="46.0882962" lon="13.2074748"><ele>121.0</ele><time>2026-04-26T18:04:44.392Z</time></trkpt><trkpt lat="46.088291" lon="13.2076341"><ele>121.0</ele><time>2026-04-26T18:04:45.392Z</time></trkpt><trkpt lat="46.0882862" lon="13.2077913"><ele>121.0</ele><time>2026-04-26T18:04:46.392Z</time></trkpt><trkpt lat="46.0882816" lon="13.2079509"><ele>121.0</ele><time>2026-04-26T18:04:47.393Z</time></trkpt><trkpt lat="46.0882764" lon="13.2081133"><ele>121.0</ele><time>2026-04-26T18:04:48.392Z</time></trkpt><trkpt lat="46.0882725" lon="13.2082763"><ele>121.0</ele><time>2026-04-26T18:04:49.392Z</time></trkpt><trkpt lat="46.0882681" lon="13.2084374"><ele>121.0</ele><time>2026-04-26T18:04:50.392Z</time></trkpt><trkpt lat="46.0882638" lon="13.2085955"><ele>121.0</ele><time>2026-04-26T18:04:51.391Z</time></trkpt><trkpt lat="46.0882591" lon="13.2087551"><ele>121.0</ele><time>2026-04-26T18:04:52.392Z</time></trkpt><trkpt lat="46.0882561" lon="13.2089171"><ele>121.0</ele><time>2026-04-26T18:04:53.392Z</time></trkpt><trkpt lat="46.0882524" lon="13.2090849"><ele>120.0</ele><time>2026-04-26T18:04:54.392Z</time></trkpt><trkpt lat="46.0882474" lon="13.2092621"><ele>119.0</ele><time>2026-04-26T18:04:55.392Z</time></trkpt><trkpt lat="46.0882391" lon="13.2094419"><ele>118.0</ele><time>2026-04-26T18:04:56.392Z</time></trkpt><trkpt lat="46.0882333" lon="13.209624"><ele>117.0</ele><time>2026-04-26T18:04:57.392Z</time></trkpt><trkpt lat="46.0882263" lon="13.2098099"><ele>117.25</ele><time>2026-04-26T18:04:58.393Z</time></trkpt><trkpt lat="46.08822" lon="13.2099997"><ele>117.5</ele><time>2026-04-26T18:04:59.392Z</time></trkpt><trkpt lat="46.088215" lon="13.2101896"><ele>117.75</ele><time>2026-04-26T18:05:00.392Z</time></trkpt><trkpt lat="46.0882103" lon="13.210377"><ele>118.0</ele><time>2026-04-26T18:05:01.392Z</time></trkpt><trkpt lat="46.0882055" lon="13.2105637"><ele>118.75</ele><time>2026-04-26T18:05:02.392Z</time></trkpt><trkpt lat="46.0882017" lon="13.2107514"><ele>119.5</ele><time>2026-04-26T18:05:03.392Z</time></trkpt><trkpt lat="46.0881965" lon="13.2109288"><ele>120.25</ele><time>2026-04-26T18:05:04.392Z</time></trkpt><trkpt lat="46.0881902" lon="13.2110985"><ele>121.0</ele><time>2026-04-26T18:05:05.391Z</time></trkpt><trkpt lat="46.0881854" lon="13.2112586"><ele>121.0</ele><time>2026-04-26T18:05:06.392Z</time></trkpt><trkpt lat="46.0881797" lon="13.2114093"><ele>121.0</ele><time>2026-04-26T18:05:07.392Z</time></trkpt><trkpt lat="46.0881742" lon="13.2115433"><ele>121.0</ele><time>2026-04-26T18:05:08.392Z</time></trkpt><trkpt lat="46.0881689" lon="13.2116574"><ele>121.0</ele><time>2026-04-26T18:05:09.392Z</time></trkpt><trkpt lat="46.0881591" lon="13.2117606"><ele>121.0</ele><time>2026-04-26T18:05:10.392Z</time></trkpt><trkpt lat="46.0881317" lon="13.2119205"><ele>121.0</ele><time>2026-04-26T18:05:12.392Z</time></trkpt><trkpt lat="46.08808" lon="13.2120983"><ele>121.0</ele><time>2026-04-26T18:05:14.392Z</time></trkpt><trkpt lat="46.0880351" lon="13.2122105"><ele>121.0</ele><time>2026-04-26T18:05:15.392Z</time></trkpt><trkpt lat="46.0879791" lon="13.2123379"><ele>121.0</ele><time>2026-04-26T18:05:16.392Z</time></trkpt><trkpt lat="46.0879148" lon="13.2124802"><ele>121.0</ele><time>2026-04-26T18:05:17.391Z</time></trkpt><trkpt lat="46.0878479" lon="13.2126273"><ele>121.0</ele><time>2026-04-26T18:05:18.391Z</time></trkpt><trkpt lat="46.0877785" lon="13.2127762"><ele>121.0</ele><time>2026-04-26T18:05:19.391Z</time></trkpt><trkpt lat="46.0877036" lon="13.2129305"><ele>121.0</ele><time>2026-04-26T18:05:20.393Z</time></trkpt><trkpt lat="46.087628" lon="13.2130843"><ele>121.0</ele><time>2026-04-26T18:05:21.392Z</time></trkpt><trkpt lat="46.0875503" lon="13.2132329"><ele>121.5</ele><time>2026-04-26T18:05:22.392Z</time></trkpt><trkpt lat="46.0874729" lon="13.2133914"><ele>122.0</ele><time>2026-04-26T18:05:23.392Z</time></trkpt><trkpt lat="46.0873931" lon="13.2135565"><ele>122.5</ele><time>2026-04-26T18:05:24.393Z</time></trkpt><trkpt lat="46.0873127" lon="13.2137185"><ele>123.0</ele><time>2026-04-26T18:05:25.391Z</time></trkpt><trkpt lat="46.0872329" lon="13.2138807"><ele>122.0</ele><time>2026-04-26T18:05:26.392Z</time></trkpt><trkpt lat="46.0871559" lon="13.2140387"><ele>121.0</ele><time>2026-04-26T18:05:27.392Z</time></trkpt><trkpt lat="46.0870832" lon="13.2141908"><ele>120.0</ele><time>2026-04-26T18:05:28.391Z</time></trkpt><trkpt lat="46.0870146" lon="13.2143359"><ele>119.0</ele><time>2026-04-26T18:05:29.391Z</time></trkpt><trkpt lat="46.0869502" lon="13.2144768"><ele>118.99999999999999</ele><time>2026-04-26T18:05:30.392Z</time></trkpt><trkpt lat="46.0868914" lon="13.2146015"><ele>119.0</ele><time>2026-04-26T18:05:31.393Z</time></trkpt><trkpt lat="46.0868356" lon="13.2147155"><ele>119.0</ele><time>2026-04-26T18:05:32.392Z</time></trkpt><trkpt lat="46.086785" lon="13.2148107"><ele>119.0</ele><time>2026-04-26T18:05:33.392Z</time></trkpt><trkpt lat="46.0867295" lon="13.214889"><ele>118.99999999999999</ele><time>2026-04-26T18:05:34.392Z</time></trkpt><trkpt lat="46.0866694" lon="13.2149428"><ele>119.0</ele><time>2026-04-26T18:05:35.392Z</time></trkpt><trkpt lat="46.0866088" lon="13.214971"><ele>118.85714285714286</ele><time>2026-04-26T18:05:36.392Z</time></trkpt><trkpt lat="46.0865433" lon="13.2149634"><ele>118.71428571428572</ele><time>2026-04-26T18:05:37.391Z</time></trkpt><trkpt lat="46.0864701" lon="13.2149423"><ele>118.57142857142857</ele><time>2026-04-26T18:05:38.392Z</time></trkpt><trkpt lat="46.0863948" lon="13.2149392"><ele>118.42857142857143</ele><time>2026-04-26T18:05:39.392Z</time></trkpt><trkpt lat="46.0863266" lon="13.2149701"><ele>118.28571428571429</ele><time>2026-04-26T18:05:40.391Z</time></trkpt><trkpt lat="46.0862687" lon="13.2150279"><ele>118.14285714285714</ele><time>2026-04-26T18:05:41.391Z</time></trkpt><trkpt lat="46.086228" lon="13.2151126"><ele>118.0</ele><time>2026-04-26T18:05:42.391Z</time></trkpt><trkpt lat="46.0862155" lon="13.2152109"><ele>118.0</ele><time>2026-04-26T18:05:43.393Z</time></trkpt><trkpt lat="46.086231" lon="13.215308"><ele>118.0</ele><time>2026-04-26T18:05:44.391Z</time></trkpt><trkpt lat="46.0862713" lon="13.2153984"><ele>118.0</ele><time>2026-04-26T18:05:45.391Z</time></trkpt><trkpt lat="46.0863166" lon="13.2154796"><ele>118.0</ele><time>2026-04-26T18:05:46.392Z</time></trkpt><trkpt lat="46.0863365" lon="13.215582"><ele>118.0</ele><time>2026-04-26T18:05:47.392Z</time></trkpt><trkpt lat="46.0863284" lon="13.2156875"><ele>118.0</ele><time>2026-04-26T18:05:48.392Z</time></trkpt><trkpt lat="46.0862954" lon="13.2157881"><ele>118.0</ele><time>2026-04-26T18:05:49.391Z</time></trkpt><trkpt lat="46.0862514" lon="13.2158879"><ele>118.60000000000001</ele><time>2026-04-26T18:05:50.392Z</time></trkpt><trkpt lat="46.0862058" lon="13.2159881"><ele>119.20000000000002</ele><time>2026-04-26T18:05:51.391Z</time></trkpt><trkpt lat="46.086157" lon="13.2160941"><ele>119.8</ele><time>2026-04-26T18:05:52.393Z</time></trkpt><trkpt lat="46.0861042" lon="13.2162048"><ele>120.4</ele><time>2026-04-26T18:05:53.392Z</time></trkpt><trkpt lat="46.0860488" lon="13.2163211"><ele>121.0</ele><time>2026-04-26T18:05:54.392Z</time></trkpt><trkpt lat="46.085995" lon="13.2164371"><ele>121.0</ele><time>2026-04-26T18:05:55.393Z</time></trkpt><trkpt lat="46.0859411" lon="13.216548"><ele>121.0</ele><time>2026-04-26T18:05:56.392Z</time></trkpt><trkpt lat="46.0858857" lon="13.2166671"><ele>121.0</ele><time>2026-04-26T18:05:57.393Z</time></trkpt><trkpt lat="46.0858258" lon="13.2167854"><ele>121.0</ele><time>2026-04-26T18:05:58.392Z</time></trkpt><trkpt lat="46.0857643" lon="13.2169052"><ele>121.0</ele><time>2026-04-26T18:05:59.391Z</time></trkpt><trkpt lat="46.0857025" lon="13.2170331"><ele>120.6</ele><time>2026-04-26T18:06:00.393Z</time></trkpt><trkpt lat="46.0856412" lon="13.2171591"><ele>120.19999999999999</ele><time>2026-04-26T18:06:01.392Z</time></trkpt><trkpt lat="46.0855799" lon="13.2172889"><ele>119.80000000000001</ele><time>2026-04-26T18:06:02.393Z</time></trkpt><trkpt lat="46.0855178" lon="13.2174203"><ele>119.4</ele><time>2026-04-26T18:06:03.392Z</time></trkpt><trkpt lat="46.0854576" lon="13.2175458"><ele>119.0</ele><time>2026-04-26T18:06:04.391Z</time></trkpt><trkpt lat="46.0853983" lon="13.2176705"><ele>118.99999999999999</ele><time>2026-04-26T18:06:05.392Z</time></trkpt><trkpt lat="46.0853447" lon="13.2177861"><ele>119.0</ele><time>2026-04-26T18:06:06.392Z</time></trkpt><trkpt lat="46.0853021" lon="13.217875"><ele>119.0</ele><time>2026-04-26T18:06:07.392Z</time></trkpt><trkpt lat="46.0852621" lon="13.2179541"><ele>119.0</ele><time>2026-04-26T18:06:08.392Z</time></trkpt><trkpt lat="46.085223" lon="13.2180365"><ele>118.99999999999999</ele><time>2026-04-26T18:06:09.392Z</time></trkpt><trkpt lat="46.0851783" lon="13.2181293"><ele>119.0</ele><time>2026-04-26T18:06:10.393Z</time></trkpt><trkpt lat="46.0851238" lon="13.2182383"><ele>119.0</ele><time>2026-04-26T18:06:11.392Z</time></trkpt><trkpt lat="46.0850617" lon="13.2183629"><ele>119.0</ele><time>2026-04-26T18:06:12.393Z</time></trkpt><trkpt lat="46.0849948" lon="13.2184991"><ele>119.0</ele><time>2026-04-26T18:06:13.392Z</time></trkpt><trkpt lat="46.0849229" lon="13.2186414"><ele>119.0</ele><time>2026-04-26T18:06:14.392Z</time></trkpt><trkpt lat="46.0848549" lon="13.2187789"><ele>119.25</ele><time>2026-04-26T18:06:15.392Z</time></trkpt><trkpt lat="46.0847831" lon="13.2189137"><ele>119.5</ele><time>2026-04-26T18:06:16.392Z</time></trkpt><trkpt lat="46.0847095" lon="13.2190512"><ele>119.75</ele><time>2026-04-26T18:06:17.393Z</time></trkpt><trkpt lat="46.0846363" lon="13.2191916"><ele>120.0</ele><time>2026-04-26T18:06:18.391Z</time></trkpt><trkpt lat="46.0845607" lon="13.2193337"><ele>120.0</ele><time>2026-04-26T18:06:19.392Z</time></trkpt><trkpt lat="46.0844812" lon="13.2194871"><ele>120.0</ele><time>2026-04-26T18:06:20.392Z</time></trkpt><trkpt lat="46.0843947" lon="13.2196434"><ele>120.0</ele><time>2026-04-26T18:06:21.393Z</time></trkpt><trkpt lat="46.084309" lon="13.2197969"><ele>120.0</ele><time>2026-04-26T18:06:22.392Z</time></trkpt><trkpt lat="46.0842271" lon="13.2199579"><ele>120.25</ele><time>2026-04-26T18:06:23.393Z</time></trkpt><trkpt lat="46.0841483" lon="13.2201071"><ele>120.5</ele><time>2026-04-26T18:06:24.391Z</time></trkpt><trkpt lat="46.0840686" lon="13.2202578"><ele>120.75</ele><time>2026-04-26T18:06:25.391Z</time></trkpt><trkpt lat="46.0839906" lon="13.2204065"><ele>121.0</ele><time>2026-04-26T18:06:26.393Z</time></trkpt><trkpt lat="46.0839121" lon="13.2205562"><ele>120.75</ele><time>2026-04-26T18:06:27.393Z</time></trkpt><trkpt lat="46.0838311" lon="13.2207047"><ele>120.5</ele><time>2026-04-26T18:06:28.391Z</time></trkpt><trkpt lat="46.0837534" lon="13.2208517"><ele>120.25</ele><time>2026-04-26T18:06:29.391Z</time></trkpt><trkpt lat="46.08368" lon="13.2209932"><ele>120.0</ele><time>2026-04-26T18:06:30.392Z</time></trkpt><trkpt lat="46.0836074" lon="13.221131"><ele>120.0</ele><time>2026-04-26T18:06:31.392Z</time></trkpt><trkpt lat="46.083533" lon="13.2212747"><ele>120.0</ele><time>2026-04-26T18:06:32.392Z</time></trkpt><trkpt lat="46.0834584" lon="13.2214247"><ele>120.0</ele><time>2026-04-26T18:06:33.392Z</time></trkpt><trkpt lat="46.0833795" lon="13.2215789"><ele>120.0</ele><time>2026-04-26T18:06:34.392Z</time></trkpt><trkpt lat="46.0833013" lon="13.2217291"><ele>120.0</ele><time>2026-04-26T18:06:35.392Z</time></trkpt><trkpt lat="46.0832259" lon="13.2218722"><ele>120.0</ele><time>2026-04-26T18:06:36.392Z</time></trkpt><trkpt lat="46.0831539" lon="13.2220093"><ele>120.0</ele><time>2026-04-26T18:06:37.393Z</time></trkpt><trkpt lat="46.0830849" lon="13.2221331"><ele>120.0</ele><time>2026-04-26T18:06:38.391Z</time></trkpt><trkpt lat="46.0830223" lon="13.2222482"><ele>120.0</ele><time>2026-04-26T18:06:39.392Z</time></trkpt><trkpt lat="46.0829664" lon="13.2223539"><ele>120.0</ele><time>2026-04-26T18:06:40.391Z</time></trkpt><trkpt lat="46.0829084" lon="13.2224392"><ele>120.0</ele><time>2026-04-26T18:06:41.391Z</time></trkpt><trkpt lat="46.0828407" lon="13.2224944"><ele>120.0</ele><time>2026-04-26T18:06:42.391Z</time></trkpt><trkpt lat="46.0827659" lon="13.2225247"><ele>120.0</ele><time>2026-04-26T18:06:43.392Z</time></trkpt><trkpt lat="46.0826863" lon="13.2225497"><ele>120.0</ele><time>2026-04-26T18:06:44.393Z</time></trkpt><trkpt lat="46.0826018" lon="13.2225762"><ele>120.0</ele><time>2026-04-26T18:06:45.392Z</time></trkpt><trkpt lat="46.0825195" lon="13.2226073"><ele>120.0</ele><time>2026-04-26T18:06:46.391Z</time></trkpt><trkpt lat="46.0824365" lon="13.2226345"><ele>120.0</ele><time>2026-04-26T18:06:47.391Z</time></trkpt><trkpt lat="46.0823603" lon="13.2226758"><ele>120.0</ele><time>2026-04-26T18:06:48.392Z</time></trkpt><trkpt lat="46.0822937" lon="13.2227409"><ele>120.0</ele><time>2026-04-26T18:06:49.392Z</time></trkpt><trkpt lat="46.0822379" lon="13.2228244"><ele>120.0</ele><time>2026-04-26T18:06:50.392Z</time></trkpt><trkpt lat="46.0822014" lon="13.2229246"><ele>120.0</ele><time>2026-04-26T18:06:51.391Z</time></trkpt><trkpt lat="46.0821883" lon="13.223036"><ele>120.0</ele><time>2026-04-26T18:06:52.392Z</time></trkpt><trkpt lat="46.0822006" lon="13.2231536"><ele>120.0</ele><time>2026-04-26T18:06:53.392Z</time></trkpt><trkpt lat="46.0822301" lon="13.2232628"><ele>120.0</ele><time>2026-04-26T18:06:54.393Z</time></trkpt><trkpt lat="46.0822718" lon="13.2233728"><ele>120.0</ele><time>2026-04-26T18:06:55.391Z</time></trkpt><trkpt lat="46.082315" lon="13.2234908"><ele>120.0</ele><time>2026-04-26T18:06:56.391Z</time></trkpt><trkpt lat="46.0823582" lon="13.2236068"><ele>119.8</ele><time>2026-04-26T18:06:57.393Z</time></trkpt><trkpt lat="46.0823998" lon="13.223718"><ele>119.6</ele><time>2026-04-26T18:06:58.391Z</time></trkpt><trkpt lat="46.0824394" lon="13.2238305"><ele>119.4</ele><time>2026-04-26T18:06:59.393Z</time></trkpt><trkpt lat="46.0824732" lon="13.22395"><ele>119.2</ele><time>2026-04-26T18:07:00.392Z</time></trkpt><trkpt lat="46.0824935" lon="13.2240843"><ele>119.0</ele><time>2026-04-26T18:07:01.393Z</time></trkpt><trkpt lat="46.0824956" lon="13.224228"><ele>118.80000000000001</ele><time>2026-04-26T18:07:02.392Z</time></trkpt><trkpt lat="46.0824901" lon="13.2243733"><ele>118.60000000000001</ele><time>2026-04-26T18:07:03.393Z</time></trkpt><trkpt lat="46.0824806" lon="13.2245121"><ele>118.4</ele><time>2026-04-26T18:07:04.391Z</time></trkpt><trkpt lat="46.0824683" lon="13.2246522"><ele>118.2</ele><time>2026-04-26T18:07:05.393Z</time></trkpt><trkpt lat="46.0824511" lon="13.2247877"><ele>118.0</ele><time>2026-04-26T18:07:06.392Z</time></trkpt><trkpt lat="46.0824254" lon="13.224912"><ele>118.0</ele><time>2026-04-26T18:07:07.392Z</time></trkpt><trkpt lat="46.082394" lon="13.2250267"><ele>118.0</ele><time>2026-04-26T18:07:08.392Z</time></trkpt><trkpt lat="46.0823633" lon="13.2251335"><ele>118.0</ele><time>2026-04-26T18:07:09.393Z</time></trkpt><trkpt lat="46.0823287" lon="13.2252253"><ele>118.0</ele><time>2026-04-26T18:07:10.391Z</time></trkpt><trkpt lat="46.0822878" lon="13.2253051"><ele>118.0</ele><time>2026-04-26T18:07:11.392Z</time></trkpt><trkpt lat="46.082236" lon="13.2253606"><ele>118.0</ele><time>2026-04-26T18:07:12.392Z</time></trkpt><trkpt lat="46.0821934" lon="13.2254295"><ele>118.0</ele><time>2026-04-26T18:07:13.392Z</time></trkpt><trkpt lat="46.0821755" lon="13.2255205"><ele>118.00000000000001</ele><time>2026-04-26T18:07:14.392Z</time></trkpt><trkpt lat="46.0821763" lon="13.2256232"><ele>118.0</ele><time>2026-04-26T18:07:15.392Z</time></trkpt><trkpt lat="46.0821608" lon="13.225729"><ele>118.0</ele><time>2026-04-26T18:07:16.393Z</time></trkpt><trkpt lat="46.0821385" lon="13.2258324"><ele>118.0</ele><time>2026-04-26T18:07:17.392Z</time></trkpt><trkpt lat="46.0821128" lon="13.2259391"><ele>118.00000000000001</ele><time>2026-04-26T18:07:18.391Z</time></trkpt><trkpt lat="46.0820862" lon="13.226049"><ele>118.0</ele><time>2026-04-26T18:07:19.392Z</time></trkpt><trkpt lat="46.0820564" lon="13.2261579"><ele>118.66666666666667</ele><time>2026-04-26T18:07:20.391Z</time></trkpt><trkpt lat="46.082022" lon="13.2262641"><ele>119.33333333333334</ele><time>2026-04-26T18:07:21.392Z</time></trkpt><trkpt lat="46.0819805" lon="13.2263694"><ele>120.0</ele><time>2026-04-26T18:07:22.392Z</time></trkpt><trkpt lat="46.0819372" lon="13.2264759"><ele>120.66666666666666</ele><time>2026-04-26T18:07:23.393Z</time></trkpt><trkpt lat="46.0818942" lon="13.2265867"><ele>121.33333333333333</ele><time>2026-04-26T18:07:24.392Z</time></trkpt><trkpt lat="46.0818459" lon="13.2267015"><ele>122.0</ele><time>2026-04-26T18:07:25.392Z</time></trkpt><trkpt lat="46.0817963" lon="13.2268227"><ele>122.0</ele><time>2026-04-26T18:07:26.393Z</time></trkpt><trkpt lat="46.0817461" lon="13.2269415"><ele>121.99999999999999</ele><time>2026-04-26T18:07:27.391Z</time></trkpt><trkpt lat="46.0816926" lon="13.2270705"><ele>121.99999999999999</ele><time>2026-04-26T18:07:28.392Z</time></trkpt><trkpt lat="46.0816348" lon="13.2272086"><ele>122.0</ele><time>2026-04-26T18:07:29.392Z</time></trkpt><trkpt lat="46.0815704" lon="13.2273564"><ele>122.0</ele><time>2026-04-26T18:07:30.392Z</time></trkpt><trkpt lat="46.0815076" lon="13.2275007"><ele>121.5</ele><time>2026-04-26T18:07:31.392Z</time></trkpt><trkpt lat="46.0814417" lon="13.2276473"><ele>121.0</ele><time>2026-04-26T18:07:32.392Z</time></trkpt><trkpt lat="46.0813776" lon="13.2277913"><ele>120.5</ele><time>2026-04-26T18:07:33.392Z</time></trkpt><trkpt lat="46.0813167" lon="13.2279323"><ele>120.0</ele><time>2026-04-26T18:07:34.392Z</time></trkpt><trkpt lat="46.0812587" lon="13.2280646"><ele>119.8</ele><time>2026-04-26T18:07:35.392Z</time></trkpt><trkpt lat="46.0812026" lon="13.2281949"><ele>119.6</ele><time>2026-04-26T18:07:36.392Z</time></trkpt><trkpt lat="46.0811449" lon="13.2283185"><ele>119.4</ele><time>2026-04-26T18:07:37.392Z</time></trkpt><trkpt lat="46.081093" lon="13.2284411"><ele>119.2</ele><time>2026-04-26T18:07:38.391Z</time></trkpt><trkpt lat="46.0810396" lon="13.2285654"><ele>119.0</ele><time>2026-04-26T18:07:39.392Z</time></trkpt><trkpt lat="46.0809862" lon="13.2286827"><ele>118.99999999999999</ele><time>2026-04-26T18:07:40.393Z</time></trkpt><trkpt lat="46.0809338" lon="13.2287998"><ele>119.0</ele><time>2026-04-26T18:07:41.392Z</time></trkpt><trkpt lat="46.080886" lon="13.2289094"><ele>119.0</ele><time>2026-04-26T18:07:42.393Z</time></trkpt><trkpt lat="46.0808422" lon="13.2290144"><ele>119.0</ele><time>2026-04-26T18:07:43.392Z</time></trkpt><trkpt lat="46.0807996" lon="13.2291153"><ele>118.99999999999999</ele><time>2026-04-26T18:07:44.391Z</time></trkpt><trkpt lat="46.0807578" lon="13.2292088"><ele>119.0</ele><time>2026-04-26T18:07:45.392Z</time></trkpt><trkpt lat="46.0807172" lon="13.2293056"><ele>119.49999999999999</ele><time>2026-04-26T18:07:46.392Z</time></trkpt><trkpt lat="46.0806822" lon="13.2293919"><ele>120.0</ele><time>2026-04-26T18:07:47.392Z</time></trkpt><trkpt lat="46.0806474" lon="13.2294714"><ele>120.5</ele><time>2026-04-26T18:07:48.392Z</time></trkpt><trkpt lat="46.0806109" lon="13.2295648"><ele>121.0</ele><time>2026-04-26T18:07:49.391Z</time></trkpt><trkpt lat="46.0805609" lon="13.2296709"><ele>121.49999999999999</ele><time>2026-04-26T18:07:50.392Z</time></trkpt><trkpt lat="46.0805011" lon="13.2297924"><ele>122.0</ele><time>2026-04-26T18:07:51.392Z</time></trkpt><trkpt lat="46.0804449" lon="13.2299224"><ele>122.0</ele><time>2026-04-26T18:07:52.392Z</time></trkpt><trkpt lat="46.0803884" lon="13.2300486"><ele>121.99999999999999</ele><time>2026-04-26T18:07:53.391Z</time></trkpt><trkpt lat="46.0803388" lon="13.2301658"><ele>121.99999999999999</ele><time>2026-04-26T18:07:54.393Z</time></trkpt><trkpt lat="46.0802891" lon="13.2302771"><ele>122.0</ele><time>2026-04-26T18:07:55.392Z</time></trkpt><trkpt lat="46.0802413" lon="13.2303831"><ele>122.0</ele><time>2026-04-26T18:07:56.392Z</time></trkpt><trkpt lat="46.0801919" lon="13.230488"><ele>121.99999999999999</ele><time>2026-04-26T18:07:57.392Z</time></trkpt><trkpt lat="46.0801396" lon="13.230588"><ele>122.0</ele><time>2026-04-26T18:07:58.392Z</time></trkpt><trkpt lat="46.0800844" lon="13.2306913"><ele>122.0</ele><time>2026-04-26T18:07:59.392Z</time></trkpt><trkpt lat="46.0800286" lon="13.2308001"><ele>122.0</ele><time>2026-04-26T18:08:00.392Z</time></trkpt><trkpt lat="46.0799745" lon="13.2309076"><ele>121.99999999999999</ele><time>2026-04-26T18:08:01.392Z</time></trkpt><trkpt lat="46.079926" lon="13.2310097"><ele>122.0</ele><time>2026-04-26T18:08:02.392Z</time></trkpt><trkpt lat="46.0798799" lon="13.2311079"><ele>121.57142857142856</ele><time>2026-04-26T18:08:03.393Z</time></trkpt><trkpt lat="46.0798359" lon="13.2312027"><ele>121.14285714285714</ele><time>2026-04-26T18:08:04.392Z</time></trkpt><trkpt lat="46.0797956" lon="13.2312856"><ele>120.71428571428571</ele><time>2026-04-26T18:08:05.392Z</time></trkpt><trkpt lat="46.0797569" lon="13.2313602"><ele>120.28571428571428</ele><time>2026-04-26T18:08:06.392Z</time></trkpt><trkpt lat="46.0797054" lon="13.2314523"><ele>119.85714285714286</ele><time>2026-04-26T18:08:08.393Z</time></trkpt><trkpt lat="46.0796771" lon="13.2315413"><ele>119.42857142857143</ele><time>2026-04-26T18:08:11.392Z</time></trkpt><trkpt lat="46.0797187" lon="13.2316118"><ele>119.0</ele><time>2026-04-26T18:08:13.393Z</time></trkpt><trkpt lat="46.0798078" lon="13.2317045"><ele>119.0</ele><time>2026-04-26T18:08:15.392Z</time></trkpt><trkpt lat="46.0798933" lon="13.2318582"><ele>119.0</ele><time>2026-04-26T18:08:17.391Z</time></trkpt><trkpt lat="46.0799284" lon="13.2319564"><ele>119.0</ele><time>2026-04-26T18:08:18.392Z</time></trkpt><trkpt lat="46.0799592" lon="13.2320592"><ele>119.0</ele><time>2026-04-26T18:08:19.392Z</time></trkpt><trkpt lat="46.0799894" lon="13.2321684"><ele>119.0</ele><time>2026-04-26T18:08:20.391Z</time></trkpt><trkpt lat="46.0800181" lon="13.232277"><ele>119.16666666666666</ele><time>2026-04-26T18:08:21.393Z</time></trkpt><trkpt lat="46.0800489" lon="13.2323798"><ele>119.33333333333333</ele><time>2026-04-26T18:08:22.392Z</time></trkpt><trkpt lat="46.0800771" lon="13.2324867"><ele>119.5</ele><time>2026-04-26T18:08:23.392Z</time></trkpt><trkpt lat="46.0801069" lon="13.2325906"><ele>119.66666666666666</ele><time>2026-04-26T18:08:24.392Z</time></trkpt><trkpt lat="46.0801372" lon="13.2326916"><ele>119.83333333333333</ele><time>2026-04-26T18:08:25.392Z</time></trkpt><trkpt lat="46.0801626" lon="13.2327909"><ele>120.0</ele><time>2026-04-26T18:08:26.392Z</time></trkpt><trkpt lat="46.08019" lon="13.2328877"><ele>120.0</ele><time>2026-04-26T18:08:27.392Z</time></trkpt><trkpt lat="46.0802166" lon="13.2329897"><ele>120.0</ele><time>2026-04-26T18:08:28.393Z</time></trkpt><trkpt lat="46.0802413" lon="13.2330921"><ele>120.0</ele><time>2026-04-26T18:08:29.392Z</time></trkpt><trkpt lat="46.0802691" lon="13.2331976"><ele>120.0</ele><time>2026-04-26T18:08:30.391Z</time></trkpt><trkpt lat="46.0802969" lon="13.2332977"><ele>120.0</ele><time>2026-04-26T18:08:31.392Z</time></trkpt><trkpt lat="46.0803241" lon="13.2333983"><ele>120.0</ele><time>2026-04-26T18:08:32.391Z</time></trkpt><trkpt lat="46.080348" lon="13.2334923"><ele>120.0</ele><time>2026-04-26T18:08:33.393Z</time></trkpt><trkpt lat="46.0803723" lon="13.2335793"><ele>119.83333333333333</ele><time>2026-04-26T18:08:34.392Z</time></trkpt><trkpt lat="46.0804109" lon="13.2337135"><ele>119.66666666666666</ele><time>2026-04-26T18:08:36.392Z</time></trkpt><trkpt lat="46.0804187" lon="13.233832"><ele>119.5</ele><time>2026-04-26T18:08:39.392Z</time></trkpt><trkpt lat="46.0803883" lon="13.2339338"><ele>119.33333333333333</ele><time>2026-04-26T18:08:42.392Z</time></trkpt><trkpt lat="46.0802935" lon="13.233999"><ele>119.16666666666666</ele><time>2026-04-26T18:08:44.393Z</time></trkpt><trkpt lat="46.0802341" lon="13.2340299"><ele>119.0</ele><time>2026-04-26T18:08:45.393Z</time></trkpt><trkpt lat="46.0801678" lon="13.2340635"><ele>119.0</ele><time>2026-04-26T18:08:46.392Z</time></trkpt><trkpt lat="46.0801075" lon="13.2340978"><ele>119.0</ele><time>2026-04-26T18:08:47.392Z</time></trkpt><trkpt lat="46.080047" lon="13.2341255"><ele>119.0</ele><time>2026-04-26T18:08:48.392Z</time></trkpt><trkpt lat="46.0799883" lon="13.2341589"><ele>119.0</ele><time>2026-04-26T18:08:49.391Z</time></trkpt><trkpt lat="46.0799173" lon="13.2341886"><ele>119.0</ele><time>2026-04-26T18:08:50.392Z</time></trkpt><trkpt lat="46.0798446" lon="13.234223"><ele>119.0</ele><time>2026-04-26T18:08:51.393Z</time></trkpt><trkpt lat="46.0797708" lon="13.2342553"><ele>119.0</ele><time>2026-04-26T18:08:52.391Z</time></trkpt><trkpt lat="46.0796868" lon="13.2342903"><ele>119.0</ele><time>2026-04-26T18:08:53.392Z</time></trkpt><trkpt lat="46.079594" lon="13.2343325"><ele>119.0</ele><time>2026-04-26T18:08:54.393Z</time></trkpt><trkpt lat="46.0794975" lon="13.234362"><ele>119.0</ele><time>2026-04-26T18:08:55.392Z</time></trkpt><trkpt lat="46.0794005" lon="13.2344015"><ele>119.0</ele><time>2026-04-26T18:08:56.392Z</time></trkpt><trkpt lat="46.0793085" lon="13.2344355"><ele>119.0</ele><time>2026-04-26T18:08:57.391Z</time></trkpt><trkpt lat="46.079222" lon="13.2344686"><ele>118.99999999999999</ele><time>2026-04-26T18:08:58.391Z</time></trkpt><trkpt lat="46.0791304" lon="13.2344797"><ele>119.0</ele><time>2026-04-26T18:08:59.392Z</time></trkpt><trkpt lat="46.0790525" lon="13.2345005"><ele>119.0</ele><time>2026-04-26T18:09:00.392Z</time></trkpt><trkpt lat="46.0789394" lon="13.2345244"><ele>119.0</ele><time>2026-04-26T18:09:02.392Z</time></trkpt><trkpt lat="46.0788727" lon="13.2345415"><ele>118.99999999999999</ele><time>2026-04-26T18:09:04.392Z</time></trkpt><trkpt lat="46.0788001" lon="13.2345575"><ele>119.0</ele><time>2026-04-26T18:09:06.392Z</time></trkpt><trkpt lat="46.0786657" lon="13.2345805"><ele>119.14285714285714</ele><time>2026-04-26T18:09:08.392Z</time></trkpt><trkpt lat="46.0785986" lon="13.234603"><ele>119.28571428571428</ele><time>2026-04-26T18:09:09.392Z</time></trkpt><trkpt lat="46.0785289" lon="13.2346187"><ele>119.42857142857143</ele><time>2026-04-26T18:09:10.391Z</time></trkpt><trkpt lat="46.0784603" lon="13.2346366"><ele>119.57142857142857</ele><time>2026-04-26T18:09:11.393Z</time></trkpt><trkpt lat="46.0783898" lon="13.2346478"><ele>119.71428571428571</ele><time>2026-04-26T18:09:12.391Z</time></trkpt><trkpt lat="46.0783152" lon="13.2346618"><ele>119.85714285714286</ele><time>2026-04-26T18:09:13.392Z</time></trkpt><trkpt lat="46.0782384" lon="13.2346776"><ele>120.0</ele><time>2026-04-26T18:09:14.392Z</time></trkpt><trkpt lat="46.0781609" lon="13.2346912"><ele>120.0</ele><time>2026-04-26T18:09:15.392Z</time></trkpt><trkpt lat="46.0780846" lon="13.2346988"><ele>120.0</ele><time>2026-04-26T18:09:16.393Z</time></trkpt><trkpt lat="46.0780136" lon="13.2347062"><ele>120.0</ele><time>2026-04-26T18:09:17.392Z</time></trkpt><trkpt lat="46.0779501" lon="13.2347084"><ele>120.0</ele><time>2026-04-26T18:09:18.392Z</time></trkpt><trkpt lat="46.0778462" lon="13.2347126"><ele>120.0</ele><time>2026-04-26T18:09:20.393Z</time></trkpt><trkpt lat="46.0777557" lon="13.2347189"><ele>120.0</ele><time>2026-04-26T18:09:22.392Z</time></trkpt><trkpt lat="46.0776749" lon="13.2347351"><ele>120.0</ele><time>2026-04-26T18:09:24.392Z</time></trkpt><trkpt lat="46.0776137" lon="13.234778"><ele>120.0</ele><time>2026-04-26T18:09:26.392Z</time></trkpt><trkpt lat="46.0775659" lon="13.2348811"><ele>120.0</ele><time>2026-04-26T18:09:29.392Z</time></trkpt><trkpt lat="46.0775522" lon="13.2350061"><ele>120.0</ele><time>2026-04-26T18:09:32.392Z</time></trkpt><trkpt lat="46.0775649" lon="13.2351503"><ele>120.0</ele><time>2026-04-26T18:09:34.391Z</time></trkpt><trkpt lat="46.0775766" lon="13.2352673"><ele>120.0</ele><time>2026-04-26T18:09:36.392Z</time></trkpt><trkpt lat="46.0775914" lon="13.2353654"><ele>119.8</ele><time>2026-04-26T18:09:38.393Z</time></trkpt><trkpt lat="46.0775873" lon="13.2355215"><ele>119.6</ele><time>2026-04-26T18:09:40.392Z</time></trkpt><trkpt lat="46.0775122" lon="13.2356474"><ele>119.4</ele><time>2026-04-26T18:09:42.392Z</time></trkpt><trkpt lat="46.0774069" lon="13.2356994"><ele>119.2</ele><time>2026-04-26T18:09:44.392Z</time></trkpt><trkpt lat="46.0773038" lon="13.2357551"><ele>119.0</ele><time>2026-04-26T18:09:46.392Z</time></trkpt><trkpt lat="46.0772129" lon="13.235803"><ele>118.33333333333333</ele><time>2026-04-26T18:09:48.392Z</time></trkpt><trkpt lat="46.0771359" lon="13.2358561"><ele>117.66666666666666</ele><time>2026-04-26T18:09:50.392Z</time></trkpt><trkpt lat="46.0770753" lon="13.2359096"><ele>117.0</ele><time>2026-04-26T18:09:52.392Z</time></trkpt><trkpt lat="46.0770161" lon="13.2359782"><ele>116.33333333333334</ele><time>2026-04-26T18:09:54.393Z</time></trkpt><trkpt lat="46.0769575" lon="13.2360799"><ele>115.66666666666667</ele><time>2026-04-26T18:09:56.392Z</time></trkpt><trkpt lat="46.0768986" lon="13.2361609"><ele>115.0</ele><time>2026-04-26T18:09:58.392Z</time></trkpt><trkpt lat="46.0768344" lon="13.2362411"><ele>115.0</ele><time>2026-04-26T18:10:00.392Z</time></trkpt><trkpt lat="46.0767659" lon="13.2363293"><ele>115.0</ele><time>2026-04-26T18:10:02.393Z</time></trkpt><trkpt lat="46.0766996" lon="13.2364197"><ele>115.0</ele><time>2026-04-26T18:10:04.393Z</time></trkpt><trkpt lat="46.0766217" lon="13.2365129"><ele>115.0</ele><time>2026-04-26T18:10:06.392Z</time></trkpt><trkpt lat="46.0765334" lon="13.2366206"><ele>115.0</ele><time>2026-04-26T18:10:08.393Z</time></trkpt><trkpt lat="46.0764419" lon="13.2367336"><ele>115.2</ele><time>2026-04-26T18:10:10.391Z</time></trkpt><trkpt lat="46.0763649" lon="13.2368429"><ele>115.4</ele><time>2026-04-26T18:10:12.391Z</time></trkpt><trkpt lat="46.0762862" lon="13.2369435"><ele>115.6</ele><time>2026-04-26T18:10:14.392Z</time></trkpt><trkpt lat="46.0762066" lon="13.2370399"><ele>115.8</ele><time>2026-04-26T18:10:16.392Z</time></trkpt><trkpt lat="46.0761379" lon="13.2371066"><ele>116.0</ele><time>2026-04-26T18:10:18.392Z</time></trkpt><trkpt lat="46.076082" lon="13.2371678"><ele>116.0</ele><time>2026-04-26T18:10:20.393Z</time></trkpt><trkpt lat="46.0760191" lon="13.2372091"><ele>116.0</ele><time>2026-04-26T18:10:22.391Z</time></trkpt><trkpt lat="46.0758813" lon="13.2372525"><ele>116.0</ele><time>2026-04-26T18:10:24.392Z</time></trkpt><trkpt lat="46.0757914" lon="13.2372926"><ele>116.0</ele><time>2026-04-26T18:10:25.392Z</time></trkpt><trkpt lat="46.0756941" lon="13.2373229"><ele>116.0</ele><time>2026-04-26T18:10:26.393Z</time></trkpt><trkpt lat="46.0755908" lon="13.2373555"><ele>116.0</ele><time>2026-04-26T18:10:27.391Z</time></trkpt><trkpt lat="46.0754881" lon="13.2373887"><ele>116.0</ele><time>2026-04-26T18:10:28.393Z</time></trkpt><trkpt lat="46.0753923" lon="13.2374156"><ele>116.0</ele><time>2026-04-26T18:10:29.392Z</time></trkpt><trkpt lat="46.0753018" lon="13.2374462"><ele>116.0</ele><time>2026-04-26T18:10:30.392Z</time></trkpt><trkpt lat="46.075218" lon="13.2374684"><ele>116.0</ele><time>2026-04-26T18:10:31.392Z</time></trkpt><trkpt lat="46.075138" lon="13.237488"><ele>115.99999999999999</ele><time>2026-04-26T18:10:32.392Z</time></trkpt><trkpt lat="46.075063" lon="13.2375094"><ele>116.0</ele><time>2026-04-26T18:10:33.393Z</time></trkpt><trkpt lat="46.0749827" lon="13.2375317"><ele>116.0</ele><time>2026-04-26T18:10:34.391Z</time></trkpt><trkpt lat="46.0748964" lon="13.237561"><ele>116.0</ele><time>2026-04-26T18:10:35.392Z</time></trkpt><trkpt lat="46.0748096" lon="13.2375852"><ele>115.99999999999999</ele><time>2026-04-26T18:10:36.391Z</time></trkpt><trkpt lat="46.0747212" lon="13.2376103"><ele>116.0</ele><time>2026-04-26T18:10:37.392Z</time></trkpt><trkpt lat="46.0746262" lon="13.2376323"><ele>116.33333333333333</ele><time>2026-04-26T18:10:38.391Z</time></trkpt><trkpt lat="46.074537" lon="13.2376571"><ele>116.66666666666666</ele><time>2026-04-26T18:10:39.393Z</time></trkpt><trkpt lat="46.0744476" lon="13.2376794"><ele>117.0</ele><time>2026-04-26T18:10:40.392Z</time></trkpt><trkpt lat="46.0743651" lon="13.2377083"><ele>117.33333333333334</ele><time>2026-04-26T18:10:41.392Z</time></trkpt><trkpt lat="46.0742846" lon="13.2377394"><ele>117.66666666666667</ele><time>2026-04-26T18:10:42.393Z</time></trkpt><trkpt lat="46.0742014" lon="13.2377658"><ele>118.0</ele><time>2026-04-26T18:10:43.392Z</time></trkpt><trkpt lat="46.0741069" lon="13.2377928"><ele>117.60000000000001</ele><time>2026-04-26T18:10:44.393Z</time></trkpt><trkpt lat="46.074002" lon="13.2378237"><ele>117.20000000000002</ele><time>2026-04-26T18:10:45.392Z</time></trkpt><trkpt lat="46.0738971" lon="13.2378531"><ele>116.8</ele><time>2026-04-26T18:10:46.392Z</time></trkpt><trkpt lat="46.0737937" lon="13.2378853"><ele>116.4</ele><time>2026-04-26T18:10:47.393Z</time></trkpt><trkpt lat="46.0736868" lon="13.2379161"><ele>116.0</ele><time>2026-04-26T18:10:48.392Z</time></trkpt><trkpt lat="46.0735849" lon="13.2379474"><ele>116.0</ele><time>2026-04-26T18:10:49.393Z</time></trkpt><trkpt lat="46.0734827" lon="13.2379779"><ele>116.0</ele><time>2026-04-26T18:10:50.391Z</time></trkpt><trkpt lat="46.0733805" lon="13.2380135"><ele>116.0</ele><time>2026-04-26T18:10:51.392Z</time></trkpt><trkpt lat="46.0732806" lon="13.238046"><ele>116.0</ele><time>2026-04-26T18:10:52.392Z</time></trkpt><trkpt lat="46.0731818" lon="13.2380763"><ele>116.0</ele><time>2026-04-26T18:10:53.391Z</time></trkpt><trkpt lat="46.0730888" lon="13.2381078"><ele>116.16666666666666</ele><time>2026-04-26T18:10:54.393Z</time></trkpt><trkpt lat="46.073005" lon="13.2381327"><ele>116.33333333333333</ele><time>2026-04-26T18:10:55.392Z</time></trkpt><trkpt lat="46.0729261" lon="13.2381528"><ele>116.5</ele><time>2026-04-26T18:10:56.392Z</time></trkpt><trkpt lat="46.0728498" lon="13.2381738"><ele>116.66666666666666</ele><time>2026-04-26T18:10:57.392Z</time></trkpt><trkpt lat="46.0727858" lon="13.2381954"><ele>116.83333333333333</ele><time>2026-04-26T18:10:58.393Z</time></trkpt><trkpt lat="46.0726692" lon="13.2382395"><ele>117.0</ele><time>2026-04-26T18:11:00.393Z</time></trkpt><trkpt lat="46.0725982" lon="13.2382635"><ele>117.0</ele><time>2026-04-26T18:11:01.392Z</time></trkpt><trkpt lat="46.0725182" lon="13.2382882"><ele>117.0</ele><time>2026-04-26T18:11:02.392Z</time></trkpt><trkpt lat="46.0724304" lon="13.238313"><ele>117.0</ele><time>2026-04-26T18:11:03.392Z</time></trkpt><trkpt lat="46.0723527" lon="13.2383449"><ele>117.0</ele><time>2026-04-26T18:11:04.392Z</time></trkpt><trkpt lat="46.0722781" lon="13.2383718"><ele>117.0</ele><time>2026-04-26T18:11:05.392Z</time></trkpt><trkpt lat="46.0722111" lon="13.2383937"><ele>117.0</ele><time>2026-04-26T18:11:06.392Z</time></trkpt><trkpt lat="46.0721496" lon="13.23842"><ele>115.0</ele><time>2026-04-26T18:11:07.391Z</time></trkpt><trkpt lat="46.0720665" lon="13.2384638"><ele>115.0</ele><time>2026-04-26T18:11:09.392Z</time></trkpt><trkpt lat="46.0720014" lon="13.2384342"><ele>115.0</ele><time>2026-04-26T18:11:13.392Z</time></trkpt></trkseg></trk></gpx>